Time,TemperatureF,DewpointF,PressureIn,WindDirection,WindDirectionDegrees,WindSpeedMPH,WindSpeedGustMPH,Humidity,HourlyPrecipIn,Conditions,Clouds,dailyrainin,SoftwareType,DateUTC
2013-01-04 00:00:00,24.0,21.8,32.48,East,97,0.0,0.0,91,0.00,,SKC,0.00,VWS V14.01,2013-01-04 05:00:00,
2013-01-04 00:01:00,24.0,21.8,32.48,East,97,0.0,0.0,91,0.00,,SKC,0.00,VWS V14.01,2013-01-04 05:01:00,
2013-01-04 00:02:00,23.9,21.7,32.48,East,96,0.0,0.0,91,0.00,,SKC,0.00,VWS V14.01,2013-01-04 05:02:00,
2013-01-04 00:03:00,23.9,21.7,32.48,East,96,0.0,1.0,91,0.00,,SKC,0.00,VWS V14.01,2013-01-04 05:03:00,
2013-01-04 00:04:00,23.9,21.7,32.48,East,96,0.0,1.0,91,0.00,,SKC,0.00,VWS V14.01,2013-01-04 05:04:00,
2013-01-04 00:05:00,24.0,21.8,32.48,East,97,0.0,0.0,91,0.00,,SKC,0.00,VWS V14.01,2013-01-04 05:05:00,
2013-01-04 00:06:00,24.0,21.8,32.48,East,97,0.0,0.0,91,0.00,,SKC,0.00,VWS V14.01,2013-01-04 05:06:00,
2013-01-04 00:07:00,24.0,21.8,32.48,East,97,0.0,0.0,91,0.00,,SKC,0.00,VWS V14.01,2013-01-04 05:07:00,
2013-01-04 00:08:00,23.9,21.7,32.48,East,97,0.0,0.0,91,0.00,,SKC,0.00,VWS V14.01,2013-01-04 05:08:00,
2013-01-04 00:09:00,23.9,21.7,32.48,East,97,0.0,0.0,91,0.00,,SKC,0.00,VWS V14.01,2013-01-04 05:09:00,
2013-01-04 00:10:00,23.9,21.7,32.48,East,96,0.0,0.0,91,0.00,,SKC,0.00,VWS V14.01,2013-01-04 05:10:00,
2013-01-04 00:11:00,23.8,21.6,32.48,East,97,0.0,0.0,91,0.00,,SKC,0.00,VWS V14.01,2013-01-04 05:11:00,
2013-01-04 00:12:00,23.9,21.7,32.48,East,97,0.0,0.0,91,0.00,,SKC,0.00,VWS V14.01,2013-01-04 05:12:00,
2013-01-04 00:13:00,23.8,21.6,32.48,East,97,0.0,0.0,91,0.00,,SKC,0.00,VWS V14.01,2013-01-04 05:13:00,
2013-01-04 00:14:00,23.7,21.5,32.48,East,97,0.0,0.0,91,0.00,,SKC,0.00,VWS V14.01,2013-01-04 05:14:00,
2013-01-04 00:15:00,23.7,21.5,32.48,East,97,0.0,0.0,91,0.00,,SKC,0.00,VWS V14.01,2013-01-04 05:15:00,
2013-01-04 00:16:00,23.7,21.5,32.48,East,97,0.0,0.0,91,0.00,,SKC,0.00,VWS V14.01,2013-01-04 05:16:00,
2013-01-04 00:17:00,23.7,21.5,32.48,East,97,0.0,0.0,91,0.00,,SKC,0.00,VWS V14.01,2013-01-04 05:17:00,
2013-01-04 00:18:00,23.7,21.5,32.48,East,97,0.0,0.0,91,0.00,,SKC,0.00,VWS V14.01,2013-01-04 05:18:00,
2013-01-04 00:19:00,23.6,21.4,32.48,East,97,0.0,0.0,91,0.00,,SKC,0.00,VWS V14.01,2013-01-04 05:19:00,
2013-01-04 00:20:00,23.6,21.4,32.48,East,97,0.0,0.0,91,0.00,,SKC,0.00,VWS V14.01,2013-01-04 05:20:00,
2013-01-04 00:21:00,23.6,21.4,32.48,East,97,0.0,0.0,91,0.00,,SKC,0.00,VWS V14.01,2013-01-04 05:21:00,
2013-01-04 00:22:00,23.6,21.4,32.48,East,96,0.0,0.0,91,0.00,,SKC,0.00,VWS V14.01,2013-01-04 05:22:00,
2013-01-04 00:23:00,23.5,21.3,32.48,East,97,0.0,0.0,91,0.00,,SKC,0.00,VWS V14.01,2013-01-04 05:23:00,
2013-01-04 00:24:00,23.5,21.3,32.48,East,96,0.0,0.0,91,0.00,,SKC,0.00,VWS V14.01,2013-01-04 05:24:00,
2013-01-04 00:25:00,23.5,21.3,32.48,East,96,0.0,0.0,91,0.00,,SKC,0.00,VWS V14.01,2013-01-04 05:25:00,
2013-01-04 00:26:00,23.4,21.2,32.48,East,96,0.0,0.0,91,0.00,,SKC,0.00,VWS V14.01,2013-01-04 05:26:00,
2013-01-04 00:27:00,23.5,21.3,32.48,East,97,0.0,0.0,91,0.00,,SKC,0.00,VWS V14.01,2013-01-04 05:27:00,
2013-01-04 00:28:00,23.3,20.8,32.48,East,97,0.0,0.0,90,0.00,,SKC,0.00,VWS V14.01,2013-01-04 05:28:00,
2013-01-04 00:29:00,23.3,20.8,32.48,East,97,0.0,0.0,90,0.00,,SKC,0.00,VWS V14.01,2013-01-04 05:29:00,
2013-01-04 00:30:00,23.3,20.8,32.48,East,97,0.0,0.0,90,0.00,,SKC,0.00,VWS V14.01,2013-01-04 05:30:00,
2013-01-04 00:31:00,23.3,20.8,32.48,East,97,0.0,0.0,90,0.00,,SKC,0.00,VWS V14.01,2013-01-04 05:31:00,
2013-01-04 00:32:00,23.3,20.8,32.48,East,97,0.0,0.0,90,0.00,,SKC,0.00,VWS V14.01,2013-01-04 05:32:00,
2013-01-04 00:33:00,23.3,21.1,32.48,East,96,0.0,0.0,91,0.00,,SKC,0.00,VWS V14.01,2013-01-04 05:33:00,
2013-01-04 00:34:00,23.3,21.1,32.48,East,97,0.0,0.0,91,0.00,,SKC,0.00,VWS V14.01,2013-01-04 05:34:00,
2013-01-04 00:35:00,23.3,21.1,32.48,East,97,0.0,0.0,91,0.00,,SKC,0.00,VWS V14.01,2013-01-04 05:35:00,
2013-01-04 00:36:00,23.3,21.1,32.48,East,97,0.0,0.0,91,0.00,,SKC,0.00,VWS V14.01,2013-01-04 05:36:00,
2013-01-04 00:37:00,23.3,21.1,32.48,East,97,0.0,0.0,91,0.00,,SKC,0.00,VWS V14.01,2013-01-04 05:37:00,
2013-01-04 00:38:00,23.2,20.7,32.48,East,96,0.0,0.0,90,0.00,,SKC,0.00,VWS V14.01,2013-01-04 05:38:00,
2013-01-04 00:39:00,23.3,20.8,32.48,East,97,0.0,0.0,90,0.00,,SKC,0.00,VWS V14.01,2013-01-04 05:39:00,
2013-01-04 00:40:00,23.3,20.8,32.48,East,97,0.0,0.0,90,0.00,,SKC,0.00,VWS V14.01,2013-01-04 05:40:00,
2013-01-04 00:41:00,23.3,20.8,32.48,East,97,0.0,0.0,90,0.00,,SKC,0.00,VWS V14.01,2013-01-04 05:41:00,
2013-01-04 00:42:00,23.3,20.8,32.48,East,96,0.0,0.0,90,0.00,,SKC,0.00,VWS V14.01,2013-01-04 05:42:00,
2013-01-04 00:43:00,23.3,21.1,32.48,East,97,0.0,0.0,91,0.00,,SKC,0.00,VWS V14.01,2013-01-04 05:43:00,
2013-01-04 00:44:00,23.3,21.1,32.48,East,96,0.0,0.0,91,0.00,,SKC,0.00,VWS V14.01,2013-01-04 05:44:00,
2013-01-04 00:45:00,23.3,21.1,32.48,East,96,0.0,1.0,91,0.00,,SKC,0.00,VWS V14.01,2013-01-04 05:45:00,
2013-01-04 00:46:00,23.3,21.1,32.48,East,97,0.0,0.0,91,0.00,,SKC,0.00,VWS V14.01,2013-01-04 05:46:00,
2013-01-04 00:47:00,23.3,21.1,32.48,East,96,0.0,1.0,91,0.00,,SKC,0.00,VWS V14.01,2013-01-04 05:47:00,
2013-01-04 00:48:00,23.3,20.8,32.48,East,97,0.0,0.0,90,0.00,,SKC,0.00,VWS V14.01,2013-01-04 05:48:00,
2013-01-04 00:49:00,23.2,20.7,32.48,East,97,0.0,0.0,90,0.00,,SKC,0.00,VWS V14.01,2013-01-04 05:49:00,
2013-01-04 00:50:00,23.2,20.7,32.48,East,96,0.0,0.0,90,0.00,,SKC,0.00,VWS V14.01,2013-01-04 05:50:00,
2013-01-04 00:51:00,23.2,20.7,32.48,East,96,0.0,0.0,90,0.00,,SKC,0.00,VWS V14.01,2013-01-04 05:51:00,
2013-01-04 00:52:00,23.2,20.7,32.48,East,96,0.0,0.0,90,0.00,,SKC,0.00,VWS V14.01,2013-01-04 05:52:00,
2013-01-04 00:53:00,23.1,20.6,32.48,East,97,0.0,0.0,90,0.00,,SKC,0.00,VWS V14.01,2013-01-04 05:53:00,
2013-01-04 00:54:00,23.1,20.6,32.48,East,97,0.0,0.0,90,0.00,,SKC,0.00,VWS V14.01,2013-01-04 05:54:00,
2013-01-04 00:55:00,23.0,20.5,32.48,East,97,0.0,0.0,90,0.00,,SKC,0.00,VWS V14.01,2013-01-04 05:55:00,
2013-01-04 00:56:00,23.0,20.5,32.48,East,97,0.0,0.0,90,0.00,,SKC,0.00,VWS V14.01,2013-01-04 05:56:00,
2013-01-04 00:57:00,23.0,20.5,32.48,East,97,0.0,0.0,90,0.00,,SKC,0.00,VWS V14.01,2013-01-04 05:57:00,
2013-01-04 00:58:00,22.9,20.4,32.48,East,97,0.0,0.0,90,0.00,,SKC,0.00,VWS V14.01,2013-01-04 05:58:00,
2013-01-04 00:59:00,22.8,20.3,32.48,East,97,0.0,0.0,90,0.00,,SKC,0.00,VWS V14.01,2013-01-04 05:59:00,
2013-01-04 01:00:00,22.8,20.3,32.48,East,96,0.0,0.0,90,0.00,,SKC,0.00,VWS V14.01,2013-01-04 06:00:00,
2013-01-04 01:01:00,22.7,20.2,32.48,East,97,0.0,0.0,90,0.00,,SKC,0.00,VWS V14.01,2013-01-04 06:01:00,
2013-01-04 01:02:00,22.7,20.2,32.48,East,97,0.0,0.0,90,0.00,,SKC,0.00,VWS V14.01,2013-01-04 06:02:00,
2013-01-04 01:03:00,22.6,20.1,32.48,East,97,0.0,0.0,90,0.00,,SKC,0.00,VWS V14.01,2013-01-04 06:03:00,
2013-01-04 01:04:00,22.6,20.1,32.48,East,97,0.0,0.0,90,0.00,,SKC,0.00,VWS V14.01,2013-01-04 06:04:00,
2013-01-04 01:05:00,22.5,20.0,32.48,East,96,0.0,0.0,90,0.00,,SKC,0.00,VWS V14.01,2013-01-04 06:05:00,
2013-01-04 01:06:00,22.5,20.0,32.48,East,97,0.0,0.0,90,0.00,,SKC,0.00,VWS V14.01,2013-01-04 06:06:00,
2013-01-04 01:07:00,22.5,20.0,32.48,East,96,0.0,0.0,90,0.00,,SKC,0.00,VWS V14.01,2013-01-04 06:07:00,
2013-01-04 01:08:00,22.4,19.9,32.48,East,97,0.0,0.0,90,0.00,,SKC,0.00,VWS V14.01,2013-01-04 06:08:00,
2013-01-04 01:09:00,22.4,19.9,32.48,East,97,0.0,0.0,90,0.00,,SKC,0.00,VWS V14.01,2013-01-04 06:09:00,
2013-01-04 01:10:00,22.4,19.9,32.48,East,97,0.0,0.0,90,0.00,,SKC,0.00,VWS V14.01,2013-01-04 06:10:00,
2013-01-04 01:11:00,22.4,19.9,32.48,East,96,0.0,0.0,90,0.00,,SKC,0.00,VWS V14.01,2013-01-04 06:11:00,
2013-01-04 01:12:00,22.4,19.9,32.48,East,97,0.0,0.0,90,0.00,,SKC,0.00,VWS V14.01,2013-01-04 06:12:00,
2013-01-04 01:13:00,22.3,19.8,32.48,East,96,0.0,0.0,90,0.00,,SKC,0.00,VWS V14.01,2013-01-04 06:13:00,
2013-01-04 01:14:00,22.3,19.8,32.48,East,96,0.0,0.0,90,0.00,,SKC,0.00,VWS V14.01,2013-01-04 06:14:00,
2013-01-04 01:15:00,22.3,19.8,32.48,East,97,0.0,0.0,90,0.00,,SKC,0.00,VWS V14.01,2013-01-04 06:15:00,
2013-01-04 01:16:00,22.3,19.8,32.48,East,97,0.0,0.0,90,0.00,,SKC,0.00,VWS V14.01,2013-01-04 06:16:00,
2013-01-04 01:17:00,22.3,19.8,32.48,East,97,0.0,0.0,90,0.00,,SKC,0.00,VWS V14.01,2013-01-04 06:17:00,
2013-01-04 01:18:00,22.2,19.7,32.48,East,96,0.0,0.0,90,0.00,,SKC,0.00,VWS V14.01,2013-01-04 06:18:00,
2013-01-04 01:19:00,22.2,19.7,32.48,East,96,0.0,0.0,90,0.00,,SKC,0.00,VWS V14.01,2013-01-04 06:19:00,
2013-01-04 01:20:00,22.2,19.7,32.48,East,96,0.0,0.0,90,0.00,,SKC,0.00,VWS V14.01,2013-01-04 06:20:00,
2013-01-04 01:21:00,22.1,19.6,32.48,East,97,0.0,0.0,90,0.00,,SKC,0.00,VWS V14.01,2013-01-04 06:21:00,
2013-01-04 01:22:00,22.2,19.7,32.48,East,97,0.0,0.0,90,0.00,,SKC,0.00,VWS V14.01,2013-01-04 06:22:00,
2013-01-04 01:23:00,22.0,19.5,32.48,East,97,0.0,0.0,90,0.00,,SKC,0.00,VWS V14.01,2013-01-04 06:23:00,
2013-01-04 01:24:00,22.0,19.5,32.48,East,97,0.0,0.0,90,0.00,,SKC,0.00,VWS V14.01,2013-01-04 06:24:00,
2013-01-04 01:25:00,22.0,19.5,32.48,East,96,0.0,0.0,90,0.00,,SKC,0.00,VWS V14.01,2013-01-04 06:25:00,
2013-01-04 01:26:00,21.9,19.4,32.48,East,96,0.0,0.0,90,0.00,,SKC,0.00,VWS V14.01,2013-01-04 06:26:00,
2013-01-04 01:27:00,22.0,19.5,32.48,East,97,0.0,0.0,90,0.00,,SKC,0.00,VWS V14.01,2013-01-04 06:27:00,
2013-01-04 01:28:00,22.0,19.5,32.48,East,97,0.0,0.0,90,0.00,,SKC,0.00,VWS V14.01,2013-01-04 06:28:00,
2013-01-04 01:29:00,22.0,19.5,32.48,East,97,0.0,0.0,90,0.00,,SKC,0.00,VWS V14.01,2013-01-04 06:29:00,
2013-01-04 01:30:00,22.0,19.5,32.48,East,97,0.0,0.0,90,0.00,,SKC,0.00,VWS V14.01,2013-01-04 06:30:00,
2013-01-04 01:31:00,22.1,19.6,32.48,East,96,0.0,0.0,90,0.00,,SKC,0.00,VWS V14.01,2013-01-04 06:31:00,
2013-01-04 01:32:00,22.0,19.5,32.48,East,97,0.0,0.0,90,0.00,,SKC,0.00,VWS V14.01,2013-01-04 06:32:00,
2013-01-04 01:33:00,22.1,19.6,32.48,East,97,0.0,0.0,90,0.00,,SKC,0.00,VWS V14.01,2013-01-04 06:33:00,
2013-01-04 01:34:00,22.2,19.7,32.48,East,97,0.0,0.0,90,0.00,,SKC,0.00,VWS V14.01,2013-01-04 06:34:00,
2013-01-04 01:35:00,22.2,19.7,32.48,East,97,0.0,0.0,90,0.00,,SKC,0.00,VWS V14.01,2013-01-04 06:35:00,
2013-01-04 01:36:00,22.2,19.7,32.48,East,97,0.0,0.0,90,0.00,,SKC,0.00,VWS V14.01,2013-01-04 06:36:00,
2013-01-04 01:37:00,22.2,19.7,32.48,East,97,0.0,0.0,90,0.00,,SKC,0.00,VWS V14.01,2013-01-04 06:37:00,
2013-01-04 01:38:00,22.2,19.7,32.48,East,96,0.0,0.0,90,0.00,,SKC,0.00,VWS V14.01,2013-01-04 06:38:00,
2013-01-04 01:39:00,22.2,20.0,32.48,East,96,0.0,0.0,91,0.00,,SKC,0.00,VWS V14.01,2013-01-04 06:39:00,
2013-01-04 01:40:00,22.2,19.7,32.48,East,97,0.0,0.0,90,0.00,,SKC,0.00,VWS V14.01,2013-01-04 06:40:00,
2013-01-04 01:41:00,22.1,19.6,32.48,East,97,0.0,0.0,90,0.00,,SKC,0.00,VWS V14.01,2013-01-04 06:41:00,
2013-01-04 01:42:00,22.2,19.7,32.48,East,97,0.0,0.0,90,0.00,,SKC,0.00,VWS V14.01,2013-01-04 06:42:00,
2013-01-04 01:43:00,22.1,19.6,32.48,East,97,0.0,0.0,90,0.00,,SKC,0.00,VWS V14.01,2013-01-04 06:43:00,
2013-01-04 01:44:00,22.1,19.6,32.48,East,97,0.0,0.0,90,0.00,,SKC,0.00,VWS V14.01,2013-01-04 06:44:00,
2013-01-04 01:45:00,22.0,19.5,32.48,East,97,0.0,0.0,90,0.00,,SKC,0.00,VWS V14.01,2013-01-04 06:45:00,
2013-01-04 01:46:00,22.0,19.5,32.48,East,96,0.0,0.0,90,0.00,,SKC,0.00,VWS V14.01,2013-01-04 06:46:00,
2013-01-04 01:47:00,22.0,19.5,32.48,East,97,0.0,0.0,90,0.00,,SKC,0.00,VWS V14.01,2013-01-04 06:47:00,
2013-01-04 01:48:00,22.0,19.5,32.48,East,96,0.0,0.0,90,0.00,,SKC,0.00,VWS V14.01,2013-01-04 06:48:00,
2013-01-04 01:49:00,21.9,19.4,32.48,East,97,0.0,0.0,90,0.00,,SKC,0.00,VWS V14.01,2013-01-04 06:49:00,
2013-01-04 01:50:00,21.9,19.4,32.48,East,97,0.0,0.0,90,0.00,,SKC,0.00,VWS V14.01,2013-01-04 06:50:00,
2013-01-04 01:51:00,21.9,19.4,32.48,East,97,0.0,0.0,90,0.00,,SKC,0.00,VWS V14.01,2013-01-04 06:51:00,
2013-01-04 01:52:00,21.9,19.4,32.48,East,96,0.0,0.0,90,0.00,,SKC,0.00,VWS V14.01,2013-01-04 06:52:00,
2013-01-04 01:53:00,21.8,19.3,32.48,East,96,0.0,0.0,90,0.00,,SKC,0.00,VWS V14.01,2013-01-04 06:53:00,
2013-01-04 01:54:00,21.8,19.3,32.48,East,96,0.0,0.0,90,0.00,,SKC,0.00,VWS V14.01,2013-01-04 06:54:00,
2013-01-04 01:55:00,21.7,19.2,32.48,East,97,0.0,0.0,90,0.00,,SKC,0.00,VWS V14.01,2013-01-04 06:55:00,
2013-01-04 01:56:00,21.7,19.2,32.48,East,97,0.0,0.0,90,0.00,,SKC,0.00,VWS V14.01,2013-01-04 06:56:00,
2013-01-04 01:57:00,21.7,19.2,32.48,East,97,0.0,0.0,90,0.00,,SKC,0.00,VWS V14.01,2013-01-04 06:57:00,
2013-01-04 01:58:00,21.6,19.1,32.48,East,96,0.0,0.0,90,0.00,,SKC,0.00,VWS V14.01,2013-01-04 06:58:00,
2013-01-04 01:59:00,21.6,19.1,32.48,East,97,0.0,0.0,90,0.00,,SKC,0.00,VWS V14.01,2013-01-04 06:59:00,
2013-01-04 02:00:00,21.6,19.1,32.48,East,96,0.0,0.0,90,0.00,,SKC,0.00,VWS V14.01,2013-01-04 07:00:00,
2013-01-04 02:01:00,21.5,19.0,32.48,East,96,0.0,0.0,90,0.00,,SKC,0.00,VWS V14.01,2013-01-04 07:01:00,
2013-01-04 02:02:00,21.5,19.0,32.48,East,96,0.0,0.0,90,0.00,,SKC,0.00,VWS V14.01,2013-01-04 07:02:00,
2013-01-04 02:03:00,21.5,19.0,32.48,East,97,0.0,0.0,90,0.00,,SKC,0.00,VWS V14.01,2013-01-04 07:03:00,
2013-01-04 02:04:00,21.5,19.0,32.48,East,97,0.0,0.0,90,0.00,,SKC,0.00,VWS V14.01,2013-01-04 07:04:00,
2013-01-04 02:05:00,21.5,19.0,32.48,East,96,0.0,0.0,90,0.00,,SKC,0.00,VWS V14.01,2013-01-04 07:05:00,
2013-01-04 02:06:00,21.5,19.0,32.48,East,96,0.0,0.0,90,0.00,,SKC,0.00,VWS V14.01,2013-01-04 07:06:00,
2013-01-04 02:07:00,21.5,19.0,32.48,East,96,0.0,0.0,90,0.00,,SKC,0.00,VWS V14.01,2013-01-04 07:07:00,
2013-01-04 02:08:00,21.5,19.0,32.48,East,97,0.0,0.0,90,0.00,,SKC,0.00,VWS V14.01,2013-01-04 07:08:00,
2013-01-04 02:09:00,21.5,19.0,32.48,East,97,0.0,0.0,90,0.00,,SKC,0.00,VWS V14.01,2013-01-04 07:09:00,
2013-01-04 02:10:00,21.5,19.0,32.48,East,97,0.0,0.0,90,0.00,,SKC,0.00,VWS V14.01,2013-01-04 07:10:00,
2013-01-04 02:11:00,21.5,19.0,32.48,East,97,0.0,0.0,90,0.00,,SKC,0.00,VWS V14.01,2013-01-04 07:11:00,
2013-01-04 02:12:00,21.5,19.0,32.48,East,97,0.0,0.0,90,0.00,,SKC,0.00,VWS V14.01,2013-01-04 07:12:00,
2013-01-04 02:13:00,21.5,19.0,32.48,East,96,0.0,0.0,90,0.00,,SKC,0.00,VWS V14.01,2013-01-04 07:13:00,
2013-01-04 02:14:00,21.5,19.0,32.48,East,96,0.0,0.0,90,0.00,,SKC,0.00,VWS V14.01,2013-01-04 07:14:00,
2013-01-04 02:15:00,21.5,19.0,32.48,East,97,0.0,0.0,90,0.00,,SKC,0.00,VWS V14.01,2013-01-04 07:15:00,
2013-01-04 02:16:00,21.5,19.0,32.48,East,97,0.0,0.0,90,0.00,,SKC,0.00,VWS V14.01,2013-01-04 07:16:00,
2013-01-04 02:17:00,21.5,19.0,32.48,East,97,0.0,0.0,90,0.00,,SKC,0.00,VWS V14.01,2013-01-04 07:17:00,
2013-01-04 02:18:00,21.5,19.0,32.48,East,97,0.0,0.0,90,0.00,,SKC,0.00,VWS V14.01,2013-01-04 07:18:00,
2013-01-04 02:19:00,21.5,19.0,32.48,East,96,0.0,0.0,90,0.00,,SKC,0.00,VWS V14.01,2013-01-04 07:19:00,
2013-01-04 02:20:00,21.5,19.0,32.48,East,97,0.0,0.0,90,0.00,,SKC,0.00,VWS V14.01,2013-01-04 07:20:00,
2013-01-04 02:21:00,21.5,19.0,32.48,East,96,0.0,0.0,90,0.00,,SKC,0.00,VWS V14.01,2013-01-04 07:21:00,
2013-01-04 02:22:00,21.5,19.0,32.48,East,97,0.0,0.0,90,0.00,,SKC,0.00,VWS V14.01,2013-01-04 07:22:00,
2013-01-04 02:23:00,21.6,19.1,32.48,East,96,0.0,0.0,90,0.00,,SKC,0.00,VWS V14.01,2013-01-04 07:23:00,
2013-01-04 02:24:00,21.6,19.4,32.48,East,97,0.0,0.0,91,0.00,,SKC,0.00,VWS V14.01,2013-01-04 07:24:00,
2013-01-04 02:25:00,21.7,19.5,32.48,East,97,0.0,0.0,91,0.00,,SKC,0.00,VWS V14.01,2013-01-04 07:25:00,
2013-01-04 02:26:00,21.7,19.5,32.48,East,96,0.0,0.0,91,0.00,,SKC,0.00,VWS V14.01,2013-01-04 07:26:00,
2013-01-04 02:27:00,21.7,19.5,32.48,East,96,0.0,0.0,91,0.00,,SKC,0.00,VWS V14.01,2013-01-04 07:27:00,
2013-01-04 02:28:00,21.7,19.5,32.48,East,97,0.0,0.0,91,0.00,,SKC,0.00,VWS V14.01,2013-01-04 07:28:00,
2013-01-04 02:29:00,21.8,19.6,32.48,East,97,0.0,0.0,91,0.00,,SKC,0.00,VWS V14.01,2013-01-04 07:29:00,
2013-01-04 02:30:00,21.8,19.6,32.48,East,97,0.0,0.0,91,0.00,,SKC,0.00,VWS V14.01,2013-01-04 07:30:00,
2013-01-04 02:31:00,21.8,19.6,32.48,East,97,0.0,0.0,91,0.00,,SKC,0.00,VWS V14.01,2013-01-04 07:31:00,
2013-01-04 02:32:00,21.8,19.6,32.48,East,97,0.0,0.0,91,0.00,,SKC,0.00,VWS V14.01,2013-01-04 07:32:00,
2013-01-04 02:33:00,21.7,19.5,32.48,East,97,0.0,0.0,91,0.00,,SKC,0.00,VWS V14.01,2013-01-04 07:33:00,
2013-01-04 02:34:00,21.7,19.5,32.48,East,97,0.0,0.0,91,0.00,,SKC,0.00,VWS V14.01,2013-01-04 07:34:00,
2013-01-04 02:35:00,21.7,19.2,32.48,East,96,0.0,2.0,90,0.00,,SKC,0.00,VWS V14.01,2013-01-04 07:35:00,
2013-01-04 02:36:00,21.7,19.2,32.48,East,97,1.0,1.0,90,0.00,,SKC,0.00,VWS V14.01,2013-01-04 07:36:00,
2013-01-04 02:37:00,21.7,19.5,32.48,East,96,0.0,0.0,91,0.00,,SKC,0.00,VWS V14.01,2013-01-04 07:37:00,
2013-01-04 02:38:00,21.8,19.6,32.48,East,97,0.0,0.0,91,0.00,,SKC,0.00,VWS V14.01,2013-01-04 07:38:00,
2013-01-04 02:39:00,21.8,19.6,32.48,East,97,0.0,0.0,91,0.00,,SKC,0.00,VWS V14.01,2013-01-04 07:39:00,
2013-01-04 02:40:00,21.8,19.6,32.48,East,96,0.0,0.0,91,0.00,,SKC,0.00,VWS V14.01,2013-01-04 07:40:00,
2013-01-04 02:41:00,21.9,19.7,32.48,East,96,0.0,0.0,91,0.00,,SKC,0.00,VWS V14.01,2013-01-04 07:41:00,
2013-01-04 02:42:00,21.8,19.6,32.48,East,97,0.0,0.0,91,0.00,,SKC,0.00,VWS V14.01,2013-01-04 07:42:00,
2013-01-04 02:43:00,21.9,19.7,32.48,East,97,0.0,0.0,91,0.00,,SKC,0.00,VWS V14.01,2013-01-04 07:43:00,
2013-01-04 02:44:00,21.9,19.7,32.48,East,97,0.0,0.0,91,0.00,,SKC,0.00,VWS V14.01,2013-01-04 07:44:00,
2013-01-04 02:45:00,21.9,19.7,32.48,East,97,0.0,0.0,91,0.00,,SKC,0.00,VWS V14.01,2013-01-04 07:45:00,
2013-01-04 02:46:00,21.9,19.7,32.48,East,97,0.0,0.0,91,0.00,,SKC,0.00,VWS V14.01,2013-01-04 07:46:00,
2013-01-04 02:47:00,21.9,19.7,32.48,East,97,0.0,0.0,91,0.00,,SKC,0.00,VWS V14.01,2013-01-04 07:47:00,
2013-01-04 02:48:00,21.8,19.3,32.48,East,96,0.0,0.0,90,0.00,,SKC,0.00,VWS V14.01,2013-01-04 07:48:00,
2013-01-04 02:49:00,21.8,19.3,32.48,East,97,0.0,0.0,90,0.00,,SKC,0.00,VWS V14.01,2013-01-04 07:49:00,
2013-01-04 02:50:00,21.7,19.2,32.48,East,97,0.0,0.0,90,0.00,,SKC,0.00,VWS V14.01,2013-01-04 07:50:00,
2013-01-04 02:51:00,21.7,19.2,32.48,East,97,0.0,0.0,90,0.00,,SKC,0.00,VWS V14.01,2013-01-04 07:51:00,
2013-01-04 02:52:00,21.8,19.3,32.48,East,96,0.0,0.0,90,0.00,,SKC,0.00,VWS V14.01,2013-01-04 07:52:00,
2013-01-04 02:53:00,21.6,19.1,32.48,East,97,0.0,1.0,90,0.00,,SKC,0.00,VWS V14.01,2013-01-04 07:53:00,
2013-01-04 02:54:00,21.5,19.0,32.48,East,97,1.0,1.0,90,0.00,,SKC,0.00,VWS V14.01,2013-01-04 07:54:00,
2013-01-04 02:55:00,21.5,19.0,32.48,East,96,0.0,1.0,90,0.00,,SKC,0.00,VWS V14.01,2013-01-04 07:55:00,
2013-01-04 02:56:00,21.4,18.9,32.48,East,96,0.0,0.0,90,0.00,,SKC,0.00,VWS V14.01,2013-01-04 07:56:00,
2013-01-04 02:57:00,21.5,19.0,32.48,East,96,0.0,1.0,90,0.00,,SKC,0.00,VWS V14.01,2013-01-04 07:57:00,
2013-01-04 02:58:00,21.3,18.8,32.48,East,97,0.0,0.0,90,0.00,,SKC,0.00,VWS V14.01,2013-01-04 07:58:00,
2013-01-04 02:59:00,21.3,18.8,32.48,East,96,0.0,0.0,90,0.00,,SKC,0.00,VWS V14.01,2013-01-04 07:59:00,
2013-01-04 03:00:00,21.2,18.7,32.48,East,96,0.0,0.0,90,0.00,,SKC,0.00,VWS V14.01,2013-01-04 08:00:00,
2013-01-04 03:01:00,21.2,18.7,32.48,East,97,0.0,0.0,90,0.00,,SKC,0.00,VWS V14.01,2013-01-04 08:01:00,
2013-01-04 03:02:00,21.2,18.7,32.48,East,97,0.0,0.0,90,0.00,,SKC,0.00,VWS V14.01,2013-01-04 08:02:00,
2013-01-04 03:03:00,21.1,18.6,32.48,East,97,0.0,0.0,90,0.00,,SKC,0.00,VWS V14.01,2013-01-04 08:03:00,
2013-01-04 03:04:00,21.1,18.6,32.48,East,97,0.0,0.0,90,0.00,,SKC,0.00,VWS V14.01,2013-01-04 08:04:00,
2013-01-04 03:05:00,21.1,18.6,32.48,East,97,0.0,0.0,90,0.00,,SKC,0.00,VWS V14.01,2013-01-04 08:05:00,
2013-01-04 03:06:00,21.0,18.5,32.48,East,97,0.0,0.0,90,0.00,,SKC,0.00,VWS V14.01,2013-01-04 08:06:00,
2013-01-04 03:07:00,21.1,18.6,32.48,East,97,0.0,0.0,90,0.00,,SKC,0.00,VWS V14.01,2013-01-04 08:07:00,
2013-01-04 03:08:00,21.0,18.5,32.48,East,96,0.0,0.0,90,0.00,,SKC,0.00,VWS V14.01,2013-01-04 08:08:00,
2013-01-04 03:09:00,20.9,18.2,32.48,East,97,0.0,0.0,89,0.00,,SKC,0.00,VWS V14.01,2013-01-04 08:09:00,
2013-01-04 03:10:00,20.9,18.2,32.48,East,96,0.0,0.0,89,0.00,,SKC,0.00,VWS V14.01,2013-01-04 08:10:00,
2013-01-04 03:11:00,21.0,18.5,32.48,East,97,0.0,0.0,90,0.00,,SKC,0.00,VWS V14.01,2013-01-04 08:11:00,
2013-01-04 03:12:00,21.0,18.3,32.48,East,97,0.0,0.0,89,0.00,,SKC,0.00,VWS V14.01,2013-01-04 08:12:00,
2013-01-04 03:13:00,21.0,18.5,32.48,East,97,0.0,0.0,90,0.00,,SKC,0.00,VWS V14.01,2013-01-04 08:13:00,
2013-01-04 03:14:00,21.1,18.6,32.48,East,97,0.0,0.0,90,0.00,,SKC,0.00,VWS V14.01,2013-01-04 08:14:00,
2013-01-04 03:15:00,21.1,18.6,32.48,East,96,0.0,2.0,90,0.00,,SKC,0.00,VWS V14.01,2013-01-04 08:15:00,
2013-01-04 03:16:00,21.2,18.7,32.48,East,96,0.0,0.0,90,0.00,,SKC,0.00,VWS V14.01,2013-01-04 08:16:00,
2013-01-04 03:17:00,21.1,18.6,32.48,East,96,0.0,2.0,90,0.00,,SKC,0.00,VWS V14.01,2013-01-04 08:17:00,
2013-01-04 03:18:00,21.2,18.7,32.48,East,97,0.0,0.0,90,0.00,,SKC,0.00,VWS V14.01,2013-01-04 08:18:00,
2013-01-04 03:19:00,21.2,18.7,32.48,East,97,0.0,0.0,90,0.00,,SKC,0.00,VWS V14.01,2013-01-04 08:19:00,
2013-01-04 03:20:00,21.2,18.7,32.48,East,96,0.0,0.0,90,0.00,,SKC,0.00,VWS V14.01,2013-01-04 08:20:00,
2013-01-04 03:21:00,21.3,18.8,32.48,East,97,0.0,0.0,90,0.00,,SKC,0.00,VWS V14.01,2013-01-04 08:21:00,
2013-01-04 03:22:00,21.2,18.7,32.48,East,96,0.0,0.0,90,0.00,,SKC,0.00,VWS V14.01,2013-01-04 08:22:00,
2013-01-04 03:23:00,21.2,18.7,32.48,East,97,0.0,0.0,90,0.00,,SKC,0.00,VWS V14.01,2013-01-04 08:23:00,
2013-01-04 03:24:00,21.2,18.7,32.48,East,97,1.0,2.0,90,0.00,,SKC,0.00,VWS V14.01,2013-01-04 08:24:00,
2013-01-04 03:25:00,21.1,18.6,32.48,East,97,0.0,1.0,90,0.00,,SKC,0.00,VWS V14.01,2013-01-04 08:25:00,
2013-01-04 03:26:00,21.1,18.6,32.48,East,97,0.0,0.0,90,0.00,,SKC,0.00,VWS V14.01,2013-01-04 08:26:00,
2013-01-04 03:27:00,21.2,18.7,32.48,East,97,0.0,1.0,90,0.00,,SKC,0.00,VWS V14.01,2013-01-04 08:27:00,
2013-01-04 03:28:00,21.0,18.5,32.48,East,96,0.0,0.0,90,0.00,,SKC,0.00,VWS V14.01,2013-01-04 08:28:00,
2013-01-04 03:29:00,21.0,18.5,32.48,East,96,0.0,0.0,90,0.00,,SKC,0.00,VWS V14.01,2013-01-04 08:29:00,
2013-01-04 03:30:00,20.9,18.4,32.48,East,97,0.0,0.0,90,0.00,,SKC,0.00,VWS V14.01,2013-01-04 08:30:00,
2013-01-04 03:31:00,21.0,18.5,32.48,East,96,0.0,0.0,90,0.00,,SKC,0.00,VWS V14.01,2013-01-04 08:31:00,
2013-01-04 03:32:00,20.9,18.4,32.48,East,97,0.0,0.0,90,0.00,,SKC,0.00,VWS V14.01,2013-01-04 08:32:00,
2013-01-04 03:33:00,20.8,18.1,32.48,East,97,0.0,0.0,89,0.00,,SKC,0.00,VWS V14.01,2013-01-04 08:33:00,
2013-01-04 03:34:00,20.8,18.1,32.48,East,97,0.0,0.0,89,0.00,,SKC,0.00,VWS V14.01,2013-01-04 08:34:00,
2013-01-04 03:35:00,20.8,18.1,32.48,East,96,0.0,0.0,89,0.00,,SKC,0.00,VWS V14.01,2013-01-04 08:35:00,
2013-01-04 03:36:00,20.8,18.1,32.48,East,97,0.0,0.0,89,0.00,,SKC,0.00,VWS V14.01,2013-01-04 08:36:00,
2013-01-04 03:37:00,20.7,18.0,32.48,East,97,0.0,0.0,89,0.00,,SKC,0.00,VWS V14.01,2013-01-04 08:37:00,
2013-01-04 03:38:00,20.7,18.0,32.48,East,97,0.0,0.0,89,0.00,,SKC,0.00,VWS V14.01,2013-01-04 08:38:00,
2013-01-04 03:39:00,20.7,18.2,32.48,East,97,0.0,0.0,90,0.00,,SKC,0.00,VWS V14.01,2013-01-04 08:39:00,
2013-01-04 03:40:00,20.6,18.1,32.48,East,97,0.0,0.0,90,0.00,,SKC,0.00,VWS V14.01,2013-01-04 08:40:00,
2013-01-04 03:41:00,20.6,18.1,32.48,East,96,1.0,1.0,90,0.00,,SKC,0.00,VWS V14.01,2013-01-04 08:41:00,
2013-01-04 03:42:00,20.6,18.1,32.48,East,96,0.0,0.0,90,0.00,,SKC,0.00,VWS V14.01,2013-01-04 08:42:00,
2013-01-04 03:43:00,20.7,18.2,32.48,East,97,0.0,0.0,90,0.00,,SKC,0.00,VWS V14.01,2013-01-04 08:43:00,
2013-01-04 03:44:00,20.7,18.2,32.48,East,97,0.0,0.0,90,0.00,,SKC,0.00,VWS V14.01,2013-01-04 08:44:00,
2013-01-04 03:45:00,20.7,18.2,32.48,East,97,1.0,2.0,90,0.00,,SKC,0.00,VWS V14.01,2013-01-04 08:45:00,
2013-01-04 03:46:00,20.8,18.3,32.48,East,97,2.0,2.0,90,0.00,,SKC,0.00,VWS V14.01,2013-01-04 08:46:00,
2013-01-04 03:47:00,20.7,18.2,32.48,East,97,1.0,2.0,90,0.00,,SKC,0.00,VWS V14.01,2013-01-04 08:47:00,
2013-01-04 03:48:00,20.9,18.4,32.48,East,97,0.0,0.0,90,0.00,,SKC,0.00,VWS V14.01,2013-01-04 08:48:00,
2013-01-04 03:49:00,20.9,18.4,32.48,East,97,0.0,0.0,90,0.00,,SKC,0.00,VWS V14.01,2013-01-04 08:49:00,
2013-01-04 03:50:00,20.9,18.4,32.48,East,97,0.0,0.0,90,0.00,,SKC,0.00,VWS V14.01,2013-01-04 08:50:00,
2013-01-04 03:51:00,20.9,18.4,32.48,East,96,0.0,0.0,90,0.00,,SKC,0.00,VWS V14.01,2013-01-04 08:51:00,
2013-01-04 03:52:00,20.9,18.4,32.48,East,97,0.0,0.0,90,0.00,,SKC,0.00,VWS V14.01,2013-01-04 08:52:00,
2013-01-04 03:53:00,20.9,18.4,32.48,East,97,1.0,2.0,90,0.00,,SKC,0.00,VWS V14.01,2013-01-04 08:53:00,
2013-01-04 03:54:00,20.9,18.4,32.48,East,97,0.0,1.0,90,0.00,,SKC,0.00,VWS V14.01,2013-01-04 08:54:00,
2013-01-04 03:55:00,20.8,18.3,32.48,East,97,0.0,0.0,90,0.00,,SKC,0.00,VWS V14.01,2013-01-04 08:55:00,
2013-01-04 03:56:00,20.8,18.3,32.48,East,96,0.0,0.0,90,0.00,,SKC,0.00,VWS V14.01,2013-01-04 08:56:00,
2013-01-04 03:57:00,20.8,18.3,32.48,East,96,0.0,0.0,90,0.00,,SKC,0.00,VWS V14.01,2013-01-04 08:57:00,
2013-01-04 03:58:00,20.7,18.2,32.48,East,96,1.0,2.0,90,0.00,,SKC,0.00,VWS V14.01,2013-01-04 08:58:00,
2013-01-04 03:59:00,20.7,18.2,32.48,East,97,0.0,1.0,90,0.00,,SKC,0.00,VWS V14.01,2013-01-04 08:59:00,
2013-01-04 04:00:00,20.7,18.2,32.48,East,97,0.0,0.0,90,0.00,,SKC,0.00,VWS V14.01,2013-01-04 09:00:00,
2013-01-04 04:01:00,20.7,18.2,32.48,East,96,0.0,0.0,90,0.00,,SKC,0.00,VWS V14.01,2013-01-04 09:01:00,
2013-01-04 04:02:00,20.7,18.2,32.48,East,96,0.0,0.0,90,0.00,,SKC,0.00,VWS V14.01,2013-01-04 09:02:00,
2013-01-04 04:03:00,20.6,18.1,32.48,East,96,0.0,0.0,90,0.00,,SKC,0.00,VWS V14.01,2013-01-04 09:03:00,
2013-01-04 04:04:00,20.6,18.1,32.48,East,96,0.0,0.0,90,0.00,,SKC,0.00,VWS V14.01,2013-01-04 09:04:00,
2013-01-04 04:05:00,20.6,18.1,32.48,East,97,0.0,0.0,90,0.00,,SKC,0.00,VWS V14.01,2013-01-04 09:05:00,
2013-01-04 04:06:00,20.6,18.1,32.48,East,97,0.0,0.0,90,0.00,,SKC,0.00,VWS V14.01,2013-01-04 09:06:00,
2013-01-04 04:07:00,20.6,18.1,32.48,East,97,0.0,0.0,90,0.00,,SKC,0.00,VWS V14.01,2013-01-04 09:07:00,
2013-01-04 04:08:00,20.6,18.1,32.48,East,97,0.0,0.0,90,0.00,,SKC,0.00,VWS V14.01,2013-01-04 09:08:00,
2013-01-04 04:09:00,20.6,18.1,32.48,East,96,0.0,0.0,90,0.00,,SKC,0.00,VWS V14.01,2013-01-04 09:09:00,
2013-01-04 04:10:00,20.6,18.1,32.48,East,96,1.0,1.0,90,0.00,,SKC,0.00,VWS V14.01,2013-01-04 09:10:00,
2013-01-04 04:11:00,20.6,18.1,32.48,East,97,0.0,1.0,90,0.00,,SKC,0.00,VWS V14.01,2013-01-04 09:11:00,
2013-01-04 04:12:00,20.6,18.1,32.48,East,96,0.0,0.0,90,0.00,,SKC,0.00,VWS V14.01,2013-01-04 09:12:00,
2013-01-04 04:13:00,20.6,18.1,32.48,East,97,0.0,0.0,90,0.00,,SKC,0.00,VWS V14.01,2013-01-04 09:13:00,
2013-01-04 04:14:00,20.6,18.1,32.48,East,97,0.0,0.0,90,0.00,,SKC,0.00,VWS V14.01,2013-01-04 09:14:00,
2013-01-04 04:15:00,20.6,18.1,32.48,East,96,0.0,0.0,90,0.00,,SKC,0.00,VWS V14.01,2013-01-04 09:15:00,
2013-01-04 04:16:00,20.6,18.1,32.48,East,96,0.0,0.0,90,0.00,,SKC,0.00,VWS V14.01,2013-01-04 09:16:00,
2013-01-04 04:17:00,20.6,18.1,32.48,East,97,0.0,0.0,90,0.00,,SKC,0.00,VWS V14.01,2013-01-04 09:17:00,
2013-01-04 04:18:00,20.6,18.1,32.48,East,97,0.0,0.0,90,0.00,,SKC,0.00,VWS V14.01,2013-01-04 09:18:00,
2013-01-04 04:19:00,20.6,18.1,32.48,East,97,0.0,0.0,90,0.00,,SKC,0.00,VWS V14.01,2013-01-04 09:19:00,
2013-01-04 04:20:00,20.6,18.1,32.48,East,97,0.0,0.0,90,0.00,,SKC,0.00,VWS V14.01,2013-01-04 09:20:00,
2013-01-04 04:21:00,20.6,18.1,32.48,East,97,0.0,0.0,90,0.00,,SKC,0.00,VWS V14.01,2013-01-04 09:21:00,
2013-01-04 04:22:00,20.6,18.1,32.48,East,97,0.0,0.0,90,0.00,,SKC,0.00,VWS V14.01,2013-01-04 09:22:00,
2013-01-04 04:23:00,20.5,18.0,32.48,East,96,0.0,0.0,90,0.00,,SKC,0.00,VWS V14.01,2013-01-04 09:23:00,
2013-01-04 04:24:00,20.4,17.9,32.48,East,96,0.0,0.0,90,0.00,,SKC,0.00,VWS V14.01,2013-01-04 09:24:00,
2013-01-04 04:25:00,20.4,17.9,32.48,East,97,0.0,0.0,90,0.00,,SKC,0.00,VWS V14.01,2013-01-04 09:25:00,
2013-01-04 04:26:00,20.4,17.9,32.48,East,97,0.0,0.0,90,0.00,,SKC,0.00,VWS V14.01,2013-01-04 09:26:00,
2013-01-04 04:27:00,20.4,17.9,32.48,East,96,0.0,0.0,90,0.00,,SKC,0.00,VWS V14.01,2013-01-04 09:27:00,
2013-01-04 04:28:00,20.4,17.9,32.48,East,97,0.0,0.0,90,0.00,,SKC,0.00,VWS V14.01,2013-01-04 09:28:00,
2013-01-04 04:29:00,20.3,17.8,32.48,East,97,0.0,0.0,90,0.00,,SKC,0.00,VWS V14.01,2013-01-04 09:29:00,
2013-01-04 04:30:00,20.3,17.6,32.48,East,96,0.0,0.0,89,0.00,,SKC,0.00,VWS V14.01,2013-01-04 09:30:00,
2013-01-04 04:31:00,20.3,17.6,32.48,East,97,0.0,0.0,89,0.00,,SKC,0.00,VWS V14.01,2013-01-04 09:31:00,
2013-01-04 04:32:00,20.2,17.5,32.48,East,96,0.0,0.0,89,0.00,,SKC,0.00,VWS V14.01,2013-01-04 09:32:00,
2013-01-04 04:33:00,20.2,17.5,32.48,East,97,0.0,0.0,89,0.00,,SKC,0.00,VWS V14.01,2013-01-04 09:33:00,
2013-01-04 04:34:00,20.2,17.5,32.48,East,97,0.0,0.0,89,0.00,,SKC,0.00,VWS V14.01,2013-01-04 09:34:00,
2013-01-04 04:35:00,20.1,17.4,32.48,East,97,0.0,0.0,89,0.00,,SKC,0.00,VWS V14.01,2013-01-04 09:35:00,
2013-01-04 04:36:00,20.2,17.5,32.48,East,97,0.0,0.0,89,0.00,,SKC,0.00,VWS V14.01,2013-01-04 09:36:00,
2013-01-04 04:37:00,20.0,17.3,32.48,East,96,0.0,0.0,89,0.00,,SKC,0.00,VWS V14.01,2013-01-04 09:37:00,
2013-01-04 04:38:00,20.0,17.3,32.48,East,97,0.0,0.0,89,0.00,,SKC,0.00,VWS V14.01,2013-01-04 09:38:00,
2013-01-04 04:39:00,20.0,17.3,32.48,East,97,0.0,0.0,89,0.00,,SKC,0.00,VWS V14.01,2013-01-04 09:39:00,
2013-01-04 04:40:00,20.1,17.4,32.48,East,97,0.0,0.0,89,0.00,,SKC,0.00,VWS V14.01,2013-01-04 09:40:00,
2013-01-04 04:41:00,20.0,17.3,32.48,East,97,0.0,0.0,89,0.00,,SKC,0.00,VWS V14.01,2013-01-04 09:41:00,
2013-01-04 04:42:00,20.2,17.7,32.48,East,97,0.0,0.0,90,0.00,,SKC,0.00,VWS V14.01,2013-01-04 09:42:00,
2013-01-04 04:43:00,20.2,17.7,32.48,East,97,0.0,0.0,90,0.00,,SKC,0.00,VWS V14.01,2013-01-04 09:43:00,
2013-01-04 04:44:00,20.2,17.7,32.48,East,96,0.0,0.0,90,0.00,,SKC,0.00,VWS V14.01,2013-01-04 09:44:00,
2013-01-04 04:45:00,20.2,17.7,32.48,East,96,0.0,0.0,90,0.00,,SKC,0.00,VWS V14.01,2013-01-04 09:45:00,
2013-01-04 04:46:00,20.2,17.7,32.48,East,97,0.0,0.0,90,0.00,,SKC,0.00,VWS V14.01,2013-01-04 09:46:00,
2013-01-04 04:47:00,20.3,17.8,32.48,East,97,0.0,0.0,90,0.00,,SKC,0.00,VWS V14.01,2013-01-04 09:47:00,
2013-01-04 04:48:00,20.3,17.8,32.48,East,97,0.0,0.0,90,0.00,,SKC,0.00,VWS V14.01,2013-01-04 09:48:00,
2013-01-04 04:49:00,20.3,17.8,32.48,East,97,0.0,0.0,90,0.00,,SKC,0.00,VWS V14.01,2013-01-04 09:49:00,
2013-01-04 04:50:00,20.3,17.8,32.48,East,97,0.0,0.0,90,0.00,,SKC,0.00,VWS V14.01,2013-01-04 09:50:00,
2013-01-04 04:51:00,20.3,17.8,32.48,East,97,0.0,0.0,90,0.00,,SKC,0.00,VWS V14.01,2013-01-04 09:51:00,
2013-01-04 04:52:00,20.3,17.8,32.48,East,96,0.0,0.0,90,0.00,,SKC,0.00,VWS V14.01,2013-01-04 09:52:00,
2013-01-04 04:53:00,20.2,17.7,32.48,East,97,0.0,0.0,90,0.00,,SKC,0.00,VWS V14.01,2013-01-04 09:53:00,
2013-01-04 04:54:00,20.2,17.7,32.48,East,97,0.0,0.0,90,0.00,,SKC,0.00,VWS V14.01,2013-01-04 09:54:00,
2013-01-04 04:55:00,20.2,17.7,32.48,East,97,0.0,0.0,90,0.00,,SKC,0.00,VWS V14.01,2013-01-04 09:55:00,
2013-01-04 04:56:00,20.2,17.7,32.48,East,97,0.0,0.0,90,0.00,,SKC,0.00,VWS V14.01,2013-01-04 09:56:00,
2013-01-04 04:57:00,20.2,17.7,32.48,East,96,0.0,0.0,90,0.00,,SKC,0.00,VWS V14.01,2013-01-04 09:57:00,
2013-01-04 04:58:00,20.2,17.7,32.48,East,96,0.0,0.0,90,0.00,,SKC,0.00,VWS V14.01,2013-01-04 09:58:00,
2013-01-04 04:59:00,20.2,17.7,32.48,East,97,0.0,0.0,90,0.00,,SKC,0.00,VWS V14.01,2013-01-04 09:59:00,
2013-01-04 05:00:00,20.2,17.7,32.48,East,97,0.0,0.0,90,0.00,,SKC,0.00,VWS V14.01,2013-01-04 10:00:00,
2013-01-04 05:01:00,20.2,17.7,32.48,East,96,0.0,0.0,90,0.00,,SKC,0.00,VWS V14.01,2013-01-04 10:01:00,
2013-01-04 05:02:00,20.2,17.7,32.48,East,97,0.0,0.0,90,0.00,,SKC,0.00,VWS V14.01,2013-01-04 10:02:00,
2013-01-04 05:03:00,20.2,17.7,32.48,East,97,0.0,0.0,90,0.00,,SKC,0.00,VWS V14.01,2013-01-04 10:03:00,
2013-01-04 05:04:00,20.1,17.6,32.48,East,96,0.0,0.0,90,0.00,,SKC,0.00,VWS V14.01,2013-01-04 10:04:00,
2013-01-04 05:05:00,20.1,17.6,32.48,East,96,0.0,0.0,90,0.00,,SKC,0.00,VWS V14.01,2013-01-04 10:05:00,
2013-01-04 05:06:00,20.1,17.6,32.48,East,97,0.0,0.0,90,0.00,,SKC,0.00,VWS V14.01,2013-01-04 10:06:00,
2013-01-04 05:07:00,20.0,17.5,32.48,East,97,0.0,0.0,90,0.00,,SKC,0.00,VWS V14.01,2013-01-04 10:07:00,
2013-01-04 05:08:00,20.0,17.5,32.48,East,97,0.0,0.0,90,0.00,,SKC,0.00,VWS V14.01,2013-01-04 10:08:00,
2013-01-04 05:09:00,20.0,17.5,32.48,East,97,0.0,0.0,90,0.00,,SKC,0.00,VWS V14.01,2013-01-04 10:09:00,
2013-01-04 05:10:00,19.9,17.5,32.48,East,96,0.0,0.0,90,0.00,,SKC,0.00,VWS V14.01,2013-01-04 10:10:00,
2013-01-04 05:11:00,19.9,17.5,32.48,East,97,0.0,0.0,90,0.00,,SKC,0.00,VWS V14.01,2013-01-04 10:11:00,
2013-01-04 05:12:00,19.9,17.5,32.48,East,97,0.0,0.0,90,0.00,,SKC,0.00,VWS V14.01,2013-01-04 10:12:00,
2013-01-04 05:13:00,19.8,17.4,32.48,East,97,0.0,0.0,90,0.00,,SKC,0.00,VWS V14.01,2013-01-04 10:13:00,
2013-01-04 05:14:00,19.8,17.4,32.48,East,97,0.0,0.0,90,0.00,,SKC,0.00,VWS V14.01,2013-01-04 10:14:00,
2013-01-04 05:15:00,19.8,17.4,32.48,East,97,0.0,0.0,90,0.00,,SKC,0.00,VWS V14.01,2013-01-04 10:15:00,
2013-01-04 05:16:00,19.8,17.4,32.48,East,97,0.0,0.0,90,0.00,,SKC,0.00,VWS V14.01,2013-01-04 10:16:00,
2013-01-04 05:17:00,19.7,17.2,32.48,East,97,0.0,0.0,90,0.00,,SKC,0.00,VWS V14.01,2013-01-04 10:17:00,
2013-01-04 05:18:00,19.8,17.4,32.48,East,96,0.0,0.0,90,0.00,,SKC,0.00,VWS V14.01,2013-01-04 10:18:00,
2013-01-04 05:19:00,19.9,17.5,32.48,East,96,0.0,0.0,90,0.00,,SKC,0.00,VWS V14.01,2013-01-04 10:19:00,
2013-01-04 05:20:00,19.9,17.5,32.48,East,96,0.0,0.0,90,0.00,,SKC,0.00,VWS V14.01,2013-01-04 10:20:00,
2013-01-04 05:21:00,19.9,17.5,32.48,East,97,0.0,0.0,90,0.00,,SKC,0.00,VWS V14.01,2013-01-04 10:21:00,
2013-01-04 05:22:00,20.0,17.5,32.48,East,97,0.0,0.0,90,0.00,,SKC,0.00,VWS V14.01,2013-01-04 10:22:00,
2013-01-04 05:23:00,19.9,17.5,32.48,East,96,0.0,0.0,90,0.00,,SKC,0.00,VWS V14.01,2013-01-04 10:23:00,
2013-01-04 05:24:00,19.9,17.5,32.48,East,96,0.0,0.0,90,0.00,,SKC,0.00,VWS V14.01,2013-01-04 10:24:00,
2013-01-04 05:25:00,19.9,17.5,32.48,East,96,0.0,0.0,90,0.00,,SKC,0.00,VWS V14.01,2013-01-04 10:25:00,
2013-01-04 05:26:00,19.9,17.5,32.48,East,97,0.0,0.0,90,0.00,,SKC,0.00,VWS V14.01,2013-01-04 10:26:00,
2013-01-04 05:27:00,19.9,17.5,32.48,East,97,0.0,0.0,90,0.00,,SKC,0.00,VWS V14.01,2013-01-04 10:27:00,
2013-01-04 05:28:00,19.9,17.5,32.48,East,97,0.0,0.0,90,0.00,,SKC,0.00,VWS V14.01,2013-01-04 10:28:00,
2013-01-04 05:29:00,19.8,17.4,32.48,East,97,0.0,0.0,90,0.00,,SKC,0.00,VWS V14.01,2013-01-04 10:29:00,
2013-01-04 05:30:00,19.8,17.4,32.48,East,97,0.0,0.0,90,0.00,,SKC,0.00,VWS V14.01,2013-01-04 10:30:00,
2013-01-04 05:31:00,19.8,17.4,32.48,East,96,0.0,0.0,90,0.00,,SKC,0.00,VWS V14.01,2013-01-04 10:31:00,
2013-01-04 05:32:00,19.8,17.4,32.48,East,96,0.0,0.0,90,0.00,,SKC,0.00,VWS V14.01,2013-01-04 10:32:00,
2013-01-04 05:33:00,19.7,17.2,32.48,East,97,0.0,0.0,90,0.00,,SKC,0.00,VWS V14.01,2013-01-04 10:33:00,
2013-01-04 05:34:00,19.7,17.2,32.48,East,97,0.0,0.0,90,0.00,,SKC,0.00,VWS V14.01,2013-01-04 10:34:00,
2013-01-04 05:35:00,19.7,17.2,32.48,East,97,0.0,0.0,90,0.00,,SKC,0.00,VWS V14.01,2013-01-04 10:35:00,
2013-01-04 05:36:00,19.7,17.2,32.48,East,97,0.0,0.0,90,0.00,,SKC,0.00,VWS V14.01,2013-01-04 10:36:00,
2013-01-04 05:37:00,19.7,17.2,32.48,East,96,0.0,0.0,90,0.00,,SKC,0.00,VWS V14.01,2013-01-04 10:37:00,
2013-01-04 05:38:00,19.7,17.2,32.48,East,97,0.0,0.0,90,0.00,,SKC,0.00,VWS V14.01,2013-01-04 10:38:00,
2013-01-04 05:39:00,19.7,17.2,32.48,East,96,0.0,0.0,90,0.00,,SKC,0.00,VWS V14.01,2013-01-04 10:39:00,
2013-01-04 05:40:00,19.7,17.2,32.48,East,97,0.0,0.0,90,0.00,,SKC,0.00,VWS V14.01,2013-01-04 10:40:00,
2013-01-04 05:41:00,19.7,17.2,32.48,East,97,0.0,0.0,90,0.00,,SKC,0.00,VWS V14.01,2013-01-04 10:41:00,
2013-01-04 05:42:00,19.7,17.2,32.48,East,97,0.0,0.0,90,0.00,,SKC,0.00,VWS V14.01,2013-01-04 10:42:00,
2013-01-04 05:43:00,19.7,17.2,32.48,East,97,0.0,0.0,90,0.00,,SKC,0.00,VWS V14.01,2013-01-04 10:43:00,
2013-01-04 05:44:00,19.7,17.2,32.48,East,97,0.0,0.0,90,0.00,,SKC,0.00,VWS V14.01,2013-01-04 10:44:00,
2013-01-04 05:45:00,19.7,17.2,32.48,East,97,0.0,0.0,90,0.00,,SKC,0.00,VWS V14.01,2013-01-04 10:45:00,
2013-01-04 05:46:00,19.7,17.2,32.48,East,96,0.0,0.0,90,0.00,,SKC,0.00,VWS V14.01,2013-01-04 10:46:00,
2013-01-04 05:47:00,19.7,17.2,32.48,East,97,0.0,0.0,90,0.00,,SKC,0.00,VWS V14.01,2013-01-04 10:47:00,
2013-01-04 05:48:00,19.7,17.2,32.48,East,97,0.0,0.0,90,0.00,,SKC,0.00,VWS V14.01,2013-01-04 10:48:00,
2013-01-04 05:49:00,19.7,17.2,32.48,East,97,0.0,0.0,90,0.00,,SKC,0.00,VWS V14.01,2013-01-04 10:49:00,
2013-01-04 05:50:00,19.7,17.2,32.48,East,97,0.0,0.0,90,0.00,,SKC,0.00,VWS V14.01,2013-01-04 10:50:00,
2013-01-04 05:51:00,19.7,17.2,32.48,East,97,0.0,0.0,90,0.00,,SKC,0.00,VWS V14.01,2013-01-04 10:51:00,
2013-01-04 05:52:00,19.7,17.2,32.48,East,97,0.0,0.0,90,0.00,,SKC,0.00,VWS V14.01,2013-01-04 10:52:00,
2013-01-04 05:53:00,19.7,17.2,32.48,East,96,0.0,0.0,90,0.00,,SKC,0.00,VWS V14.01,2013-01-04 10:53:00,
2013-01-04 05:54:00,19.7,17.2,32.48,East,96,0.0,0.0,90,0.00,,SKC,0.00,VWS V14.01,2013-01-04 10:54:00,
2013-01-04 05:55:00,19.7,17.2,32.48,East,97,0.0,0.0,90,0.00,,SKC,0.00,VWS V14.01,2013-01-04 10:55:00,
2013-01-04 05:56:00,19.7,17.2,32.48,East,97,0.0,0.0,90,0.00,,SKC,0.00,VWS V14.01,2013-01-04 10:56:00,
2013-01-04 05:57:00,19.7,17.2,32.48,East,96,0.0,1.0,90,0.00,,SKC,0.00,VWS V14.01,2013-01-04 10:57:00,
2013-01-04 05:58:00,19.7,17.2,32.48,East,97,0.0,0.0,90,0.00,,SKC,0.00,VWS V14.01,2013-01-04 10:58:00,
2013-01-04 05:59:00,19.7,17.2,32.48,East,97,0.0,0.0,90,0.00,,SKC,0.00,VWS V14.01,2013-01-04 10:59:00,
2013-01-04 06:00:00,19.7,17.2,32.48,East,97,0.0,0.0,90,0.00,,SKC,0.00,VWS V14.01,2013-01-04 11:00:00,
2013-01-04 06:01:00,19.7,17.2,32.48,East,97,0.0,0.0,90,0.00,,SKC,0.00,VWS V14.01,2013-01-04 11:01:00,
2013-01-04 06:02:00,19.7,17.2,32.48,East,97,0.0,0.0,90,0.00,,SKC,0.00,VWS V14.01,2013-01-04 11:02:00,
2013-01-04 06:03:00,19.7,17.2,32.48,East,97,0.0,0.0,90,0.00,,SKC,0.00,VWS V14.01,2013-01-04 11:03:00,
2013-01-04 06:04:00,19.7,17.2,32.48,East,97,0.0,0.0,90,0.00,,SKC,0.00,VWS V14.01,2013-01-04 11:04:00,
2013-01-04 06:05:00,19.7,17.2,32.48,East,96,0.0,0.0,90,0.00,,SKC,0.00,VWS V14.01,2013-01-04 11:05:00,
2013-01-04 06:06:00,19.7,17.2,32.48,East,96,0.0,0.0,90,0.00,,SKC,0.00,VWS V14.01,2013-01-04 11:06:00,
2013-01-04 06:07:00,19.7,17.2,32.48,East,96,0.0,0.0,90,0.00,,SKC,0.00,VWS V14.01,2013-01-04 11:07:00,
2013-01-04 06:08:00,19.7,17.2,32.48,East,97,0.0,0.0,90,0.00,,SKC,0.00,VWS V14.01,2013-01-04 11:08:00,
2013-01-04 06:09:00,19.7,17.2,32.48,East,97,0.0,0.0,90,0.00,,SKC,0.00,VWS V14.01,2013-01-04 11:09:00,
2013-01-04 06:10:00,19.7,17.2,32.48,East,97,0.0,0.0,90,0.00,,SKC,0.00,VWS V14.01,2013-01-04 11:10:00,
2013-01-04 06:11:00,19.7,17.2,32.48,East,97,0.0,0.0,90,0.00,,SKC,0.00,VWS V14.01,2013-01-04 11:11:00,
2013-01-04 06:12:00,19.7,17.2,32.48,East,96,0.0,0.0,90,0.00,,SKC,0.00,VWS V14.01,2013-01-04 11:12:00,
2013-01-04 06:13:00,19.7,17.2,32.48,East,96,0.0,0.0,90,0.00,,SKC,0.00,VWS V14.01,2013-01-04 11:13:00,
2013-01-04 06:14:00,19.7,17.2,32.48,East,97,0.0,0.0,90,0.00,,SKC,0.00,VWS V14.01,2013-01-04 11:14:00,
2013-01-04 06:15:00,19.6,16.9,32.48,East,97,0.0,0.0,89,0.00,,SKC,0.00,VWS V14.01,2013-01-04 11:15:00,
2013-01-04 06:16:00,19.6,17.1,32.48,East,97,0.0,0.0,90,0.00,,SKC,0.00,VWS V14.01,2013-01-04 11:16:00,
2013-01-04 06:17:00,19.5,16.8,32.48,East,97,0.0,0.0,89,0.00,,SKC,0.00,VWS V14.01,2013-01-04 11:17:00,
2013-01-04 06:18:00,19.5,16.8,32.48,East,96,0.0,0.0,89,0.00,,SKC,0.00,VWS V14.01,2013-01-04 11:18:00,
2013-01-04 06:19:00,19.4,16.7,32.48,East,96,0.0,0.0,89,0.00,,SKC,0.00,VWS V14.01,2013-01-04 11:19:00,
2013-01-04 06:20:00,19.4,16.7,32.48,East,97,0.0,0.0,89,0.00,,SKC,0.00,VWS V14.01,2013-01-04 11:20:00,
2013-01-04 06:21:00,19.4,16.7,32.48,East,97,0.0,0.0,89,0.00,,SKC,0.00,VWS V14.01,2013-01-04 11:21:00,
2013-01-04 06:22:00,19.4,16.7,32.48,East,97,0.0,0.0,89,0.00,,SKC,0.00,VWS V14.01,2013-01-04 11:22:00,
2013-01-04 06:23:00,19.3,16.6,32.48,East,97,0.0,0.0,89,0.00,,SKC,0.00,VWS V14.01,2013-01-04 11:23:00,
2013-01-04 06:24:00,19.3,16.6,32.48,East,97,0.0,0.0,89,0.00,,SKC,0.00,VWS V14.01,2013-01-04 11:24:00,
2013-01-04 06:25:00,19.3,16.6,32.48,East,97,0.0,0.0,89,0.00,,SKC,0.00,VWS V14.01,2013-01-04 11:25:00,
2013-01-04 06:26:00,19.3,16.6,32.48,East,96,0.0,0.0,89,0.00,,SKC,0.00,VWS V14.01,2013-01-04 11:26:00,
2013-01-04 06:27:00,19.3,16.6,32.48,East,96,0.0,0.0,89,0.00,,SKC,0.00,VWS V14.01,2013-01-04 11:27:00,
2013-01-04 06:28:00,19.3,16.6,32.48,East,97,0.0,0.0,89,0.00,,SKC,0.00,VWS V14.01,2013-01-04 11:28:00,
2013-01-04 06:29:00,19.2,16.5,32.48,East,97,0.0,0.0,89,0.00,,SKC,0.00,VWS V14.01,2013-01-04 11:29:00,
2013-01-04 06:30:00,19.2,16.5,32.48,East,96,0.0,0.0,89,0.00,,SKC,0.00,VWS V14.01,2013-01-04 11:30:00,
2013-01-04 06:31:00,19.3,16.6,32.48,East,96,0.0,0.0,89,0.00,,SKC,0.00,VWS V14.01,2013-01-04 11:31:00,
2013-01-04 06:32:00,19.1,16.4,32.48,East,96,0.0,0.0,89,0.00,,SKC,0.00,VWS V14.01,2013-01-04 11:32:00,
2013-01-04 06:33:00,19.1,16.4,32.48,East,96,0.0,0.0,89,0.00,,SKC,0.00,VWS V14.01,2013-01-04 11:33:00,
2013-01-04 06:34:00,19.1,16.4,32.48,East,97,0.0,0.0,89,0.00,,SKC,0.00,VWS V14.01,2013-01-04 11:34:00,
2013-01-04 06:35:00,19.1,16.4,32.48,East,97,0.0,0.0,89,0.00,,SKC,0.00,VWS V14.01,2013-01-04 11:35:00,
2013-01-04 06:36:00,19.1,16.4,32.48,East,97,0.0,0.0,89,0.00,,SKC,0.00,VWS V14.01,2013-01-04 11:36:00,
2013-01-04 06:37:00,19.1,16.4,32.48,East,97,0.0,0.0,89,0.00,,SKC,0.00,VWS V14.01,2013-01-04 11:37:00,
2013-01-04 06:38:00,19.1,16.4,32.48,East,97,0.0,0.0,89,0.00,,SKC,0.00,VWS V14.01,2013-01-04 11:38:00,
2013-01-04 06:39:00,19.1,16.7,32.48,East,97,0.0,0.0,90,0.00,,SKC,0.00,VWS V14.01,2013-01-04 11:39:00,
2013-01-04 06:40:00,19.1,16.7,32.48,East,96,0.0,0.0,90,0.00,,SKC,0.00,VWS V14.01,2013-01-04 11:40:00,
2013-01-04 06:41:00,19.1,16.7,32.48,East,97,0.0,0.0,90,0.00,,SKC,0.00,VWS V14.01,2013-01-04 11:41:00,
2013-01-04 06:42:00,19.1,16.7,32.48,East,96,0.0,0.0,90,0.00,,SKC,0.00,VWS V14.01,2013-01-04 11:42:00,
2013-01-04 06:43:00,19.1,16.7,32.48,East,97,0.0,0.0,90,0.00,,SKC,0.00,VWS V14.01,2013-01-04 11:43:00,
2013-01-04 06:44:00,19.1,16.7,32.48,East,97,0.0,0.0,90,0.00,,SKC,0.00,VWS V14.01,2013-01-04 11:44:00,
2013-01-04 06:45:00,19.1,16.7,32.48,East,97,0.0,0.0,90,0.00,,SKC,0.00,VWS V14.01,2013-01-04 11:45:00,
2013-01-04 06:46:00,19.1,16.7,32.48,East,97,0.0,0.0,90,0.00,,SKC,0.00,VWS V14.01,2013-01-04 11:46:00,
2013-01-04 06:47:00,19.1,16.4,32.48,East,96,0.0,0.0,89,0.00,,SKC,0.00,VWS V14.01,2013-01-04 11:47:00,
2013-01-04 06:48:00,19.1,16.4,32.48,East,96,0.0,0.0,89,0.00,,SKC,0.00,VWS V14.01,2013-01-04 11:48:00,
2013-01-04 06:49:00,19.1,16.4,32.48,East,97,0.0,0.0,89,0.00,,SKC,0.00,VWS V14.01,2013-01-04 11:49:00,
2013-01-04 06:50:00,19.1,16.7,32.48,East,97,0.0,0.0,90,0.00,,SKC,0.00,VWS V14.01,2013-01-04 11:50:00,
2013-01-04 06:51:00,19.1,16.4,32.48,East,97,0.0,0.0,89,0.00,,SKC,0.00,VWS V14.01,2013-01-04 11:51:00,
2013-01-04 06:52:00,19.1,16.7,32.48,East,97,0.0,0.0,90,0.00,,SKC,0.00,VWS V14.01,2013-01-04 11:52:00,
2013-01-04 06:53:00,19.1,16.7,32.48,East,97,0.0,0.0,90,0.00,,SKC,0.00,VWS V14.01,2013-01-04 11:53:00,
2013-01-04 06:54:00,19.1,16.7,32.48,East,96,0.0,0.0,90,0.00,,SKC,0.00,VWS V14.01,2013-01-04 11:54:00,
2013-01-04 06:55:00,19.1,16.7,32.48,East,97,0.0,0.0,90,0.00,,SKC,0.00,VWS V14.01,2013-01-04 11:55:00,
2013-01-04 06:56:00,19.1,16.7,32.48,East,97,0.0,0.0,90,0.00,,SKC,0.00,VWS V14.01,2013-01-04 11:56:00,
2013-01-04 06:57:00,19.1,16.7,32.48,East,97,0.0,0.0,90,0.00,,SKC,0.00,VWS V14.01,2013-01-04 11:57:00,
2013-01-04 06:58:00,19.1,16.7,32.48,East,97,0.0,0.0,90,0.00,,SKC,0.00,VWS V14.01,2013-01-04 11:58:00,
2013-01-04 06:59:00,19.0,16.6,32.48,East,96,0.0,0.0,90,0.00,,SKC,0.00,VWS V14.01,2013-01-04 11:59:00,
2013-01-04 07:00:00,19.0,16.6,32.48,East,97,0.0,0.0,90,0.00,,SKC,0.00,VWS V14.01,2013-01-04 12:00:00,
2013-01-04 07:01:00,19.0,16.6,32.48,East,97,0.0,0.0,90,0.00,,SKC,0.00,VWS V14.01,2013-01-04 12:01:00,
2013-01-04 07:02:00,19.1,16.7,32.48,East,97,0.0,0.0,90,0.00,,SKC,0.00,VWS V14.01,2013-01-04 12:02:00,
2013-01-04 07:03:00,19.1,16.7,32.48,East,97,0.0,0.0,90,0.00,,SKC,0.00,VWS V14.01,2013-01-04 12:03:00,
2013-01-04 07:04:00,19.1,16.7,32.48,East,97,0.0,0.0,90,0.00,,SKC,0.00,VWS V14.01,2013-01-04 12:04:00,
2013-01-04 07:05:00,19.1,16.7,32.48,East,97,0.0,0.0,90,0.00,,SKC,0.00,VWS V14.01,2013-01-04 12:05:00,
2013-01-04 07:06:00,19.1,16.7,32.48,East,97,0.0,0.0,90,0.00,,SKC,0.00,VWS V14.01,2013-01-04 12:06:00,
2013-01-04 07:07:00,19.2,16.8,32.48,East,96,0.0,0.0,90,0.00,,SKC,0.00,VWS V14.01,2013-01-04 12:07:00,
2013-01-04 07:08:00,19.2,16.8,32.48,East,96,0.0,0.0,90,0.00,,SKC,0.00,VWS V14.01,2013-01-04 12:08:00,
2013-01-04 07:09:00,19.3,16.9,32.48,East,97,0.0,0.0,90,0.00,,SKC,0.00,VWS V14.01,2013-01-04 12:09:00,
2013-01-04 07:10:00,19.3,16.9,32.48,East,96,0.0,0.0,90,0.00,,SKC,0.00,VWS V14.01,2013-01-04 12:10:00,
2013-01-04 07:11:00,19.3,16.9,32.48,East,96,0.0,0.0,90,0.00,,SKC,0.00,VWS V14.01,2013-01-04 12:11:00,
2013-01-04 07:12:00,19.3,16.9,32.48,East,97,0.0,0.0,90,0.00,,SKC,0.00,VWS V14.01,2013-01-04 12:12:00,
2013-01-04 07:13:00,19.4,17.0,32.48,East,97,0.0,0.0,90,0.00,,SKC,0.00,VWS V14.01,2013-01-04 12:13:00,
2013-01-04 07:14:00,19.4,17.0,32.48,East,97,0.0,0.0,90,0.00,,SKC,0.00,VWS V14.01,2013-01-04 12:14:00,
2013-01-04 07:15:00,19.4,17.0,32.48,East,97,0.0,0.0,90,0.00,,SKC,0.00,VWS V14.01,2013-01-04 12:15:00,
2013-01-04 07:16:00,19.4,17.0,32.48,East,96,0.0,0.0,90,0.00,,SKC,0.00,VWS V14.01,2013-01-04 12:16:00,
2013-01-04 07:17:00,19.4,17.0,32.48,East,96,0.0,0.0,90,0.00,,SKC,0.00,VWS V14.01,2013-01-04 12:17:00,
2013-01-04 07:18:00,19.4,17.0,32.48,East,97,0.0,0.0,90,0.00,,SKC,0.00,VWS V14.01,2013-01-04 12:18:00,
2013-01-04 07:19:00,19.5,17.0,32.48,East,97,0.0,0.0,90,0.00,,SKC,0.00,VWS V14.01,2013-01-04 12:19:00,
2013-01-04 07:20:00,19.5,17.0,32.48,East,97,0.0,0.0,90,0.00,,SKC,0.00,VWS V14.01,2013-01-04 12:20:00,
2013-01-04 07:21:00,19.5,17.0,32.48,East,97,0.0,0.0,90,0.00,,SKC,0.00,VWS V14.01,2013-01-04 12:21:00,
2013-01-04 07:22:00,19.5,17.0,32.48,East,96,0.0,0.0,90,0.00,,SKC,0.00,VWS V14.01,2013-01-04 12:22:00,
2013-01-04 07:23:00,19.5,17.0,32.48,East,96,0.0,0.0,90,0.00,,SKC,0.00,VWS V14.01,2013-01-04 12:23:00,
2013-01-04 07:24:00,19.5,17.0,32.48,East,97,0.0,0.0,90,0.00,,SKC,0.00,VWS V14.01,2013-01-04 12:24:00,
2013-01-04 07:25:00,19.4,17.0,32.48,East,97,0.0,0.0,90,0.00,,SKC,0.00,VWS V14.01,2013-01-04 12:25:00,
2013-01-04 07:26:00,19.4,17.0,32.48,East,96,0.0,0.0,90,0.00,,SKC,0.00,VWS V14.01,2013-01-04 12:26:00,
2013-01-04 07:27:00,19.4,17.0,32.48,East,97,0.0,0.0,90,0.00,,SKC,0.00,VWS V14.01,2013-01-04 12:27:00,
2013-01-04 07:28:00,19.3,16.9,32.48,East,96,0.0,0.0,90,0.00,,SKC,0.00,VWS V14.01,2013-01-04 12:28:00,
2013-01-04 07:29:00,19.3,16.9,32.48,East,96,0.0,0.0,90,0.00,,SKC,0.00,VWS V14.01,2013-01-04 12:29:00,
2013-01-04 07:30:00,19.3,16.9,32.48,East,97,0.0,0.0,90,0.00,,SKC,0.00,VWS V14.01,2013-01-04 12:30:00,
2013-01-04 07:31:00,19.3,16.9,32.48,East,97,0.0,0.0,90,0.00,,SKC,0.00,VWS V14.01,2013-01-04 12:31:00,
2013-01-04 07:32:00,19.2,16.8,32.48,East,97,0.0,0.0,90,0.00,,SKC,0.00,VWS V14.01,2013-01-04 12:32:00,
2013-01-04 07:33:00,19.1,16.7,32.48,East,97,0.0,0.0,90,0.00,,SKC,0.00,VWS V14.01,2013-01-04 12:33:00,
2013-01-04 07:34:00,19.1,16.7,32.48,East,97,0.0,0.0,90,0.00,,SKC,0.00,VWS V14.01,2013-01-04 12:34:00,
2013-01-04 07:35:00,19.1,16.7,32.48,East,96,0.0,0.0,90,0.00,,SKC,0.00,VWS V14.01,2013-01-04 12:35:00,
2013-01-04 07:36:00,19.1,16.7,32.48,East,97,0.0,0.0,90,0.00,,SKC,0.00,VWS V14.01,2013-01-04 12:36:00,
2013-01-04 07:37:00,19.0,16.6,32.48,East,97,0.0,0.0,90,0.00,,SKC,0.00,VWS V14.01,2013-01-04 12:37:00,
2013-01-04 07:38:00,19.0,16.3,32.48,East,97,0.0,0.0,89,0.00,,SKC,0.00,VWS V14.01,2013-01-04 12:38:00,
2013-01-04 07:39:00,19.0,16.3,32.48,East,97,0.0,0.0,89,0.00,,SKC,0.00,VWS V14.01,2013-01-04 12:39:00,
2013-01-04 07:40:00,19.0,16.6,32.48,East,97,0.0,0.0,90,0.00,,SKC,0.00,VWS V14.01,2013-01-04 12:40:00,
2013-01-04 07:41:00,19.0,16.3,32.48,East,97,0.0,0.0,89,0.00,,SKC,0.00,VWS V14.01,2013-01-04 12:41:00,
2013-01-04 07:42:00,19.0,16.6,32.48,East,97,0.0,0.0,90,0.00,,SKC,0.00,VWS V14.01,2013-01-04 12:42:00,
2013-01-04 07:43:00,19.1,16.7,32.48,East,97,0.0,0.0,90,0.00,,SKC,0.00,VWS V14.01,2013-01-04 12:43:00,
2013-01-04 07:44:00,19.1,16.7,32.48,East,97,0.0,0.0,90,0.00,,SKC,0.00,VWS V14.01,2013-01-04 12:44:00,
2013-01-04 07:45:00,19.2,16.8,32.48,East,97,0.0,0.0,90,0.00,,SKC,0.00,VWS V14.01,2013-01-04 12:45:00,
2013-01-04 07:46:00,19.1,16.7,32.48,East,96,0.0,0.0,90,0.00,,SKC,0.00,VWS V14.01,2013-01-04 12:46:00,
2013-01-04 07:47:00,19.3,16.9,32.48,East,97,0.0,0.0,90,0.00,,SKC,0.00,VWS V14.01,2013-01-04 12:47:00,
2013-01-04 07:48:00,19.3,16.9,32.48,East,96,0.0,0.0,90,0.00,,SKC,0.00,VWS V14.01,2013-01-04 12:48:00,
2013-01-04 07:49:00,19.3,16.9,32.48,East,96,0.0,0.0,90,0.00,,SKC,0.00,VWS V14.01,2013-01-04 12:49:00,
2013-01-04 07:50:00,19.3,16.9,32.48,East,97,0.0,0.0,90,0.00,,SKC,0.00,VWS V14.01,2013-01-04 12:50:00,
2013-01-04 07:51:00,19.3,16.9,32.48,East,97,0.0,0.0,90,0.00,,SKC,0.00,VWS V14.01,2013-01-04 12:51:00,
2013-01-04 07:52:00,19.3,16.9,32.48,East,97,0.0,0.0,90,0.00,,SKC,0.00,VWS V14.01,2013-01-04 12:52:00,
2013-01-04 07:53:00,19.3,16.9,32.48,East,97,0.0,0.0,90,0.00,,SKC,0.00,VWS V14.01,2013-01-04 12:53:00,
2013-01-04 07:54:00,19.3,16.9,32.48,East,96,0.0,0.0,90,0.00,,SKC,0.00,VWS V14.01,2013-01-04 12:54:00,
2013-01-04 07:55:00,19.3,16.9,32.48,East,96,0.0,0.0,90,0.00,,SKC,0.00,VWS V14.01,2013-01-04 12:55:00,
2013-01-04 07:56:00,19.3,16.9,32.48,East,97,0.0,0.0,90,0.00,,SKC,0.00,VWS V14.01,2013-01-04 12:56:00,
2013-01-04 07:57:00,19.3,16.9,32.48,East,96,0.0,0.0,90,0.00,,SKC,0.00,VWS V14.01,2013-01-04 12:57:00,
2013-01-04 07:58:00,19.3,16.9,32.48,East,97,0.0,0.0,90,0.00,,SKC,0.00,VWS V14.01,2013-01-04 12:58:00,
2013-01-04 07:59:00,19.3,16.9,32.48,East,96,0.0,0.0,90,0.00,,SKC,0.00,VWS V14.01,2013-01-04 12:59:00,
2013-01-04 08:00:00,19.2,16.8,32.48,East,96,0.0,0.0,90,0.00,,SKC,0.00,VWS V14.01,2013-01-04 13:00:00,
2013-01-04 08:01:00,19.3,16.9,32.48,East,97,0.0,0.0,90,0.00,,SKC,0.00,VWS V14.01,2013-01-04 13:01:00,
2013-01-04 08:02:00,19.2,16.8,32.48,East,96,0.0,0.0,90,0.00,,SKC,0.00,VWS V14.01,2013-01-04 13:02:00,
2013-01-04 08:03:00,19.2,16.8,32.48,East,96,0.0,0.0,90,0.00,,SKC,0.00,VWS V14.01,2013-01-04 13:03:00,
2013-01-04 08:04:00,19.2,16.8,32.48,East,96,0.0,0.0,90,0.00,,SKC,0.00,VWS V14.01,2013-01-04 13:04:00,
2013-01-04 08:05:00,19.2,16.8,32.48,East,97,0.0,0.0,90,0.00,,SKC,0.00,VWS V14.01,2013-01-04 13:05:00,
2013-01-04 08:06:00,19.2,16.8,32.48,East,97,0.0,0.0,90,0.00,,SKC,0.00,VWS V14.01,2013-01-04 13:06:00,
2013-01-04 08:07:00,19.1,16.7,32.48,East,97,0.0,0.0,90,0.00,,SKC,0.00,VWS V14.01,2013-01-04 13:07:00,
2013-01-04 08:08:00,19.1,16.7,32.48,East,97,0.0,0.0,90,0.00,,SKC,0.00,VWS V14.01,2013-01-04 13:08:00,
2013-01-04 08:09:00,19.2,16.8,32.48,East,96,0.0,0.0,90,0.00,,SKC,0.00,VWS V14.01,2013-01-04 13:09:00,
2013-01-04 08:10:00,19.2,16.8,32.48,East,96,0.0,0.0,90,0.00,,SKC,0.00,VWS V14.01,2013-01-04 13:10:00,
2013-01-04 08:11:00,19.1,16.7,32.48,East,96,0.0,0.0,90,0.00,,SKC,0.00,VWS V14.01,2013-01-04 13:11:00,
2013-01-04 08:12:00,19.3,16.9,32.48,East,97,0.0,0.0,90,0.00,,SKC,0.00,VWS V14.01,2013-01-04 13:12:00,
2013-01-04 08:13:00,19.3,16.9,32.48,East,97,0.0,0.0,90,0.00,,SKC,0.00,VWS V14.01,2013-01-04 13:13:00,
2013-01-04 08:14:00,19.3,16.9,32.48,East,97,0.0,0.0,90,0.00,,SKC,0.00,VWS V14.01,2013-01-04 13:14:00,
2013-01-04 08:15:00,19.3,16.9,32.48,East,97,0.0,0.0,90,0.00,,SKC,0.00,VWS V14.01,2013-01-04 13:15:00,
2013-01-04 08:16:00,19.3,16.9,32.48,East,97,0.0,0.0,90,0.00,,SKC,0.00,VWS V14.01,2013-01-04 13:16:00,
2013-01-04 08:17:00,19.4,17.0,32.48,East,97,0.0,0.0,90,0.00,,SKC,0.00,VWS V14.01,2013-01-04 13:17:00,
2013-01-04 08:18:00,19.5,17.0,32.48,East,97,0.0,0.0,90,0.00,,SKC,0.00,VWS V14.01,2013-01-04 13:18:00,
2013-01-04 08:19:00,19.6,17.1,32.48,East,97,0.0,0.0,90,0.00,,SKC,0.00,VWS V14.01,2013-01-04 13:19:00,
2013-01-04 08:20:00,19.6,17.1,32.48,East,97,0.0,0.0,90,0.00,,SKC,0.00,VWS V14.01,2013-01-04 13:20:00,
2013-01-04 08:21:00,19.5,17.0,32.48,East,97,0.0,0.0,90,0.00,,SKC,0.00,VWS V14.01,2013-01-04 13:21:00,
2013-01-04 08:22:00,19.6,17.1,32.48,East,96,0.0,0.0,90,0.00,,SKC,0.00,VWS V14.01,2013-01-04 13:22:00,
2013-01-04 08:23:00,19.6,17.1,32.48,East,97,0.0,0.0,90,0.00,,SKC,0.00,VWS V14.01,2013-01-04 13:23:00,
2013-01-04 08:24:00,19.6,17.1,32.48,East,97,0.0,0.0,90,0.00,,SKC,0.00,VWS V14.01,2013-01-04 13:24:00,
2013-01-04 08:25:00,19.6,17.1,32.48,East,97,0.0,0.0,90,0.00,,SKC,0.00,VWS V14.01,2013-01-04 13:25:00,
2013-01-04 08:26:00,19.6,17.1,32.48,East,97,0.0,0.0,90,0.00,,SKC,0.00,VWS V14.01,2013-01-04 13:26:00,
2013-01-04 08:27:00,19.6,17.1,32.48,East,97,0.0,0.0,90,0.00,,SKC,0.00,VWS V14.01,2013-01-04 13:27:00,
2013-01-04 08:28:00,19.5,17.0,32.48,East,96,0.0,0.0,90,0.00,,SKC,0.00,VWS V14.01,2013-01-04 13:28:00,
2013-01-04 08:29:00,19.6,17.1,32.48,East,96,0.0,0.0,90,0.00,,SKC,0.00,VWS V14.01,2013-01-04 13:29:00,
2013-01-04 08:30:00,19.5,17.0,32.48,East,96,0.0,0.0,90,0.00,,SKC,0.00,VWS V14.01,2013-01-04 13:30:00,
2013-01-04 08:31:00,19.6,17.1,32.48,East,97,0.0,0.0,90,0.00,,SKC,0.00,VWS V14.01,2013-01-04 13:31:00,
2013-01-04 08:32:00,19.5,17.0,32.48,East,97,0.0,0.0,90,0.00,,SKC,0.00,VWS V14.01,2013-01-04 13:32:00,
2013-01-04 08:33:00,19.5,17.0,32.48,East,97,0.0,0.0,90,0.00,,SKC,0.00,VWS V14.01,2013-01-04 13:33:00,
2013-01-04 08:34:00,19.5,17.0,32.48,East,97,0.0,0.0,90,0.00,,SKC,0.00,VWS V14.01,2013-01-04 13:34:00,
2013-01-04 08:35:00,19.5,17.0,32.48,East,97,0.0,0.0,90,0.00,,SKC,0.00,VWS V14.01,2013-01-04 13:35:00,
2013-01-04 08:36:00,19.5,17.0,32.48,East,97,0.0,0.0,90,0.00,,SKC,0.00,VWS V14.01,2013-01-04 13:36:00,
2013-01-04 08:37:00,19.5,17.0,32.48,East,97,0.0,0.0,90,0.00,,SKC,0.00,VWS V14.01,2013-01-04 13:37:00,
2013-01-04 08:38:00,19.6,17.1,32.48,East,96,0.0,0.0,90,0.00,,SKC,0.00,VWS V14.01,2013-01-04 13:38:00,
2013-01-04 08:39:00,19.6,17.1,32.48,East,96,0.0,0.0,90,0.00,,SKC,0.00,VWS V14.01,2013-01-04 13:39:00,
2013-01-04 08:40:00,19.6,17.1,32.48,East,97,0.0,0.0,90,0.00,,SKC,0.00,VWS V14.01,2013-01-04 13:40:00,
2013-01-04 08:41:00,19.6,17.1,32.48,East,96,0.0,0.0,90,0.00,,SKC,0.00,VWS V14.01,2013-01-04 13:41:00,
2013-01-04 08:42:00,19.7,17.2,32.48,East,97,0.0,0.0,90,0.00,,SKC,0.00,VWS V14.01,2013-01-04 13:42:00,
2013-01-04 08:43:00,19.7,17.2,32.48,East,97,0.0,0.0,90,0.00,,SKC,0.00,VWS V14.01,2013-01-04 13:43:00,
2013-01-04 08:44:00,19.7,17.2,32.48,East,96,0.0,0.0,90,0.00,,SKC,0.00,VWS V14.01,2013-01-04 13:44:00,
2013-01-04 08:45:00,19.7,17.2,32.48,East,96,0.0,0.0,90,0.00,,SKC,0.00,VWS V14.01,2013-01-04 13:45:00,
2013-01-04 08:46:00,19.7,17.2,32.48,East,97,0.0,0.0,90,0.00,,SKC,0.00,VWS V14.01,2013-01-04 13:46:00,
2013-01-04 08:47:00,19.7,17.2,32.48,East,97,0.0,0.0,90,0.00,,SKC,0.00,VWS V14.01,2013-01-04 13:47:00,
2013-01-04 08:48:00,19.7,17.2,32.48,East,97,0.0,0.0,90,0.00,,SKC,0.00,VWS V14.01,2013-01-04 13:48:00,
2013-01-04 08:49:00,19.7,17.2,32.48,East,96,0.0,0.0,90,0.00,,SKC,0.00,VWS V14.01,2013-01-04 13:49:00,
2013-01-04 08:50:00,19.7,17.2,32.48,East,97,0.0,0.0,90,0.00,,SKC,0.00,VWS V14.01,2013-01-04 13:50:00,
2013-01-04 08:51:00,19.7,17.2,32.48,East,96,0.0,0.0,90,0.00,,SKC,0.00,VWS V14.01,2013-01-04 13:51:00,
2013-01-04 08:52:00,19.7,17.2,32.48,East,97,0.0,0.0,90,0.00,,SKC,0.00,VWS V14.01,2013-01-04 13:52:00,
2013-01-04 08:53:00,19.8,17.4,32.48,East,97,0.0,0.0,90,0.00,,SKC,0.00,VWS V14.01,2013-01-04 13:53:00,
2013-01-04 08:54:00,19.9,17.5,32.48,East,97,0.0,0.0,90,0.00,,SKC,0.00,VWS V14.01,2013-01-04 13:54:00,
2013-01-04 08:55:00,19.9,17.5,32.48,East,97,0.0,0.0,90,0.00,,SKC,0.00,VWS V14.01,2013-01-04 13:55:00,
2013-01-04 08:56:00,19.9,17.5,32.48,East,96,0.0,0.0,90,0.00,,SKC,0.00,VWS V14.01,2013-01-04 13:56:00,
2013-01-04 08:57:00,20.0,17.5,32.48,East,96,0.0,0.0,90,0.00,,SKC,0.00,VWS V14.01,2013-01-04 13:57:00,
2013-01-04 08:58:00,20.1,17.6,32.48,East,97,0.0,0.0,90,0.00,,SKC,0.00,VWS V14.01,2013-01-04 13:58:00,
2013-01-04 08:59:00,20.2,17.7,32.48,East,96,0.0,0.0,90,0.00,,SKC,0.00,VWS V14.01,2013-01-04 13:59:00,
2013-01-04 09:00:00,20.2,17.7,32.48,East,97,0.0,0.0,90,0.00,,SKC,0.00,VWS V14.01,2013-01-04 14:00:00,
2013-01-04 09:01:00,20.2,17.7,32.48,East,97,0.0,0.0,90,0.00,,SKC,0.00,VWS V14.01,2013-01-04 14:01:00,
2013-01-04 09:02:00,20.3,17.8,32.48,East,97,0.0,0.0,90,0.00,,SKC,0.00,VWS V14.01,2013-01-04 14:02:00,
2013-01-04 09:03:00,20.4,17.9,32.48,East,97,0.0,0.0,90,0.00,,SKC,0.00,VWS V14.01,2013-01-04 14:03:00,
2013-01-04 09:04:00,20.5,18.3,32.48,East,96,0.0,0.0,91,0.00,,SKC,0.00,VWS V14.01,2013-01-04 14:04:00,
2013-01-04 09:05:00,20.7,18.5,32.48,East,96,0.0,1.0,91,0.00,,SKC,0.00,VWS V14.01,2013-01-04 14:05:00,
2013-01-04 09:06:00,20.5,18.3,32.48,East,96,0.0,0.0,91,0.00,,SKC,0.00,VWS V14.01,2013-01-04 14:06:00,
2013-01-04 09:07:00,21.0,18.8,32.48,East,97,0.0,0.0,91,0.00,,SKC,0.00,VWS V14.01,2013-01-04 14:07:00,
2013-01-04 09:08:00,21.2,19.0,32.48,East,97,0.0,0.0,91,0.00,,SKC,0.00,VWS V14.01,2013-01-04 14:08:00,
2013-01-04 09:09:00,21.3,19.1,32.48,East,96,0.0,0.0,91,0.00,,SKC,0.00,VWS V14.01,2013-01-04 14:09:00,
2013-01-04 09:10:00,21.4,19.2,32.48,East,96,0.0,0.0,91,0.00,,SKC,0.00,VWS V14.01,2013-01-04 14:10:00,
2013-01-04 09:11:00,21.3,19.1,32.48,East,96,0.0,0.0,91,0.00,,SKC,0.00,VWS V14.01,2013-01-04 14:11:00,
2013-01-04 09:12:00,21.6,19.4,32.48,East,97,0.0,0.0,91,0.00,,SKC,0.00,VWS V14.01,2013-01-04 14:12:00,
2013-01-04 09:13:00,21.7,19.5,32.48,East,96,0.0,0.0,91,0.00,,SKC,0.00,VWS V14.01,2013-01-04 14:13:00,
2013-01-04 09:14:00,21.8,19.6,32.48,East,97,0.0,0.0,91,0.00,,SKC,0.00,VWS V14.01,2013-01-04 14:14:00,
2013-01-04 09:15:00,21.9,19.7,32.48,East,96,0.0,0.0,91,0.00,,SKC,0.00,VWS V14.01,2013-01-04 14:15:00,
2013-01-04 09:16:00,21.8,19.6,32.48,East,97,0.0,0.0,91,0.00,,SKC,0.00,VWS V14.01,2013-01-04 14:16:00,
2013-01-04 09:17:00,22.1,19.9,32.48,East,97,0.0,0.0,91,0.00,,SKC,0.00,VWS V14.01,2013-01-04 14:17:00,
2013-01-04 09:18:00,22.1,19.9,32.48,East,97,0.0,0.0,91,0.00,,SKC,0.00,VWS V14.01,2013-01-04 14:18:00,
2013-01-04 09:19:00,22.2,20.0,32.48,East,97,0.0,0.0,91,0.00,,SKC,0.00,VWS V14.01,2013-01-04 14:19:00,
2013-01-04 09:20:00,22.3,20.1,32.48,East,97,0.0,0.0,91,0.00,,SKC,0.00,VWS V14.01,2013-01-04 14:20:00,
2013-01-04 09:21:00,22.2,20.0,32.48,East,97,0.0,0.0,91,0.00,,SKC,0.00,VWS V14.01,2013-01-04 14:21:00,
2013-01-04 09:22:00,22.5,20.3,32.48,East,96,0.0,0.0,91,0.00,,SKC,0.00,VWS V14.01,2013-01-04 14:22:00,
2013-01-04 09:23:00,22.5,20.5,32.48,East,97,0.0,0.0,92,0.00,,SKC,0.00,VWS V14.01,2013-01-04 14:23:00,
2013-01-04 09:24:00,22.6,20.6,32.48,East,96,0.0,0.0,92,0.00,,SKC,0.00,VWS V14.01,2013-01-04 14:24:00,
2013-01-04 09:25:00,22.8,20.6,32.48,East,96,0.0,0.0,91,0.00,,SKC,0.00,VWS V14.01,2013-01-04 14:25:00,
2013-01-04 09:26:00,22.6,20.6,32.48,East,96,0.0,0.0,92,0.00,,SKC,0.00,VWS V14.01,2013-01-04 14:26:00,
2013-01-04 09:27:00,23.0,21.0,32.48,East,97,0.0,0.0,92,0.00,,SKC,0.00,VWS V14.01,2013-01-04 14:27:00,
2013-01-04 09:28:00,23.1,21.1,32.48,East,97,0.0,0.0,92,0.00,,SKC,0.00,VWS V14.01,2013-01-04 14:28:00,
2013-01-04 09:29:00,23.2,21.2,32.48,East,97,0.0,0.0,92,0.00,,SKC,0.00,VWS V14.01,2013-01-04 14:29:00,
2013-01-04 09:30:00,23.3,21.3,32.48,East,97,0.0,0.0,92,0.00,,SKC,0.00,VWS V14.01,2013-01-04 14:30:00,
2013-01-04 09:31:00,23.2,21.2,32.48,East,97,0.0,0.0,92,0.00,,SKC,0.00,VWS V14.01,2013-01-04 14:31:00,
2013-01-04 09:32:00,23.5,21.5,32.48,East,97,0.0,0.0,92,0.00,,SKC,0.00,VWS V14.01,2013-01-04 14:32:00,
2013-01-04 09:33:00,23.6,21.6,32.48,East,97,0.0,0.0,92,0.00,,SKC,0.00,VWS V14.01,2013-01-04 14:33:00,
2013-01-04 09:34:00,23.7,21.7,32.48,East,97,0.0,0.0,92,0.00,,SKC,0.00,VWS V14.01,2013-01-04 14:34:00,
2013-01-04 09:35:00,23.8,21.8,32.48,East,97,0.0,0.0,92,0.00,,SKC,0.00,VWS V14.01,2013-01-04 14:35:00,
2013-01-04 09:36:00,23.7,21.7,32.48,East,96,0.0,0.0,92,0.00,,SKC,0.00,VWS V14.01,2013-01-04 14:36:00,
2013-01-04 09:37:00,23.9,21.9,32.48,East,96,0.0,0.0,92,0.00,,SKC,0.00,VWS V14.01,2013-01-04 14:37:00,
2013-01-04 09:38:00,24.0,22.0,32.48,East,96,0.0,0.0,92,0.00,,SKC,0.00,VWS V14.01,2013-01-04 14:38:00,
2013-01-04 09:39:00,24.1,21.9,32.48,East,97,0.0,0.0,91,0.00,,SKC,0.00,VWS V14.01,2013-01-04 14:39:00,
2013-01-04 09:40:00,24.2,22.2,32.48,East,97,0.0,0.0,92,0.00,,SKC,0.00,VWS V14.01,2013-01-04 14:40:00,
2013-01-04 09:41:00,24.1,21.9,32.48,East,96,0.0,0.0,91,0.00,,SKC,0.00,VWS V14.01,2013-01-04 14:41:00,
2013-01-04 09:42:00,24.3,22.3,32.48,East,96,0.0,0.0,92,0.00,,SKC,0.00,VWS V14.01,2013-01-04 14:42:00,
2013-01-04 09:43:00,24.4,22.2,32.48,East,97,0.0,0.0,91,0.00,,SKC,0.00,VWS V14.01,2013-01-04 14:43:00,
2013-01-04 09:44:00,24.4,22.2,32.48,East,97,0.0,0.0,91,0.00,,SKC,0.00,VWS V14.01,2013-01-04 14:44:00,
2013-01-04 09:45:00,24.5,22.2,32.48,East,97,0.0,0.0,91,0.00,,SKC,0.00,VWS V14.01,2013-01-04 14:45:00,
2013-01-04 09:46:00,24.4,22.2,32.48,East,97,0.0,0.0,91,0.00,,SKC,0.00,VWS V14.01,2013-01-04 14:46:00,
2013-01-04 09:47:00,24.7,22.5,32.48,East,97,0.0,0.0,91,0.00,,SKC,0.00,VWS V14.01,2013-01-04 14:47:00,
2013-01-04 09:48:00,24.7,22.5,32.48,East,97,0.0,0.0,91,0.00,,SKC,0.00,VWS V14.01,2013-01-04 14:48:00,
2013-01-04 09:49:00,24.8,22.5,32.48,East,97,0.0,0.0,91,0.00,,SKC,0.00,VWS V14.01,2013-01-04 14:49:00,
2013-01-04 09:50:00,24.9,22.6,32.48,East,97,0.0,0.0,91,0.00,,SKC,0.00,VWS V14.01,2013-01-04 14:50:00,
2013-01-04 09:51:00,24.8,22.5,32.48,East,96,0.0,0.0,91,0.00,,SKC,0.00,VWS V14.01,2013-01-04 14:51:00,
2013-01-04 09:52:00,25.0,22.8,32.48,East,97,0.0,0.0,91,0.00,,SKC,0.00,VWS V14.01,2013-01-04 14:52:00,
2013-01-04 09:53:00,25.1,22.9,32.48,East,97,0.0,0.0,91,0.00,,SKC,0.00,VWS V14.01,2013-01-04 14:53:00,
2013-01-04 09:54:00,25.2,23.0,32.48,East,97,0.0,0.0,91,0.00,,SKC,0.00,VWS V14.01,2013-01-04 14:54:00,
2013-01-04 09:55:00,25.3,23.0,32.48,East,96,0.0,0.0,91,0.00,,SKC,0.00,VWS V14.01,2013-01-04 14:55:00,
2013-01-04 09:56:00,25.2,23.0,32.48,East,96,0.0,0.0,91,0.00,,SKC,0.00,VWS V14.01,2013-01-04 14:56:00,
2013-01-04 09:57:00,25.5,23.0,32.48,East,97,0.0,1.0,90,0.00,,SKC,0.00,VWS V14.01,2013-01-04 14:57:00,
2013-01-04 09:58:00,25.6,23.1,32.48,East,97,0.0,0.0,90,0.00,,SKC,0.00,VWS V14.01,2013-01-04 14:58:00,
2013-01-04 09:59:00,25.6,23.1,32.48,East,97,0.0,0.0,90,0.00,,SKC,0.00,VWS V14.01,2013-01-04 14:59:00,
2013-01-04 10:00:00,25.7,23.2,32.48,East,97,0.0,0.0,90,0.00,,SKC,0.00,VWS V14.01,2013-01-04 15:00:00,
2013-01-04 10:01:00,25.6,23.1,32.48,East,97,0.0,0.0,90,0.00,,SKC,0.00,VWS V14.01,2013-01-04 15:01:00,
2013-01-04 10:02:00,25.9,23.1,32.48,East,97,1.0,2.0,89,0.00,,SKC,0.00,VWS V14.01,2013-01-04 15:02:00,
2013-01-04 10:03:00,26.0,22.9,32.48,East,96,0.0,2.0,88,0.00,,SKC,0.00,VWS V14.01,2013-01-04 15:03:00,
2013-01-04 10:04:00,26.1,23.0,32.48,East,96,1.0,4.0,88,0.00,,SKC,0.00,VWS V14.01,2013-01-04 15:04:00,
2013-01-04 10:05:00,26.2,22.9,32.48,East,97,0.0,4.0,87,0.00,,SKC,0.00,VWS V14.01,2013-01-04 15:05:00,
2013-01-04 10:06:00,26.1,23.0,32.48,East,96,0.0,0.0,88,0.00,,SKC,0.00,VWS V14.01,2013-01-04 15:06:00,
2013-01-04 10:07:00,26.4,22.8,32.48,East,96,0.0,2.0,86,0.00,,SKC,0.00,VWS V14.01,2013-01-04 15:07:00,
2013-01-04 10:08:00,26.5,22.9,32.48,East,97,0.0,0.0,86,0.00,,SKC,0.00,VWS V14.01,2013-01-04 15:08:00,
2013-01-04 10:09:00,26.6,23.0,32.48,East,97,1.0,1.0,86,0.00,,SKC,0.00,VWS V14.01,2013-01-04 15:09:00,
2013-01-04 10:10:00,26.7,23.1,32.48,East,97,0.0,1.0,86,0.00,,SKC,0.00,VWS V14.01,2013-01-04 15:10:00,
2013-01-04 10:11:00,26.6,23.0,32.48,East,97,1.0,1.0,86,0.00,,SKC,0.00,VWS V14.01,2013-01-04 15:11:00,
2013-01-04 10:12:00,26.8,22.6,32.48,East,96,1.0,1.0,84,0.00,,SKC,0.00,VWS V14.01,2013-01-04 15:12:00,
2013-01-04 10:13:00,26.9,22.7,32.48,East,96,2.0,2.0,84,0.00,,SKC,0.00,VWS V14.01,2013-01-04 15:13:00,
2013-01-04 10:14:00,27.0,22.8,32.48,East,97,0.0,2.0,84,0.00,,SKC,0.00,VWS V14.01,2013-01-04 15:14:00,
2013-01-04 10:15:00,27.1,22.9,32.48,East,97,0.0,2.0,84,0.00,,SKC,0.00,VWS V14.01,2013-01-04 15:15:00,
2013-01-04 10:16:00,27.0,22.8,32.48,East,97,1.0,2.0,84,0.00,,SKC,0.00,VWS V14.01,2013-01-04 15:16:00,
2013-01-04 10:17:00,27.2,23.0,32.48,East,97,2.0,4.0,84,0.00,,SKC,0.00,VWS V14.01,2013-01-04 15:17:00,
2013-01-04 10:18:00,27.3,22.8,32.48,East,96,2.0,4.0,83,0.00,,SKC,0.00,VWS V14.01,2013-01-04 15:18:00,
2013-01-04 10:19:00,27.4,22.9,32.48,East,96,0.0,2.0,83,0.00,,SKC,0.00,VWS V14.01,2013-01-04 15:19:00,
2013-01-04 10:20:00,27.5,22.7,32.48,East,97,1.0,2.0,82,0.00,,SKC,0.00,VWS V14.01,2013-01-04 15:20:00,
2013-01-04 10:21:00,27.4,22.9,32.48,East,97,0.0,2.0,83,0.00,,SKC,0.00,VWS V14.01,2013-01-04 15:21:00,
2013-01-04 10:22:00,27.6,22.5,32.48,East,97,1.0,1.0,81,0.00,,SKC,0.00,VWS V14.01,2013-01-04 15:22:00,
2013-01-04 10:23:00,27.6,22.5,32.48,East,97,1.0,2.0,81,0.00,,SKC,0.00,VWS V14.01,2013-01-04 15:23:00,
2013-01-04 10:24:00,27.7,22.6,32.48,East,97,1.0,2.0,81,0.00,,SKC,0.00,VWS V14.01,2013-01-04 15:24:00,
2013-01-04 10:25:00,27.7,22.4,32.48,East,97,1.0,2.0,80,0.00,,SKC,0.00,VWS V14.01,2013-01-04 15:25:00,
2013-01-04 10:26:00,27.6,22.5,32.48,East,96,1.0,2.0,81,0.00,,SKC,0.00,VWS V14.01,2013-01-04 15:26:00,
2013-01-04 10:27:00,27.8,22.4,32.48,East,96,0.0,0.0,80,0.00,,SKC,0.00,VWS V14.01,2013-01-04 15:27:00,
2013-01-04 10:28:00,27.8,22.7,32.48,East,97,0.0,0.0,81,0.00,,SKC,0.00,VWS V14.01,2013-01-04 15:28:00,
2013-01-04 10:29:00,27.9,22.8,32.48,East,96,2.0,2.0,81,0.00,,SKC,0.00,VWS V14.01,2013-01-04 15:29:00,
2013-01-04 10:30:00,27.9,22.8,32.48,East,97,1.0,2.0,81,0.00,,SKC,0.00,VWS V14.01,2013-01-04 15:30:00,
2013-01-04 10:31:00,27.9,22.8,32.48,East,96,1.0,2.0,81,0.00,,SKC,0.00,VWS V14.01,2013-01-04 15:31:00,
2013-01-04 10:32:00,28.0,22.9,32.48,East,96,2.0,2.0,81,0.00,,SKC,0.00,VWS V14.01,2013-01-04 15:32:00,
2013-01-04 10:33:00,28.1,23.0,32.48,East,97,2.0,4.0,81,0.00,,SKC,0.00,VWS V14.01,2013-01-04 15:33:00,
2013-01-04 10:34:00,28.3,22.9,32.48,East,96,0.0,4.0,80,0.00,,SKC,0.00,VWS V14.01,2013-01-04 15:34:00,
2013-01-04 10:35:00,28.4,23.0,32.48,East,96,0.0,0.0,80,0.00,,SKC,0.00,VWS V14.01,2013-01-04 15:35:00,
2013-01-04 10:36:00,28.3,22.9,32.48,East,97,1.0,4.0,80,0.00,,SKC,0.00,VWS V14.01,2013-01-04 15:36:00,
2013-01-04 10:37:00,28.6,22.9,32.48,East,97,0.0,0.0,79,0.00,,SKC,0.00,VWS V14.01,2013-01-04 15:37:00,
2013-01-04 10:38:00,28.7,23.0,32.48,East,97,1.0,2.0,79,0.00,,SKC,0.00,VWS V14.01,2013-01-04 15:38:00,
2013-01-04 10:39:00,28.8,22.8,32.48,East,97,0.0,2.0,78,0.00,,SKC,0.00,VWS V14.01,2013-01-04 15:39:00,
2013-01-04 10:40:00,28.8,23.1,32.48,East,96,2.0,4.0,79,0.00,,SKC,0.00,VWS V14.01,2013-01-04 15:40:00,
2013-01-04 10:41:00,28.8,22.8,32.48,East,96,0.0,2.0,78,0.00,,SKC,0.00,VWS V14.01,2013-01-04 15:41:00,
2013-01-04 10:42:00,28.9,22.9,32.48,East,97,0.0,0.0,78,0.00,,SKC,0.00,VWS V14.01,2013-01-04 15:42:00,
2013-01-04 10:43:00,29.0,23.0,32.48,East,97,0.0,0.0,78,0.00,,SKC,0.00,VWS V14.01,2013-01-04 15:43:00,
2013-01-04 10:44:00,29.0,23.0,32.48,East,97,0.0,2.0,78,0.00,,SKC,0.00,VWS V14.01,2013-01-04 15:44:00,
2013-01-04 10:45:00,29.1,23.1,32.48,East,96,0.0,0.0,78,0.00,,SKC,0.00,VWS V14.01,2013-01-04 15:45:00,
2013-01-04 10:46:00,29.0,23.0,32.48,East,96,1.0,2.0,78,0.00,,SKC,0.00,VWS V14.01,2013-01-04 15:46:00,
2013-01-04 10:47:00,29.2,23.2,32.48,East,96,0.0,0.0,78,0.00,,SKC,0.00,VWS V14.01,2013-01-04 15:47:00,
2013-01-04 10:48:00,29.2,23.2,32.48,East,97,1.0,2.0,78,0.00,,SKC,0.00,VWS V14.01,2013-01-04 15:48:00,
2013-01-04 10:49:00,29.3,23.0,32.48,East,97,0.0,1.0,77,0.00,,SKC,0.00,VWS V14.01,2013-01-04 15:49:00,
2013-01-04 10:50:00,29.3,23.0,32.48,East,97,0.0,0.0,77,0.00,,SKC,0.00,VWS V14.01,2013-01-04 15:50:00,
2013-01-04 10:51:00,29.3,23.0,32.48,East,97,0.0,1.0,77,0.00,,SKC,0.00,VWS V14.01,2013-01-04 15:51:00,
2013-01-04 10:52:00,29.4,23.4,32.48,East,97,0.0,0.0,78,0.00,,SKC,0.00,VWS V14.01,2013-01-04 15:52:00,
2013-01-04 10:53:00,29.5,23.5,32.48,East,96,0.0,0.0,78,0.00,,SKC,0.00,VWS V14.01,2013-01-04 15:53:00,
2013-01-04 10:54:00,29.5,23.5,32.48,East,96,0.0,0.0,78,0.00,,SKC,0.00,VWS V14.01,2013-01-04 15:54:00,
2013-01-04 10:55:00,29.6,23.6,32.48,East,97,0.0,2.0,78,0.00,,SKC,0.00,VWS V14.01,2013-01-04 15:55:00,
2013-01-04 10:56:00,29.5,23.5,32.48,East,97,0.0,0.0,78,0.00,,SKC,0.00,VWS V14.01,2013-01-04 15:56:00,
2013-01-04 10:57:00,29.7,23.4,32.48,East,97,2.0,2.0,77,0.00,,SKC,0.00,VWS V14.01,2013-01-04 15:57:00,
2013-01-04 10:58:00,29.7,23.1,32.48,East,97,1.0,2.0,76,0.00,,SKC,0.00,VWS V14.01,2013-01-04 15:58:00,
2013-01-04 10:59:00,29.8,23.2,32.48,East,96,0.0,1.0,76,0.00,,SKC,0.00,VWS V14.01,2013-01-04 15:59:00,
2013-01-04 11:00:00,29.9,23.3,32.48,East,96,0.0,1.0,76,0.00,,SKC,0.00,VWS V14.01,2013-01-04 16:00:00,
2013-01-04 11:01:00,29.8,23.2,32.48,East,97,0.0,1.0,76,0.00,,SKC,0.00,VWS V14.01,2013-01-04 16:01:00,
2013-01-04 11:02:00,30.0,23.7,32.48,East,97,0.0,0.0,77,0.00,,SKC,0.00,VWS V14.01,2013-01-04 16:02:00,
2013-01-04 11:03:00,30.1,24.1,32.48,East,97,0.0,0.0,78,0.00,,SKC,0.00,VWS V14.01,2013-01-04 16:03:00,
2013-01-04 11:04:00,30.1,23.8,32.48,East,97,0.0,1.0,77,0.00,,SKC,0.00,VWS V14.01,2013-01-04 16:04:00,
2013-01-04 11:05:00,30.2,23.6,32.48,East,97,0.0,0.0,76,0.00,,SKC,0.00,VWS V14.01,2013-01-04 16:05:00,
2013-01-04 11:06:00,30.1,23.8,32.48,East,97,0.0,1.0,77,0.00,,SKC,0.00,VWS V14.01,2013-01-04 16:06:00,
2013-01-04 11:07:00,30.3,23.7,32.48,East,96,0.0,1.0,76,0.00,,SKC,0.00,VWS V14.01,2013-01-04 16:07:00,
2013-01-04 11:08:00,30.3,23.3,32.48,East,96,0.0,1.0,75,0.00,,SKC,0.00,VWS V14.01,2013-01-04 16:08:00,
2013-01-04 11:09:00,30.4,23.4,32.48,East,97,0.0,0.0,75,0.00,,SKC,0.00,VWS V14.01,2013-01-04 16:09:00,
2013-01-04 11:10:00,30.5,23.5,32.48,East,97,0.0,0.0,75,0.00,,SKC,0.00,VWS V14.01,2013-01-04 16:10:00,
2013-01-04 11:11:00,30.4,23.4,32.48,East,96,0.0,0.0,75,0.00,,SKC,0.00,VWS V14.01,2013-01-04 16:11:00,
2013-01-04 11:12:00,30.6,23.3,32.48,East,97,0.0,1.0,74,0.00,,SKC,0.00,VWS V14.01,2013-01-04 16:12:00,
2013-01-04 11:13:00,30.6,23.3,32.48,East,83,2.0,4.0,74,0.00,,SKC,0.00,VWS V14.01,2013-01-04 16:13:00,
2013-01-04 11:14:00,30.7,23.4,32.48,East,83,3.0,3.0,74,0.00,,SKC,0.00,VWS V14.01,2013-01-04 16:14:00,
2013-01-04 11:15:00,30.8,22.9,32.48,East,83,0.0,3.0,72,0.00,,SKC,0.00,VWS V14.01,2013-01-04 16:15:00,
2013-01-04 11:16:00,30.7,23.4,32.48,East,83,2.0,3.0,74,0.00,,SKC,0.00,VWS V14.01,2013-01-04 16:16:00,
2013-01-04 11:17:00,30.9,23.0,32.48,East,83,2.0,3.0,72,0.00,,SKC,0.00,VWS V14.01,2013-01-04 16:17:00,
2013-01-04 11:18:00,31.0,23.0,32.48,East,83,2.0,3.0,72,0.00,,SKC,0.00,VWS V14.01,2013-01-04 16:18:00,
2013-01-04 11:19:00,31.0,22.7,32.48,East,82,2.0,3.0,71,0.00,,SKC,0.00,VWS V14.01,2013-01-04 16:19:00,
2013-01-04 11:20:00,31.1,23.1,32.48,East,82,0.0,2.0,72,0.00,,SKC,0.00,VWS V14.01,2013-01-04 16:20:00,
2013-01-04 11:21:00,31.0,22.7,32.48,East,82,2.0,3.0,71,0.00,,SKC,0.00,VWS V14.01,2013-01-04 16:21:00,
2013-01-04 11:22:00,31.2,23.2,32.48,East,82,0.0,0.0,72,0.00,,SKC,0.00,VWS V14.01,2013-01-04 16:22:00,
2013-01-04 11:23:00,31.3,23.3,32.48,East,82,0.0,0.0,72,0.00,,SKC,0.00,VWS V14.01,2013-01-04 16:23:00,
2013-01-04 11:24:00,31.4,23.8,32.48,East,82,0.0,0.0,73,0.00,,SKC,0.00,VWS V14.01,2013-01-04 16:24:00,
2013-01-04 11:25:00,31.5,23.9,32.48,East,83,0.0,0.0,73,0.00,,SKC,0.00,VWS V14.01,2013-01-04 16:25:00,
2013-01-04 11:26:00,31.4,23.8,32.48,East,82,0.0,0.0,73,0.00,,SKC,0.00,VWS V14.01,2013-01-04 16:26:00,
2013-01-04 11:27:00,31.7,23.7,32.48,East,82,1.0,2.0,72,0.00,,SKC,0.00,VWS V14.01,2013-01-04 16:27:00,
2013-01-04 11:28:00,31.8,23.8,32.48,East,82,2.0,2.0,72,0.00,,SKC,0.00,VWS V14.01,2013-01-04 16:28:00,
2013-01-04 11:29:00,31.9,23.9,32.48,East,82,1.0,3.0,72,0.00,,SKC,0.00,VWS V14.01,2013-01-04 16:29:00,
2013-01-04 11:30:00,32.1,24.4,32.48,East,82,0.0,1.0,73,0.00,,SKC,0.00,VWS V14.01,2013-01-04 16:30:00,
2013-01-04 11:31:00,31.9,23.9,32.48,East,82,0.0,3.0,72,0.00,,SKC,0.00,VWS V14.01,2013-01-04 16:31:00,
2013-01-04 11:32:00,32.3,24.3,32.48,East,82,1.0,1.0,72,0.00,,SKC,0.00,VWS V14.01,2013-01-04 16:32:00,
2013-01-04 11:33:00,32.4,24.1,32.48,East,82,0.0,1.0,71,0.00,,SKC,0.00,VWS V14.01,2013-01-04 16:33:00,
2013-01-04 11:34:00,32.5,24.8,32.48,East,82,0.0,0.0,73,0.00,,SKC,0.00,VWS V14.01,2013-01-04 16:34:00,
2013-01-04 11:35:00,32.6,25.2,32.48,East,82,0.0,0.0,74,0.00,,SKC,0.00,VWS V14.01,2013-01-04 16:35:00,
2013-01-04 11:36:00,32.5,24.5,32.48,East,82,0.0,0.0,72,0.00,,SKC,0.00,VWS V14.01,2013-01-04 16:36:00,
2013-01-04 11:37:00,32.9,24.5,32.48,East,82,0.0,2.0,71,0.00,,SKC,0.00,VWS V14.01,2013-01-04 16:37:00,
2013-01-04 11:38:00,32.9,24.2,32.48,East,82,0.0,0.0,70,0.00,,SKC,0.00,VWS V14.01,2013-01-04 16:38:00,
2013-01-04 11:39:00,33.0,24.3,32.48,East,82,0.0,0.0,70,0.00,,SKC,0.00,VWS V14.01,2013-01-04 16:39:00,
2013-01-04 11:40:00,33.2,24.5,32.48,ESE,111,5.0,5.0,70,0.00,,SKC,0.00,VWS V14.01,2013-01-04 16:40:00,
2013-01-04 11:41:00,33.0,24.3,32.48,East,82,0.0,0.0,70,0.00,,SKC,0.00,VWS V14.01,2013-01-04 16:41:00,
2013-01-04 11:42:00,33.3,23.9,32.48,ESE,111,0.0,4.0,68,0.00,,SKC,0.00,VWS V14.01,2013-01-04 16:42:00,
2013-01-04 11:43:00,33.4,24.0,32.48,ESE,111,0.0,0.0,68,0.00,,SKC,0.00,VWS V14.01,2013-01-04 16:43:00,
2013-01-04 11:44:00,33.5,24.4,32.48,ESE,111,1.0,2.0,69,0.00,,SKC,0.00,VWS V14.01,2013-01-04 16:44:00,
2013-01-04 11:45:00,33.7,24.6,32.48,ESE,111,0.0,1.0,69,0.00,,SKC,0.00,VWS V14.01,2013-01-04 16:45:00,
2013-01-04 11:46:00,33.4,24.3,32.48,ESE,111,1.0,1.0,69,0.00,,SKC,0.00,VWS V14.01,2013-01-04 16:46:00,
2013-01-04 11:47:00,33.9,24.5,32.48,ESE,113,2.0,6.0,68,0.00,,SKC,0.00,VWS V14.01,2013-01-04 16:47:00,
2013-01-04 11:48:00,33.9,23.8,32.48,SE,127,4.0,7.0,66,0.00,,SKC,0.00,VWS V14.01,2013-01-04 16:48:00,
2013-01-04 11:49:00,33.9,23.4,32.48,SE,126,2.0,7.0,65,0.00,,SKC,0.00,VWS V14.01,2013-01-04 16:49:00,
2013-01-04 11:50:00,33.8,23.7,32.48,SE,126,2.0,5.0,66,0.00,,SKC,0.00,VWS V14.01,2013-01-04 16:50:00,
2013-01-04 11:51:00,33.9,23.4,32.48,SE,126,5.0,7.0,65,0.00,,SKC,0.00,VWS V14.01,2013-01-04 16:51:00,
2013-01-04 11:52:00,33.8,24.0,32.48,SE,126,0.0,1.0,67,0.00,,SKC,0.00,VWS V14.01,2013-01-04 16:52:00,
2013-01-04 11:53:00,33.9,24.1,32.48,SE,126,1.0,1.0,67,0.00,,SKC,0.00,VWS V14.01,2013-01-04 16:53:00,
2013-01-04 11:54:00,34.0,24.2,32.48,ESE,121,2.0,2.0,67,0.00,,SKC,0.00,VWS V14.01,2013-01-04 16:54:00,
2013-01-04 11:55:00,34.1,24.7,32.48,NNE,28,0.0,4.0,68,0.00,,SKC,0.00,VWS V14.01,2013-01-04 16:55:00,
2013-01-04 11:56:00,33.9,24.1,32.48,ESE,122,2.0,2.0,67,0.00,,SKC,0.00,VWS V14.01,2013-01-04 16:56:00,
2013-01-04 11:57:00,34.4,24.2,32.48,NNE,28,2.0,2.0,66,0.00,,SKC,0.00,VWS V14.01,2013-01-04 16:57:00,
2013-01-04 11:58:00,34.4,24.2,32.48,NNE,28,1.0,2.0,66,0.00,,SKC,0.00,VWS V14.01,2013-01-04 16:58:00,
2013-01-04 11:59:00,34.4,24.6,32.48,NNE,28,2.0,2.0,67,0.00,,SKC,0.00,VWS V14.01,2013-01-04 16:59:00,
2013-01-04 12:00:00,34.5,24.7,32.48,NNE,28,0.0,2.0,67,0.00,,SKC,0.00,VWS V14.01,2013-01-04 17:00:00,
2013-01-04 12:01:00,34.4,24.2,32.48,NNE,28,2.0,2.0,66,0.00,,SKC,0.00,VWS V14.01,2013-01-04 17:01:00,
2013-01-04 12:02:00,34.8,24.6,32.48,NNE,26,1.0,3.0,66,0.00,,SKC,0.00,VWS V14.01,2013-01-04 17:02:00,
2013-01-04 12:03:00,34.9,24.3,32.48,NNE,26,0.0,2.0,65,0.00,,SKC,0.00,VWS V14.01,2013-01-04 17:03:00,
2013-01-04 12:04:00,35.0,24.4,32.48,NNE,26,1.0,3.0,65,0.00,,SKC,0.00,VWS V14.01,2013-01-04 17:04:00,
2013-01-04 12:05:00,34.9,24.3,32.48,NNE,26,3.0,3.0,65,0.00,,SKC,0.00,VWS V14.01,2013-01-04 17:05:00,
2013-01-04 12:06:00,35.1,24.9,32.48,NNE,26,0.0,2.0,66,0.00,,SKC,0.00,VWS V14.01,2013-01-04 17:06:00,
2013-01-04 12:07:00,35.2,25.0,32.48,ENE,78,3.0,4.0,66,0.00,,SKC,0.00,VWS V14.01,2013-01-04 17:07:00,
2013-01-04 12:08:00,35.2,24.3,32.48,ENE,78,0.0,3.0,64,0.00,,SKC,0.00,VWS V14.01,2013-01-04 17:08:00,
2013-01-04 12:09:00,35.3,24.4,32.48,ENE,78,2.0,3.0,64,0.00,,SKC,0.00,VWS V14.01,2013-01-04 17:09:00,
2013-01-04 12:10:00,35.2,24.3,32.48,ENE,78,1.0,1.0,64,0.00,,SKC,0.00,VWS V14.01,2013-01-04 17:10:00,
2013-01-04 12:11:00,35.4,24.5,32.48,ENE,78,1.0,3.0,64,0.00,,SKC,0.00,VWS V14.01,2013-01-04 17:11:00,
2013-01-04 12:12:00,35.4,24.1,32.48,ENE,78,0.0,2.0,63,0.00,,SKC,0.00,VWS V14.01,2013-01-04 17:12:00,
2013-01-04 12:13:00,35.5,24.9,32.48,ESE,113,4.0,5.0,65,0.00,,SKC,0.00,VWS V14.01,2013-01-04 17:13:00,
2013-01-04 12:14:00,35.5,24.2,32.48,ESE,106,2.0,6.0,63,0.00,,SKC,0.00,VWS V14.01,2013-01-04 17:14:00,
2013-01-04 12:15:00,35.5,24.2,32.48,ESE,113,5.0,5.0,63,0.00,,SKC,0.00,VWS V14.01,2013-01-04 17:15:00,
2013-01-04 12:16:00,35.6,24.6,32.48,ESE,106,0.0,1.0,64,0.00,,SKC,0.00,VWS V14.01,2013-01-04 17:16:00,
2013-01-04 12:17:00,35.8,24.5,32.48,ESE,107,0.0,0.0,63,0.00,,SKC,0.00,VWS V14.01,2013-01-04 17:17:00,
2013-01-04 12:18:00,36.0,25.0,32.48,ESE,107,2.0,2.0,64,0.00,,SKC,0.00,VWS V14.01,2013-01-04 17:18:00,
2013-01-04 12:19:00,36.1,24.7,32.48,ESE,115,6.0,6.0,63,0.00,,SKC,0.00,VWS V14.01,2013-01-04 17:19:00,
2013-01-04 12:20:00,36.0,24.6,32.48,East,83,6.0,6.0,63,0.00,,SKC,0.00,VWS V14.01,2013-01-04 17:20:00,
2013-01-04 12:21:00,36.0,23.5,32.48,SE,135,1.0,4.0,60,0.00,,SKC,0.00,VWS V14.01,2013-01-04 17:21:00,
2013-01-04 12:22:00,36.0,23.5,32.48,SE,130,2.0,5.0,60,0.00,,SKC,0.00,VWS V14.01,2013-01-04 17:22:00,
2013-01-04 12:23:00,36.0,23.5,32.48,SE,130,0.0,2.0,60,0.00,,SKC,0.00,VWS V14.01,2013-01-04 17:23:00,
2013-01-04 12:24:00,36.0,23.9,32.48,SE,130,2.0,2.0,61,0.00,,SKC,0.00,VWS V14.01,2013-01-04 17:24:00,
2013-01-04 12:25:00,36.0,23.9,32.48,SE,130,0.0,1.0,61,0.00,,SKC,0.00,VWS V14.01,2013-01-04 17:25:00,
2013-01-04 12:26:00,36.1,23.6,32.48,SE,130,0.0,1.0,60,0.00,,SKC,0.00,VWS V14.01,2013-01-04 17:26:00,
2013-01-04 12:27:00,36.1,24.4,32.48,SE,130,2.0,4.0,62,0.00,,SKC,0.00,VWS V14.01,2013-01-04 17:27:00,
2013-01-04 12:28:00,36.2,24.1,32.48,SE,130,1.0,2.0,61,0.00,,SKC,0.00,VWS V14.01,2013-01-04 17:28:00,
2013-01-04 12:29:00,36.3,24.2,32.48,SE,130,6.0,6.0,61,0.00,,SKC,0.00,VWS V14.01,2013-01-04 17:29:00,
2013-01-04 12:30:00,36.2,24.1,32.48,SE,130,2.0,4.0,61,0.00,,SKC,0.00,VWS V14.01,2013-01-04 17:30:00,
2013-01-04 12:31:00,36.3,24.5,32.48,ESE,105,2.0,2.0,62,0.00,,SKC,0.00,VWS V14.01,2013-01-04 17:31:00,
2013-01-04 12:32:00,36.4,24.6,32.48,ESE,105,0.0,4.0,62,0.00,,SKC,0.00,VWS V14.01,2013-01-04 17:32:00,
2013-01-04 12:33:00,36.5,24.7,32.48,NE,50,3.0,4.0,62,0.00,,SKC,0.00,VWS V14.01,2013-01-04 17:33:00,
2013-01-04 12:34:00,36.7,24.5,32.48,NE,43,1.0,3.0,61,0.00,,SKC,0.00,VWS V14.01,2013-01-04 17:34:00,
2013-01-04 12:35:00,36.6,24.8,32.48,NE,44,3.0,3.0,62,0.00,,SKC,0.00,VWS V14.01,2013-01-04 17:35:00,
2013-01-04 12:36:00,36.9,24.3,32.48,NE,42,1.0,1.0,60,0.00,,SKC,0.00,VWS V14.01,2013-01-04 17:36:00,
2013-01-04 12:37:00,37.0,24.8,32.48,NE,42,2.0,2.0,61,0.00,,SKC,0.00,VWS V14.01,2013-01-04 17:37:00,
2013-01-04 12:38:00,37.1,24.9,32.48,ESE,117,4.0,6.0,61,0.00,,SKC,0.00,VWS V14.01,2013-01-04 17:38:00,
2013-01-04 12:39:00,37.2,24.6,32.48,ESE,116,4.0,6.0,60,0.00,,SKC,0.00,VWS V14.01,2013-01-04 17:39:00,
2013-01-04 12:40:00,37.2,25.0,32.48,ESE,116,6.0,6.0,61,0.00,,SKC,0.00,VWS V14.01,2013-01-04 17:40:00,
2013-01-04 12:41:00,37.2,24.6,32.48,ESE,115,5.0,5.0,60,0.00,,SKC,0.00,VWS V14.01,2013-01-04 17:41:00,
2013-01-04 12:42:00,37.1,24.1,32.48,ESE,121,2.0,5.0,59,0.00,,SKC,0.00,VWS V14.01,2013-01-04 17:42:00,
2013-01-04 12:43:00,37.1,24.1,32.48,SE,124,2.0,5.0,59,0.00,,SKC,0.00,VWS V14.01,2013-01-04 17:43:00,
2013-01-04 12:44:00,37.0,24.0,32.48,ESE,123,0.0,1.0,59,0.00,,SKC,0.00,VWS V14.01,2013-01-04 17:44:00,
2013-01-04 12:45:00,37.1,24.1,32.48,SE,124,0.0,1.0,59,0.00,,SKC,0.00,VWS V14.01,2013-01-04 17:45:00,
2013-01-04 12:46:00,37.0,24.0,32.48,ESE,123,2.0,6.0,59,0.00,,SKC,0.00,VWS V14.01,2013-01-04 17:46:00,
2013-01-04 12:47:00,36.8,23.8,32.48,ESE,123,5.0,5.0,59,0.00,,SKC,0.00,VWS V14.01,2013-01-04 17:47:00,
2013-01-04 12:48:00,36.8,23.8,32.48,SE,124,4.0,5.0,59,0.00,,SKC,0.00,VWS V14.01,2013-01-04 17:48:00,
2013-01-04 12:49:00,36.7,23.7,32.48,SE,124,1.0,5.0,59,0.00,,SKC,0.00,VWS V14.01,2013-01-04 17:49:00,
2013-01-04 12:50:00,36.8,23.8,32.48,ESE,123,4.0,5.0,59,0.00,,SKC,0.00,VWS V14.01,2013-01-04 17:50:00,
2013-01-04 12:51:00,36.8,24.6,32.48,ESE,122,2.0,4.0,61,0.00,,SKC,0.00,VWS V14.01,2013-01-04 17:51:00,
2013-01-04 12:52:00,36.9,24.7,32.48,ESE,114,0.0,2.0,61,0.00,,SKC,0.00,VWS V14.01,2013-01-04 17:52:00,
2013-01-04 12:53:00,37.0,24.8,32.48,ESE,106,4.0,4.0,61,0.00,,SKC,0.00,VWS V14.01,2013-01-04 17:53:00,
2013-01-04 12:54:00,37.2,25.0,32.48,ESE,106,0.0,4.0,61,0.00,,SKC,0.00,VWS V14.01,2013-01-04 17:54:00,
2013-01-04 12:55:00,37.1,24.9,32.48,ESE,106,2.0,4.0,61,0.00,,SKC,0.00,VWS V14.01,2013-01-04 17:55:00,
2013-01-04 12:56:00,37.7,25.1,32.48,WNW,286,0.0,5.0,60,0.00,,SKC,0.00,VWS V14.01,2013-01-04 17:56:00,
2013-01-04 12:57:00,37.8,26.0,32.48,WNW,284,1.0,1.0,62,0.00,,SKC,0.00,VWS V14.01,2013-01-04 17:57:00,
2013-01-04 12:58:00,37.9,25.3,32.48,WSW,252,3.0,4.0,60,0.00,,SKC,0.00,VWS V14.01,2013-01-04 17:58:00,
2013-01-04 12:59:00,37.9,25.7,32.48,WSW,238,3.0,3.0,61,0.00,,SKC,0.00,VWS V14.01,2013-01-04 17:59:00,
2013-01-04 13:00:00,37.9,25.3,32.48,WSW,250,3.0,3.0,60,0.00,,SKC,0.00,VWS V14.01,2013-01-04 18:00:00,
2013-01-04 13:01:00,37.7,24.7,32.48,ESE,119,2.0,6.0,59,0.00,,SKC,0.00,VWS V14.01,2013-01-04 18:01:00,
2013-01-04 13:02:00,37.6,24.6,32.48,ESE,120,0.0,2.0,59,0.00,,SKC,0.00,VWS V14.01,2013-01-04 18:02:00,
2013-01-04 13:03:00,37.6,25.0,32.48,ESE,119,0.0,2.0,60,0.00,,SKC,0.00,VWS V14.01,2013-01-04 18:03:00,
2013-01-04 13:04:00,37.6,25.0,32.48,ESE,120,0.0,1.0,60,0.00,,SKC,0.00,VWS V14.01,2013-01-04 18:04:00,
2013-01-04 13:05:00,37.5,24.9,32.48,ESE,120,0.0,1.0,60,0.00,,SKC,0.00,VWS V14.01,2013-01-04 18:05:00,
2013-01-04 13:06:00,37.6,24.6,32.48,ESE,121,4.0,4.0,59,0.00,,SKC,0.00,VWS V14.01,2013-01-04 18:06:00,
2013-01-04 13:07:00,37.6,24.6,32.48,South,170,5.0,5.0,59,0.00,,SKC,0.00,VWS V14.01,2013-01-04 18:07:00,
2013-01-04 13:08:00,37.6,24.6,32.48,East,86,4.0,5.0,59,0.00,,SKC,0.00,VWS V14.01,2013-01-04 18:08:00,
2013-01-04 13:09:00,37.7,24.7,32.48,East,86,2.0,4.0,59,0.00,,SKC,0.00,VWS V14.01,2013-01-04 18:09:00,
2013-01-04 13:10:00,37.7,24.7,32.48,East,86,2.0,4.0,59,0.00,,SKC,0.00,VWS V14.01,2013-01-04 18:10:00,
2013-01-04 13:11:00,37.7,25.1,32.48,ESE,115,4.0,5.0,60,0.00,,SKC,0.00,VWS V14.01,2013-01-04 18:11:00,
2013-01-04 13:12:00,37.8,24.8,32.48,ESE,115,0.0,4.0,59,0.00,,SKC,0.00,VWS V14.01,2013-01-04 18:12:00,
2013-01-04 13:13:00,37.9,24.9,32.48,ESE,114,0.0,2.0,59,0.00,,SKC,0.00,VWS V14.01,2013-01-04 18:13:00,
2013-01-04 13:14:00,38.1,25.5,32.48,ESE,114,0.0,0.0,60,0.00,,SKC,0.00,VWS V14.01,2013-01-04 18:14:00,
2013-01-04 13:15:00,38.0,25.0,32.48,ESE,114,0.0,0.0,59,0.00,,SKC,0.00,VWS V14.01,2013-01-04 18:15:00,
2013-01-04 13:16:00,38.6,25.9,32.48,ESE,114,1.0,1.0,60,0.00,,SKC,0.00,VWS V14.01,2013-01-04 18:16:00,
2013-01-04 13:17:00,38.6,25.5,32.48,ESE,118,2.0,6.0,59,0.00,,SKC,0.00,VWS V14.01,2013-01-04 18:17:00,
2013-01-04 13:18:00,38.7,25.2,32.48,SSE,157,2.0,5.0,58,0.00,,SKC,0.00,VWS V14.01,2013-01-04 18:18:00,
2013-01-04 13:19:00,38.7,25.2,32.48,SSE,157,0.0,2.0,58,0.00,,SKC,0.00,VWS V14.01,2013-01-04 18:19:00,
2013-01-04 13:20:00,38.7,24.8,32.48,SSE,157,1.0,2.0,57,0.00,,SKC,0.00,VWS V14.01,2013-01-04 18:20:00,
2013-01-04 13:21:00,38.9,25.0,32.48,SSE,148,1.0,5.0,57,0.00,,SKC,0.00,VWS V14.01,2013-01-04 18:21:00,
2013-01-04 13:22:00,38.9,25.0,32.48,SE,125,1.0,4.0,57,0.00,,SKC,0.00,VWS V14.01,2013-01-04 18:22:00,
2013-01-04 13:23:00,38.9,24.6,32.48,SE,125,0.0,1.0,56,0.00,,SKC,0.00,VWS V14.01,2013-01-04 18:23:00,
2013-01-04 13:24:00,39.0,25.1,32.48,SE,125,0.0,1.0,57,0.00,,SKC,0.00,VWS V14.01,2013-01-04 18:24:00,
2013-01-04 13:25:00,38.9,25.0,32.48,SE,125,0.0,0.0,57,0.00,,SKC,0.00,VWS V14.01,2013-01-04 18:25:00,
2013-01-04 13:26:00,39.2,25.3,32.48,SE,125,0.0,2.0,57,0.00,,SKC,0.00,VWS V14.01,2013-01-04 18:26:00,
2013-01-04 13:27:00,39.3,25.4,32.48,East,90,4.0,5.0,57,0.00,,SKC,0.00,VWS V14.01,2013-01-04 18:27:00,
2013-01-04 13:28:00,39.3,24.9,32.48,East,101,2.0,4.0,56,0.00,,SKC,0.00,VWS V14.01,2013-01-04 18:28:00,
2013-01-04 13:29:00,39.3,24.5,32.48,ESE,123,2.0,5.0,55,0.00,,SKC,0.00,VWS V14.01,2013-01-04 18:29:00,
2013-01-04 13:30:00,39.3,24.9,32.48,East,101,2.0,4.0,56,0.00,,SKC,0.00,VWS V14.01,2013-01-04 18:30:00,
2013-01-04 13:31:00,39.2,24.0,32.48,SE,125,0.0,2.0,54,0.00,,SKC,0.00,VWS V14.01,2013-01-04 18:31:00,
2013-01-04 13:32:00,39.3,24.9,32.48,SE,125,0.0,0.0,56,0.00,,SKC,0.00,VWS V14.01,2013-01-04 18:32:00,
2013-01-04 13:33:00,39.3,24.9,32.48,SE,126,0.0,2.0,56,0.00,,SKC,0.00,VWS V14.01,2013-01-04 18:33:00,
2013-01-04 13:34:00,39.4,25.0,32.48,SE,125,0.0,2.0,56,0.00,,SKC,0.00,VWS V14.01,2013-01-04 18:34:00,
2013-01-04 13:35:00,39.3,24.9,32.48,SE,126,2.0,2.0,56,0.00,,SKC,0.00,VWS V14.01,2013-01-04 18:35:00,
2013-01-04 13:36:00,39.5,24.7,32.48,ESE,123,2.0,4.0,55,0.00,,SKC,0.00,VWS V14.01,2013-01-04 18:36:00,
2013-01-04 13:37:00,39.5,24.7,32.48,East,94,2.0,6.0,55,0.00,,SKC,0.00,VWS V14.01,2013-01-04 18:37:00,
2013-01-04 13:38:00,39.6,24.8,32.48,NE,53,3.0,4.0,55,0.00,,SKC,0.00,VWS V14.01,2013-01-04 18:38:00,
2013-01-04 13:39:00,39.6,24.8,32.48,SE,130,6.0,6.0,55,0.00,,SKC,0.00,VWS V14.01,2013-01-04 18:39:00,
2013-01-04 13:40:00,39.6,24.8,32.48,NE,51,0.0,3.0,55,0.00,,SKC,0.00,VWS V14.01,2013-01-04 18:40:00,
2013-01-04 13:41:00,39.5,23.4,32.48,ESE,103,0.0,5.0,52,0.00,,SKC,0.00,VWS V14.01,2013-01-04 18:41:00,
2013-01-04 13:42:00,39.5,24.2,32.48,ESE,108,4.0,4.0,54,0.00,,SKC,0.00,VWS V14.01,2013-01-04 18:42:00,
2013-01-04 13:43:00,39.6,23.9,32.48,ESE,108,1.0,4.0,53,0.00,,SKC,0.00,VWS V14.01,2013-01-04 18:43:00,
2013-01-04 13:44:00,39.6,23.4,32.48,ESE,107,0.0,1.0,52,0.00,,SKC,0.00,VWS V14.01,2013-01-04 18:44:00,
2013-01-04 13:45:00,39.6,23.9,32.48,ESE,107,0.0,1.0,53,0.00,,SKC,0.00,VWS V14.01,2013-01-04 18:45:00,
2013-01-04 13:46:00,39.7,23.5,32.48,ESE,121,6.0,6.0,52,0.00,,SKC,0.00,VWS V14.01,2013-01-04 18:46:00,
2013-01-04 13:47:00,39.7,23.5,32.48,ESE,115,2.0,6.0,52,0.00,,SKC,0.00,VWS V14.01,2013-01-04 18:47:00,
2013-01-04 13:48:00,39.7,23.5,32.48,ESE,112,4.0,4.0,52,0.00,,SKC,0.00,VWS V14.01,2013-01-04 18:48:00,
2013-01-04 13:49:00,39.7,24.0,32.48,ESE,112,0.0,4.0,53,0.00,,SKC,0.00,VWS V14.01,2013-01-04 18:49:00,
2013-01-04 13:50:00,39.7,23.5,32.48,ESE,112,1.0,4.0,52,0.00,,SKC,0.00,VWS V14.01,2013-01-04 18:50:00,
2013-01-04 13:51:00,39.6,23.4,32.48,SE,125,4.0,8.0,52,0.00,,SKC,0.00,VWS V14.01,2013-01-04 18:51:00,
2013-01-04 13:52:00,39.4,23.7,32.48,ESE,113,6.0,7.0,53,0.00,,SKC,0.00,VWS V14.01,2013-01-04 18:52:00,
2013-01-04 13:53:00,39.3,22.7,32.48,ESE,113,1.0,6.0,51,0.00,,SKC,0.00,VWS V14.01,2013-01-04 18:53:00,
2013-01-04 13:54:00,39.2,23.5,32.48,ESE,109,5.0,6.0,53,0.00,,SKC,0.00,VWS V14.01,2013-01-04 18:54:00,
2013-01-04 13:55:00,39.2,23.5,32.48,ESE,113,4.0,4.0,53,0.00,,SKC,0.00,VWS V14.01,2013-01-04 18:55:00,
2013-01-04 13:56:00,38.9,22.8,32.48,ESE,109,0.0,4.0,52,0.00,,SKC,0.00,VWS V14.01,2013-01-04 18:56:00,
2013-01-04 13:57:00,39.0,22.9,32.48,ESE,109,0.0,0.0,52,0.00,,SKC,0.00,VWS V14.01,2013-01-04 18:57:00,
2013-01-04 13:58:00,39.1,23.9,32.48,ESE,109,1.0,1.0,54,0.00,,SKC,0.00,VWS V14.01,2013-01-04 18:58:00,
2013-01-04 13:59:00,39.2,24.4,32.48,ESE,109,0.0,1.0,55,0.00,,SKC,0.00,VWS V14.01,2013-01-04 18:59:00,
2013-01-04 14:00:00,39.1,23.9,32.48,ESE,109,0.0,1.0,54,0.00,,SKC,0.00,VWS V14.01,2013-01-04 19:00:00,
2013-01-04 14:01:00,39.5,23.8,32.48,East,96,7.0,7.0,53,0.00,,SKC,0.00,VWS V14.01,2013-01-04 19:01:00,
2013-01-04 14:02:00,39.4,22.8,32.48,East,94,4.0,7.0,51,0.00,,SKC,0.00,VWS V14.01,2013-01-04 19:02:00,
2013-01-04 14:03:00,39.2,23.1,32.48,East,94,2.0,5.0,52,0.00,,SKC,0.00,VWS V14.01,2013-01-04 19:03:00,
2013-01-04 14:04:00,39.1,23.0,32.48,East,94,0.0,4.0,52,0.00,,SKC,0.00,VWS V14.01,2013-01-04 19:04:00,
2013-01-04 14:05:00,39.2,23.1,32.48,East,94,2.0,2.0,52,0.00,,SKC,0.00,VWS V14.01,2013-01-04 19:05:00,
2013-01-04 14:06:00,39.2,23.5,32.48,ENE,68,3.0,3.0,53,0.00,,SKC,0.00,VWS V14.01,2013-01-04 19:06:00,
2013-01-04 14:07:00,39.2,24.0,32.48,NE,42,4.0,5.0,54,0.00,,SKC,0.00,VWS V14.01,2013-01-04 19:07:00,
2013-01-04 14:08:00,39.3,23.6,32.48,NNE,26,4.0,6.0,53,0.00,,SKC,0.00,VWS V14.01,2013-01-04 19:08:00,
2013-01-04 14:09:00,39.4,23.7,32.48,NNE,20,4.0,5.0,53,0.00,,SKC,0.00,VWS V14.01,2013-01-04 19:09:00,
2013-01-04 14:10:00,39.3,23.6,32.48,NNE,19,3.0,4.0,53,0.00,,SKC,0.00,VWS V14.01,2013-01-04 19:10:00,
2013-01-04 14:11:00,39.5,23.4,32.48,NNE,19,1.0,2.0,52,0.00,,SKC,0.00,VWS V14.01,2013-01-04 19:11:00,
2013-01-04 14:12:00,39.6,23.9,32.48,NNE,19,0.0,1.0,53,0.00,,SKC,0.00,VWS V14.01,2013-01-04 19:12:00,
2013-01-04 14:13:00,39.7,24.0,32.48,NNE,19,1.0,1.0,53,0.00,,SKC,0.00,VWS V14.01,2013-01-04 19:13:00,
2013-01-04 14:14:00,39.8,23.6,32.48,NNE,17,6.0,6.0,52,0.00,,SKC,0.00,VWS V14.01,2013-01-04 19:14:00,
2013-01-04 14:15:00,39.8,24.1,32.48,NNE,17,6.0,6.0,53,0.00,,SKC,0.00,VWS V14.01,2013-01-04 19:15:00,
2013-01-04 14:16:00,39.7,23.5,32.48,NNE,33,5.0,10.0,52,0.00,,SKC,0.00,VWS V14.01,2013-01-04 19:16:00,
2013-01-04 14:17:00,39.7,23.1,32.48,NNE,33,2.0,5.0,51,0.00,,SKC,0.00,VWS V14.01,2013-01-04 19:17:00,
2013-01-04 14:18:00,39.7,24.0,32.48,NNE,33,2.0,4.0,53,0.00,,SKC,0.00,VWS V14.01,2013-01-04 19:18:00,
2013-01-04 14:19:00,39.7,24.4,32.48,NNE,33,0.0,2.0,54,0.00,,SKC,0.00,VWS V14.01,2013-01-04 19:19:00,
2013-01-04 14:20:00,39.7,24.0,32.48,NNE,33,2.0,2.0,53,0.00,,SKC,0.00,VWS V14.01,2013-01-04 19:20:00,
2013-01-04 14:21:00,39.8,24.1,32.48,North,5,3.0,5.0,53,0.00,,SKC,0.00,VWS V14.01,2013-01-04 19:21:00,
2013-01-04 14:22:00,39.8,23.2,32.48,North,5,2.0,3.0,51,0.00,,SKC,0.00,VWS V14.01,2013-01-04 19:22:00,
2013-01-04 14:23:00,39.8,23.6,32.48,NE,37,2.0,4.0,52,0.00,,SKC,0.00,VWS V14.01,2013-01-04 19:23:00,
2013-01-04 14:24:00,39.7,22.6,32.48,North,5,5.0,7.0,50,0.00,,SKC,0.00,VWS V14.01,2013-01-04 19:24:00,
2013-01-04 14:25:00,39.7,23.1,32.48,NE,36,3.0,3.0,51,0.00,,SKC,0.00,VWS V14.01,2013-01-04 19:25:00,
2013-01-04 14:26:00,39.5,22.4,32.48,NNE,30,3.0,7.0,50,0.00,,SKC,0.00,VWS V14.01,2013-01-04 19:26:00,
2013-01-04 14:27:00,39.4,22.3,32.48,North,11,5.0,5.0,50,0.00,,SKC,0.00,VWS V14.01,2013-01-04 19:27:00,
2013-01-04 14:28:00,39.3,22.2,32.48,North,11,0.0,5.0,50,0.00,,SKC,0.00,VWS V14.01,2013-01-04 19:28:00,
2013-01-04 14:29:00,39.3,23.2,32.48,ENE,60,2.0,3.0,52,0.00,,SKC,0.00,VWS V14.01,2013-01-04 19:29:00,
2013-01-04 14:30:00,39.3,23.2,32.48,North,11,0.0,1.0,52,0.00,,SKC,0.00,VWS V14.01,2013-01-04 19:30:00,
2013-01-04 14:31:00,39.3,23.2,32.48,ENE,60,0.0,2.0,52,0.00,,SKC,0.00,VWS V14.01,2013-01-04 19:31:00,
2013-01-04 14:32:00,39.3,23.6,32.48,ESE,111,5.0,5.0,53,0.00,,SKC,0.00,VWS V14.01,2013-01-04 19:32:00,
2013-01-04 14:33:00,39.3,23.2,32.48,ESE,114,1.0,5.0,52,0.00,,SKC,0.00,VWS V14.01,2013-01-04 19:33:00,
2013-01-04 14:34:00,39.3,23.2,32.48,ESE,115,0.0,4.0,52,0.00,,SKC,0.00,VWS V14.01,2013-01-04 19:34:00,
2013-01-04 14:35:00,39.3,23.2,32.48,ESE,114,2.0,4.0,52,0.00,,SKC,0.00,VWS V14.01,2013-01-04 19:35:00,
2013-01-04 14:36:00,39.3,23.2,32.48,ESE,115,2.0,2.0,52,0.00,,SKC,0.00,VWS V14.01,2013-01-04 19:36:00,
2013-01-04 14:37:00,39.3,23.2,32.48,ENE,73,1.0,3.0,52,0.00,,SKC,0.00,VWS V14.01,2013-01-04 19:37:00,
2013-01-04 14:38:00,39.3,23.6,32.48,NNE,32,2.0,4.0,53,0.00,,SKC,0.00,VWS V14.01,2013-01-04 19:38:00,
2013-01-04 14:39:00,39.3,23.2,32.48,SE,136,2.0,5.0,52,0.00,,SKC,0.00,VWS V14.01,2013-01-04 19:39:00,
2013-01-04 14:40:00,39.3,23.6,32.48,NNE,32,0.0,2.0,53,0.00,,SKC,0.00,VWS V14.01,2013-01-04 19:40:00,
2013-01-04 14:41:00,39.3,22.7,32.48,SSE,168,0.0,2.0,51,0.00,,SKC,0.00,VWS V14.01,2013-01-04 19:41:00,
2013-01-04 14:42:00,39.4,23.2,32.48,SSE,168,0.0,2.0,52,0.00,,SKC,0.00,VWS V14.01,2013-01-04 19:42:00,
2013-01-04 14:43:00,39.5,23.4,32.48,SSE,168,0.0,1.0,52,0.00,,SKC,0.00,VWS V14.01,2013-01-04 19:43:00,
2013-01-04 14:44:00,39.7,24.0,32.48,SSE,168,0.0,0.0,53,0.00,,SKC,0.00,VWS V14.01,2013-01-04 19:44:00,
2013-01-04 14:45:00,39.5,23.4,32.48,SSE,168,0.0,0.0,52,0.00,,SKC,0.00,VWS V14.01,2013-01-04 19:45:00,
2013-01-04 14:46:00,39.9,24.2,32.48,ESE,111,0.0,5.0,53,0.00,,SKC,0.00,VWS V14.01,2013-01-04 19:46:00,
2013-01-04 14:47:00,40.0,23.8,32.48,ESE,106,5.0,5.0,52,0.00,,SKC,0.00,VWS V14.01,2013-01-04 19:47:00,
2013-01-04 14:48:00,40.0,23.8,32.48,ESE,106,2.0,5.0,52,0.00,,SKC,0.00,VWS V14.01,2013-01-04 19:48:00,
2013-01-04 14:49:00,39.9,23.7,32.48,ESE,123,6.0,7.0,52,0.00,,SKC,0.00,VWS V14.01,2013-01-04 19:49:00,
2013-01-04 14:50:00,39.9,23.7,32.48,ESE,105,2.0,4.0,52,0.00,,SKC,0.00,VWS V14.01,2013-01-04 19:50:00,
2013-01-04 14:51:00,39.4,22.8,32.48,SE,132,2.0,4.0,51,0.00,,SKC,0.00,VWS V14.01,2013-01-04 19:51:00,
2013-01-04 14:52:00,39.3,23.2,32.48,SE,132,0.0,2.0,52,0.00,,SKC,0.00,VWS V14.01,2013-01-04 19:52:00,
2013-01-04 14:53:00,39.3,23.6,32.48,SE,132,2.0,2.0,53,0.00,,SKC,0.00,VWS V14.01,2013-01-04 19:53:00,
2013-01-04 14:54:00,39.3,24.1,32.48,ESE,117,4.0,4.0,54,0.00,,SKC,0.00,VWS V14.01,2013-01-04 19:54:00,
2013-01-04 14:55:00,39.3,23.6,32.48,SE,130,1.0,4.0,53,0.00,,SKC,0.00,VWS V14.01,2013-01-04 19:55:00,
2013-01-04 14:56:00,39.2,23.1,32.48,ESE,109,6.0,6.0,52,0.00,,SKC,0.00,VWS V14.01,2013-01-04 19:56:00,
2013-01-04 14:57:00,39.1,23.0,32.48,ESE,109,5.0,6.0,52,0.00,,SKC,0.00,VWS V14.01,2013-01-04 19:57:00,
2013-01-04 14:58:00,39.0,22.9,32.48,East,88,2.0,5.0,52,0.00,,SKC,0.00,VWS V14.01,2013-01-04 19:58:00,
2013-01-04 14:59:00,38.9,23.7,32.48,ESE,112,5.0,5.0,54,0.00,,SKC,0.00,VWS V14.01,2013-01-04 19:59:00,
2013-01-04 15:00:00,39.0,23.8,32.48,East,87,3.0,3.0,54,0.00,,SKC,0.00,VWS V14.01,2013-01-04 20:00:00,
2013-01-04 15:01:00,38.9,23.2,32.48,ESE,107,2.0,5.0,53,0.00,,SKC,0.00,VWS V14.01,2013-01-04 20:01:00,
2013-01-04 15:02:00,38.9,23.7,32.48,NE,37,3.0,3.0,54,0.00,,SKC,0.00,VWS V14.01,2013-01-04 20:02:00,
2013-01-04 15:03:00,39.0,23.8,32.48,ESE,117,2.0,4.0,54,0.00,,SKC,0.00,VWS V14.01,2013-01-04 20:03:00,
2013-01-04 15:04:00,39.0,23.8,32.48,SSE,155,4.0,5.0,54,0.00,,SKC,0.00,VWS V14.01,2013-01-04 20:04:00,
2013-01-04 15:05:00,39.0,23.8,32.48,ESE,117,2.0,2.0,54,0.00,,SKC,0.00,VWS V14.01,2013-01-04 20:05:00,
2013-01-04 15:06:00,38.9,23.7,32.48,ESE,122,0.0,5.0,54,0.00,,SKC,0.00,VWS V14.01,2013-01-04 20:06:00,
2013-01-04 15:07:00,38.9,23.2,32.48,ESE,121,5.0,5.0,53,0.00,,SKC,0.00,VWS V14.01,2013-01-04 20:07:00,
2013-01-04 15:08:00,38.9,23.7,32.48,ESE,116,7.0,8.0,54,0.00,,SKC,0.00,VWS V14.01,2013-01-04 20:08:00,
2013-01-04 15:09:00,38.8,23.6,32.48,ESE,121,2.0,7.0,54,0.00,,SKC,0.00,VWS V14.01,2013-01-04 20:09:00,
2013-01-04 15:10:00,38.8,23.6,32.48,ESE,112,6.0,7.0,54,0.00,,SKC,0.00,VWS V14.01,2013-01-04 20:10:00,
2013-01-04 15:11:00,38.6,23.8,32.48,ESE,109,5.0,7.0,55,0.00,,SKC,0.00,VWS V14.01,2013-01-04 20:11:00,
2013-01-04 15:12:00,38.5,23.3,32.48,ESE,119,4.0,7.0,54,0.00,,SKC,0.00,VWS V14.01,2013-01-04 20:12:00,
2013-01-04 15:13:00,38.5,23.8,32.48,SE,129,5.0,6.0,55,0.00,,SKC,0.00,VWS V14.01,2013-01-04 20:13:00,
2013-01-04 15:14:00,38.4,23.2,32.48,ESE,113,5.0,5.0,54,0.00,,SKC,0.00,VWS V14.01,2013-01-04 20:14:00,
2013-01-04 15:15:00,38.5,23.8,32.48,SE,130,4.0,5.0,55,0.00,,SKC,0.00,VWS V14.01,2013-01-04 20:15:00,
2013-01-04 15:16:00,38.4,23.7,32.48,East,98,0.0,6.0,55,0.00,,SKC,0.00,VWS V14.01,2013-01-04 20:16:00,
2013-01-04 15:17:00,38.4,23.7,32.48,ESE,112,1.0,5.0,55,0.00,,SKC,0.00,VWS V14.01,2013-01-04 20:17:00,
2013-01-04 15:18:00,38.4,23.7,32.48,East,100,5.0,6.0,55,0.00,,SKC,0.00,VWS V14.01,2013-01-04 20:18:00,
2013-01-04 15:19:00,38.4,23.7,32.48,ESE,105,4.0,6.0,55,0.00,,SKC,0.00,VWS V14.01,2013-01-04 20:19:00,
2013-01-04 15:20:00,38.4,23.7,32.48,East,99,2.0,5.0,55,0.00,,SKC,0.00,VWS V14.01,2013-01-04 20:20:00,
2013-01-04 15:21:00,38.5,23.8,32.48,East,79,4.0,6.0,55,0.00,,SKC,0.00,VWS V14.01,2013-01-04 20:21:00,
2013-01-04 15:22:00,38.5,23.8,32.48,SE,126,0.0,7.0,55,0.00,,SKC,0.00,VWS V14.01,2013-01-04 20:22:00,
2013-01-04 15:23:00,38.5,23.8,32.48,SE,128,5.0,6.0,55,0.00,,SKC,0.00,VWS V14.01,2013-01-04 20:23:00,
2013-01-04 15:24:00,38.5,24.2,32.48,SE,128,0.0,5.0,56,0.00,,SKC,0.00,VWS V14.01,2013-01-04 20:24:00,
2013-01-04 15:25:00,38.5,23.8,32.48,SE,128,5.0,5.0,55,0.00,,SKC,0.00,VWS V14.01,2013-01-04 20:25:00,
2013-01-04 15:26:00,38.5,24.2,32.48,SE,128,2.0,2.0,56,0.00,,SKC,0.00,VWS V14.01,2013-01-04 20:26:00,
2013-01-04 15:27:00,38.5,24.6,32.48,ESE,117,5.0,5.0,57,0.00,,SKC,0.00,VWS V14.01,2013-01-04 20:27:00,
2013-01-04 15:28:00,38.5,24.2,32.48,ESE,111,2.0,5.0,56,0.00,,SKC,0.00,VWS V14.01,2013-01-04 20:28:00,
2013-01-04 15:29:00,38.5,24.2,32.48,ESE,111,5.0,5.0,56,0.00,,SKC,0.00,VWS V14.01,2013-01-04 20:29:00,
2013-01-04 15:30:00,38.5,24.2,32.48,ESE,112,4.0,4.0,56,0.00,,SKC,0.00,VWS V14.01,2013-01-04 20:30:00,
2013-01-04 15:31:00,38.5,23.8,32.48,East,95,5.0,8.0,55,0.00,,SKC,0.00,VWS V14.01,2013-01-04 20:31:00,
2013-01-04 15:32:00,38.4,23.7,32.48,East,92,5.0,5.0,55,0.00,,SKC,0.00,VWS V14.01,2013-01-04 20:32:00,
2013-01-04 15:33:00,38.3,23.6,32.48,ESE,105,1.0,5.0,55,0.00,,SKC,0.00,VWS V14.01,2013-01-04 20:33:00,
2013-01-04 15:34:00,38.2,23.5,32.48,ESE,122,4.0,6.0,55,0.00,,SKC,0.00,VWS V14.01,2013-01-04 20:34:00,
2013-01-04 15:35:00,38.3,23.6,32.48,ESE,105,1.0,5.0,55,0.00,,SKC,0.00,VWS V14.01,2013-01-04 20:35:00,
2013-01-04 15:36:00,38.1,23.8,32.48,ESE,123,2.0,4.0,56,0.00,,SKC,0.00,VWS V14.01,2013-01-04 20:36:00,
2013-01-04 15:37:00,38.2,23.9,32.48,SE,136,4.0,5.0,56,0.00,,SKC,0.00,VWS V14.01,2013-01-04 20:37:00,
2013-01-04 15:38:00,38.1,23.8,32.48,SE,136,2.0,4.0,56,0.00,,SKC,0.00,VWS V14.01,2013-01-04 20:38:00,
2013-01-04 15:39:00,38.0,23.3,32.48,SE,136,0.0,2.0,55,0.00,,SKC,0.00,VWS V14.01,2013-01-04 20:39:00,
2013-01-04 15:40:00,38.1,23.8,32.48,SE,136,2.0,4.0,56,0.00,,SKC,0.00,VWS V14.01,2013-01-04 20:40:00,
2013-01-04 15:41:00,37.9,23.2,32.48,ESE,103,2.0,6.0,55,0.00,,SKC,0.00,VWS V14.01,2013-01-04 20:41:00,
2013-01-04 15:42:00,37.9,23.6,32.48,East,88,4.0,4.0,56,0.00,,SKC,0.00,VWS V14.01,2013-01-04 20:42:00,
2013-01-04 15:43:00,37.8,23.1,32.48,ESE,111,4.0,7.0,55,0.00,,SKC,0.00,VWS V14.01,2013-01-04 20:43:00,
2013-01-04 15:44:00,37.7,23.0,32.48,East,92,2.0,6.0,55,0.00,,SKC,0.00,VWS V14.01,2013-01-04 20:44:00,
2013-01-04 15:45:00,37.8,23.1,32.48,ESE,110,4.0,4.0,55,0.00,,SKC,0.00,VWS V14.01,2013-01-04 20:45:00,
2013-01-04 15:46:00,37.7,23.4,32.48,East,92,1.0,1.0,56,0.00,,SKC,0.00,VWS V14.01,2013-01-04 20:46:00,
2013-01-04 15:47:00,37.6,22.9,32.48,SE,134,7.0,7.0,55,0.00,,SKC,0.00,VWS V14.01,2013-01-04 20:47:00,
2013-01-04 15:48:00,37.5,22.8,32.48,ESE,115,5.0,7.0,55,0.00,,SKC,0.00,VWS V14.01,2013-01-04 20:48:00,
2013-01-04 15:49:00,37.5,22.8,32.48,ESE,122,5.0,6.0,55,0.00,,SKC,0.00,VWS V14.01,2013-01-04 20:49:00,
2013-01-04 15:50:00,37.5,22.8,32.48,ESE,110,5.0,5.0,55,0.00,,SKC,0.00,VWS V14.01,2013-01-04 20:50:00,
2013-01-04 15:51:00,37.4,23.1,32.48,ESE,106,2.0,4.0,56,0.00,,SKC,0.00,VWS V14.01,2013-01-04 20:51:00,
2013-01-04 15:52:00,37.4,23.6,32.48,ESE,107,0.0,2.0,57,0.00,,SKC,0.00,VWS V14.01,2013-01-04 20:52:00,
2013-01-04 15:53:00,37.4,23.6,32.48,ESE,107,0.0,2.0,57,0.00,,SKC,0.00,VWS V14.01,2013-01-04 20:53:00,
2013-01-04 15:54:00,37.5,23.7,32.48,ESE,106,0.0,0.0,57,0.00,,SKC,0.00,VWS V14.01,2013-01-04 20:54:00,
2013-01-04 15:55:00,37.4,23.6,32.48,ESE,107,0.0,2.0,57,0.00,,SKC,0.00,VWS V14.01,2013-01-04 20:55:00,
2013-01-04 15:56:00,37.5,23.2,32.48,SSE,166,4.0,4.0,56,0.00,,SKC,0.00,VWS V14.01,2013-01-04 20:56:00,
2013-01-04 15:57:00,37.5,23.2,32.48,South,182,0.0,4.0,56,0.00,,SKC,0.00,VWS V14.01,2013-01-04 20:57:00,
2013-01-04 15:58:00,37.5,23.2,32.48,South,182,1.0,1.0,56,0.00,,SKC,0.00,VWS V14.01,2013-01-04 20:58:00,
2013-01-04 15:59:00,37.5,23.7,32.48,South,183,0.0,2.0,57,0.00,,SKC,0.00,VWS V14.01,2013-01-04 20:59:00,
2013-01-04 16:00:00,37.5,23.2,32.48,South,182,1.0,1.0,56,0.00,,SKC,0.00,VWS V14.01,2013-01-04 21:00:00,
2013-01-04 16:01:00,37.5,23.2,32.48,South,182,2.0,3.0,56,0.00,,SKC,0.00,VWS V14.01,2013-01-04 21:01:00,
2013-01-04 16:02:00,37.5,23.2,32.48,SE,134,4.0,5.0,56,0.00,,SKC,0.00,VWS V14.01,2013-01-04 21:02:00,
2013-01-04 16:03:00,37.5,23.2,32.48,SE,126,6.0,6.0,56,0.00,,SKC,0.00,VWS V14.01,2013-01-04 21:03:00,
2013-01-04 16:04:00,37.5,23.2,32.48,SE,126,2.0,6.0,56,0.00,,SKC,0.00,VWS V14.01,2013-01-04 21:04:00,
2013-01-04 16:05:00,37.5,23.2,32.48,SE,126,5.0,6.0,56,0.00,,SKC,0.00,VWS V14.01,2013-01-04 21:05:00,
2013-01-04 16:06:00,37.4,23.1,32.48,ESE,114,2.0,5.0,56,0.00,,SKC,0.00,VWS V14.01,2013-01-04 21:06:00,
2013-01-04 16:07:00,37.4,23.1,32.48,ESE,113,5.0,5.0,56,0.00,,SKC,0.00,VWS V14.01,2013-01-04 21:07:00,
2013-01-04 16:08:00,37.4,23.1,32.48,ESE,102,4.0,5.0,56,0.00,,SKC,0.00,VWS V14.01,2013-01-04 21:08:00,
2013-01-04 16:09:00,37.4,23.1,32.48,ESE,102,4.0,5.0,56,0.00,,SKC,0.00,VWS V14.01,2013-01-04 21:09:00,
2013-01-04 16:10:00,37.4,23.1,32.48,ESE,102,4.0,5.0,56,0.00,,SKC,0.00,VWS V14.01,2013-01-04 21:10:00,
2013-01-04 16:11:00,37.3,23.1,32.48,ESE,105,4.0,6.0,56,0.00,,SKC,0.00,VWS V14.01,2013-01-04 21:11:00,
2013-01-04 16:12:00,37.3,23.1,32.48,ESE,107,5.0,5.0,56,0.00,,SKC,0.00,VWS V14.01,2013-01-04 21:12:00,
2013-01-04 16:13:00,37.2,23.0,32.48,SE,125,2.0,8.0,56,0.00,,SKC,0.00,VWS V14.01,2013-01-04 21:13:00,
2013-01-04 16:14:00,37.2,22.5,32.48,ESE,110,1.0,5.0,55,0.00,,SKC,0.00,VWS V14.01,2013-01-04 21:14:00,
2013-01-04 16:15:00,37.2,23.0,32.48,SE,140,2.0,2.0,56,0.00,,SKC,0.00,VWS V14.01,2013-01-04 21:15:00,
2013-01-04 16:16:00,37.1,22.4,32.48,ESE,115,4.0,5.0,55,0.00,,SKC,0.00,VWS V14.01,2013-01-04 21:16:00,
2013-01-04 16:17:00,37.0,22.4,32.48,ESE,118,4.0,4.0,55,0.00,,SKC,0.00,VWS V14.01,2013-01-04 21:17:00,
2013-01-04 16:18:00,37.0,22.4,32.48,ESE,118,2.0,4.0,55,0.00,,SKC,0.00,VWS V14.01,2013-01-04 21:18:00,
2013-01-04 16:19:00,36.9,22.3,32.48,ESE,115,4.0,5.0,55,0.00,,SKC,0.00,VWS V14.01,2013-01-04 21:19:00,
2013-01-04 16:20:00,37.0,22.4,32.48,ESE,118,2.0,4.0,55,0.00,,SKC,0.00,VWS V14.01,2013-01-04 21:20:00,
2013-01-04 16:21:00,36.7,22.1,32.48,ESE,115,5.0,6.0,55,0.00,,SKC,0.00,VWS V14.01,2013-01-04 21:21:00,
2013-01-04 16:22:00,36.6,22.0,32.48,ESE,113,2.0,6.0,55,0.00,,SKC,0.00,VWS V14.01,2013-01-04 21:22:00,
2013-01-04 16:23:00,36.6,22.0,32.48,ESE,113,5.0,5.0,55,0.00,,SKC,0.00,VWS V14.01,2013-01-04 21:23:00,
2013-01-04 16:24:00,36.5,21.9,32.48,ESE,113,4.0,6.0,55,0.00,,SKC,0.00,VWS V14.01,2013-01-04 21:24:00,
2013-01-04 16:25:00,36.6,22.0,32.48,ESE,113,5.0,5.0,55,0.00,,SKC,0.00,VWS V14.01,2013-01-04 21:25:00,
2013-01-04 16:26:00,36.4,22.6,32.48,East,94,6.0,6.0,57,0.00,,SKC,0.00,VWS V14.01,2013-01-04 21:26:00,
2013-01-04 16:27:00,36.3,22.1,32.48,East,94,4.0,6.0,56,0.00,,SKC,0.00,VWS V14.01,2013-01-04 21:27:00,
2013-01-04 16:28:00,36.2,22.0,32.48,SSE,156,2.0,5.0,56,0.00,,SKC,0.00,VWS V14.01,2013-01-04 21:28:00,
2013-01-04 16:29:00,36.2,22.0,32.48,SE,140,4.0,4.0,56,0.00,,SKC,0.00,VWS V14.01,2013-01-04 21:29:00,
2013-01-04 16:30:00,36.2,22.0,32.48,SSE,156,2.0,5.0,56,0.00,,SKC,0.00,VWS V14.01,2013-01-04 21:30:00,
2013-01-04 16:31:00,36.1,22.4,32.48,SE,140,1.0,4.0,57,0.00,,SKC,0.00,VWS V14.01,2013-01-04 21:31:00,
2013-01-04 16:32:00,36.0,22.7,32.48,SE,132,2.0,5.0,58,0.00,,SKC,0.00,VWS V14.01,2013-01-04 21:32:00,
2013-01-04 16:33:00,35.9,22.2,32.48,SE,131,2.0,2.0,57,0.00,,SKC,0.00,VWS V14.01,2013-01-04 21:33:00,
2013-01-04 16:34:00,35.9,22.2,32.48,ESE,105,2.0,4.0,57,0.00,,SKC,0.00,VWS V14.01,2013-01-04 21:34:00,
2013-01-04 16:35:00,35.9,22.2,32.48,SE,132,2.0,2.0,57,0.00,,SKC,0.00,VWS V14.01,2013-01-04 21:35:00,
2013-01-04 16:36:00,35.7,22.4,32.48,ESE,105,0.0,0.0,58,0.00,,SKC,0.00,VWS V14.01,2013-01-04 21:36:00,
2013-01-04 16:37:00,35.7,23.2,32.48,ESE,105,2.0,2.0,60,0.00,,SKC,0.00,VWS V14.01,2013-01-04 21:37:00,
2013-01-04 16:38:00,35.6,22.3,32.48,ESE,105,0.0,2.0,58,0.00,,SKC,0.00,VWS V14.01,2013-01-04 21:38:00,
2013-01-04 16:39:00,35.6,22.7,32.48,ESE,105,0.0,0.0,59,0.00,,SKC,0.00,VWS V14.01,2013-01-04 21:39:00,
2013-01-04 16:40:00,35.6,22.3,32.48,ESE,105,0.0,2.0,58,0.00,,SKC,0.00,VWS V14.01,2013-01-04 21:40:00,
2013-01-04 16:41:00,35.4,22.1,32.48,ESE,105,2.0,4.0,58,0.00,,SKC,0.00,VWS V14.01,2013-01-04 21:41:00,
2013-01-04 16:42:00,35.4,22.1,32.48,ESE,105,4.0,4.0,58,0.00,,SKC,0.00,VWS V14.01,2013-01-04 21:42:00,
2013-01-04 16:43:00,35.3,22.0,32.48,ESE,105,2.0,4.0,58,0.00,,SKC,0.00,VWS V14.01,2013-01-04 21:43:00,
2013-01-04 16:44:00,35.3,22.0,32.48,ESE,106,2.0,4.0,58,0.00,,SKC,0.00,VWS V14.01,2013-01-04 21:44:00,
2013-01-04 16:45:00,35.3,22.0,32.48,ESE,105,2.0,4.0,58,0.00,,SKC,0.00,VWS V14.01,2013-01-04 21:45:00,
2013-01-04 16:46:00,35.2,22.7,32.48,ESE,108,0.0,1.0,60,0.00,,SKC,0.00,VWS V14.01,2013-01-04 21:46:00,
2013-01-04 16:47:00,35.1,22.2,32.48,ESE,108,1.0,1.0,59,0.00,,SKC,0.00,VWS V14.01,2013-01-04 21:47:00,
2013-01-04 16:48:00,35.1,22.2,32.48,ESE,107,0.0,1.0,59,0.00,,SKC,0.00,VWS V14.01,2013-01-04 21:48:00,
2013-01-04 16:49:00,35.0,22.5,32.48,ESE,108,1.0,1.0,60,0.00,,SKC,0.00,VWS V14.01,2013-01-04 21:49:00,
2013-01-04 16:50:00,35.1,22.2,32.48,ESE,107,0.0,1.0,59,0.00,,SKC,0.00,VWS V14.01,2013-01-04 21:50:00,
2013-01-04 16:51:00,34.9,22.0,32.48,ESE,108,2.0,4.0,59,0.00,,SKC,0.00,VWS V14.01,2013-01-04 21:51:00,
2013-01-04 16:52:00,34.8,22.0,32.48,ESE,108,0.0,2.0,59,0.00,,SKC,0.00,VWS V14.01,2013-01-04 21:52:00,
2013-01-04 16:53:00,34.8,22.3,32.48,ESE,108,0.0,0.0,60,0.00,,SKC,0.00,VWS V14.01,2013-01-04 21:53:00,
2013-01-04 16:54:00,34.7,21.9,32.48,ESE,108,2.0,2.0,59,0.00,,SKC,0.00,VWS V14.01,2013-01-04 21:54:00,
2013-01-04 16:55:00,34.8,22.3,32.48,ESE,108,0.0,0.0,60,0.00,,SKC,0.00,VWS V14.01,2013-01-04 21:55:00,
2013-01-04 16:56:00,34.6,22.2,32.48,ESE,107,0.0,1.0,60,0.00,,SKC,0.00,VWS V14.01,2013-01-04 21:56:00,
2013-01-04 16:57:00,34.6,22.2,32.48,ESE,107,0.0,2.0,60,0.00,,SKC,0.00,VWS V14.01,2013-01-04 21:57:00,
2013-01-04 16:58:00,34.4,22.0,32.48,ESE,108,5.0,5.0,60,0.00,,SKC,0.00,VWS V14.01,2013-01-04 21:58:00,
2013-01-04 16:59:00,34.4,22.0,32.48,ESE,107,4.0,5.0,60,0.00,,SKC,0.00,VWS V14.01,2013-01-04 21:59:00,
2013-01-04 17:00:00,34.4,22.0,32.48,ESE,108,5.0,5.0,60,0.00,,SKC,0.00,VWS V14.01,2013-01-04 22:00:00,
2013-01-04 17:01:00,34.4,22.0,32.48,ESE,108,0.0,0.0,60,0.00,,SKC,0.00,VWS V14.01,2013-01-04 22:01:00,
2013-01-04 17:02:00,34.4,22.0,32.48,ESE,107,0.0,1.0,60,0.00,,SKC,0.00,VWS V14.01,2013-01-04 22:02:00,
2013-01-04 17:03:00,34.4,22.0,32.48,ESE,107,0.0,5.0,60,0.00,,SKC,0.00,VWS V14.01,2013-01-04 22:03:00,
2013-01-04 17:04:00,34.4,22.0,32.48,ESE,108,0.0,1.0,60,0.00,,SKC,0.00,VWS V14.01,2013-01-04 22:04:00,
2013-01-04 17:05:00,34.4,22.0,32.48,ESE,108,1.0,5.0,60,0.00,,SKC,0.00,VWS V14.01,2013-01-04 22:05:00,
2013-01-04 17:06:00,34.4,22.0,32.48,ESE,108,1.0,1.0,60,0.00,,SKC,0.00,VWS V14.01,2013-01-04 22:06:00,
2013-01-04 17:07:00,34.4,22.0,32.48,ESE,111,4.0,5.0,60,0.00,,SKC,0.00,VWS V14.01,2013-01-04 22:07:00,
2013-01-04 17:08:00,34.2,21.4,32.48,ESE,110,4.0,4.0,59,0.00,,SKC,0.00,VWS V14.01,2013-01-04 22:08:00,
2013-01-04 17:09:00,34.2,21.4,32.48,ESE,116,4.0,5.0,59,0.00,,SKC,0.00,VWS V14.01,2013-01-04 22:09:00,
2013-01-04 17:10:00,34.2,21.4,32.48,ESE,111,4.0,4.0,59,0.00,,SKC,0.00,VWS V14.01,2013-01-04 22:10:00,
2013-01-04 17:11:00,34.2,21.4,32.48,ESE,116,0.0,1.0,59,0.00,,SKC,0.00,VWS V14.01,2013-01-04 22:11:00,
2013-01-04 17:12:00,34.1,21.7,32.48,ESE,116,0.0,1.0,60,0.00,,SKC,0.00,VWS V14.01,2013-01-04 22:12:00,
2013-01-04 17:13:00,34.1,21.7,32.48,ESE,116,0.0,0.0,60,0.00,,SKC,0.00,VWS V14.01,2013-01-04 22:13:00,
2013-01-04 17:14:00,34.0,21.6,32.48,ESE,116,0.0,0.0,60,0.00,,SKC,0.00,VWS V14.01,2013-01-04 22:14:00,
2013-01-04 17:15:00,34.1,21.7,32.48,ESE,115,0.0,0.0,60,0.00,,SKC,0.00,VWS V14.01,2013-01-04 22:15:00,
2013-01-04 17:16:00,33.9,21.5,32.48,ESE,115,0.0,0.0,60,0.00,,SKC,0.00,VWS V14.01,2013-01-04 22:16:00,
2013-01-04 17:17:00,33.8,21.4,32.48,ESE,115,1.0,1.0,60,0.00,,SKC,0.00,VWS V14.01,2013-01-04 22:17:00,
2013-01-04 17:18:00,33.7,21.3,32.48,ESE,116,1.0,1.0,60,0.00,,SKC,0.00,VWS V14.01,2013-01-04 22:18:00,
2013-01-04 17:19:00,33.6,21.2,32.48,ESE,117,1.0,4.0,60,0.00,,SKC,0.00,VWS V14.01,2013-01-04 22:19:00,
2013-01-04 17:20:00,33.7,21.3,32.48,ESE,115,1.0,1.0,60,0.00,,SKC,0.00,VWS V14.01,2013-01-04 22:20:00,
2013-01-04 17:21:00,33.4,21.8,32.48,ESE,117,2.0,2.0,62,0.00,,SKC,0.00,VWS V14.01,2013-01-04 22:21:00,
2013-01-04 17:22:00,33.3,21.7,32.48,ESE,117,2.0,2.0,62,0.00,,SKC,0.00,VWS V14.01,2013-01-04 22:22:00,
2013-01-04 17:23:00,33.1,21.5,32.48,ESE,117,1.0,4.0,62,0.00,,SKC,0.00,VWS V14.01,2013-01-04 22:23:00,
2013-01-04 17:24:00,33.0,21.4,32.48,ESE,117,0.0,2.0,62,0.00,,SKC,0.00,VWS V14.01,2013-01-04 22:24:00,
2013-01-04 17:25:00,33.2,21.6,32.48,ESE,117,2.0,4.0,62,0.00,,SKC,0.00,VWS V14.01,2013-01-04 22:25:00,
2013-01-04 17:26:00,32.9,21.3,32.48,ESE,115,1.0,4.0,62,0.00,,SKC,0.00,VWS V14.01,2013-01-04 22:26:00,
2013-01-04 17:27:00,32.9,21.7,32.48,ESE,115,0.0,1.0,63,0.00,,SKC,0.00,VWS V14.01,2013-01-04 22:27:00,
2013-01-04 17:28:00,32.8,21.2,32.48,ESE,115,0.0,0.0,62,0.00,,SKC,0.00,VWS V14.01,2013-01-04 22:28:00,
2013-01-04 17:29:00,32.8,21.2,32.48,ESE,115,0.0,0.0,62,0.00,,SKC,0.00,VWS V14.01,2013-01-04 22:29:00,
2013-01-04 17:30:00,32.8,21.2,32.48,ESE,115,0.0,0.0,62,0.00,,SKC,0.00,VWS V14.01,2013-01-04 22:30:00,
2013-01-04 17:31:00,32.6,21.4,32.48,ESE,115,0.0,0.0,63,0.00,,SKC,0.00,VWS V14.01,2013-01-04 22:31:00,
2013-01-04 17:32:00,32.5,21.3,32.48,ESE,115,0.0,0.0,63,0.00,,SKC,0.00,VWS V14.01,2013-01-04 22:32:00,
2013-01-04 17:33:00,32.5,21.7,32.48,ESE,115,0.0,0.0,64,0.00,,SKC,0.00,VWS V14.01,2013-01-04 22:33:00,
2013-01-04 17:34:00,32.4,21.2,32.48,ESE,115,0.0,0.0,63,0.00,,SKC,0.00,VWS V14.01,2013-01-04 22:34:00,
2013-01-04 17:35:00,32.5,21.7,32.48,ESE,115,0.0,0.0,64,0.00,,SKC,0.00,VWS V14.01,2013-01-04 22:35:00,
2013-01-04 17:36:00,32.3,21.5,32.48,ESE,115,0.0,0.0,64,0.00,,SKC,0.00,VWS V14.01,2013-01-04 22:36:00,
2013-01-04 17:37:00,32.2,21.4,32.48,ESE,115,2.0,2.0,64,0.00,,SKC,0.00,VWS V14.01,2013-01-04 22:37:00,
2013-01-04 17:38:00,32.1,21.3,32.48,ESE,115,1.0,2.0,64,0.00,,SKC,0.00,VWS V14.01,2013-01-04 22:38:00,
2013-01-04 17:39:00,32.0,21.2,32.48,ESE,115,0.0,2.0,64,0.00,,SKC,0.00,VWS V14.01,2013-01-04 22:39:00,
2013-01-04 17:40:00,32.1,21.3,32.48,ESE,115,0.0,2.0,64,0.00,,SKC,0.00,VWS V14.01,2013-01-04 22:40:00,
2013-01-04 17:41:00,31.9,21.5,32.48,ESE,115,0.0,1.0,65,0.00,,SKC,0.00,VWS V14.01,2013-01-04 22:41:00,
2013-01-04 17:42:00,31.7,21.3,32.48,ESE,115,1.0,1.0,65,0.00,,SKC,0.00,VWS V14.01,2013-01-04 22:42:00,
2013-01-04 17:43:00,31.7,21.3,32.48,ESE,115,0.0,1.0,65,0.00,,SKC,0.00,VWS V14.01,2013-01-04 22:43:00,
2013-01-04 17:44:00,31.6,21.2,32.48,ESE,115,0.0,0.0,65,0.00,,SKC,0.00,VWS V14.01,2013-01-04 22:44:00,
2013-01-04 17:45:00,31.7,21.3,32.48,ESE,115,0.0,1.0,65,0.00,,SKC,0.00,VWS V14.01,2013-01-04 22:45:00,
2013-01-04 17:46:00,31.4,21.4,32.48,ESE,115,0.0,0.0,66,0.00,,SKC,0.00,VWS V14.01,2013-01-04 22:46:00,
2013-01-04 17:47:00,31.4,21.4,30.12,ESE,115,0.0,0.0,66,0.00,,SKC,0.00,VWS V14.01,2013-01-04 22:47:00,
2013-01-04 17:48:00,31.3,21.3,30.12,ESE,115,0.0,0.0,66,0.00,,SKC,0.00,VWS V14.01,2013-01-04 22:48:00,
2013-01-04 17:49:00,31.2,21.2,30.12,ESE,115,0.0,0.0,66,0.00,,SKC,0.00,VWS V14.01,2013-01-04 22:49:00,
2013-01-04 17:50:00,31.3,21.3,30.12,ESE,115,0.0,0.0,66,0.00,,SKC,0.00,VWS V14.01,2013-01-04 22:50:00,
2013-01-04 17:51:00,31.0,21.3,30.12,ESE,115,0.0,1.0,67,0.00,,SKC,0.00,VWS V14.01,2013-01-04 22:51:00,
2013-01-04 17:52:00,30.9,21.2,30.12,ESE,115,0.0,0.0,67,0.00,,SKC,0.00,VWS V14.01,2013-01-04 22:52:00,
2013-01-04 17:53:00,30.8,21.1,30.12,ESE,115,0.0,0.0,67,0.00,,SKC,0.00,VWS V14.01,2013-01-04 22:53:00,
2013-01-04 17:54:00,30.7,21.1,30.12,ESE,115,0.0,0.0,67,0.00,,SKC,0.00,VWS V14.01,2013-01-04 22:54:00,
2013-01-04 17:55:00,30.9,21.2,30.12,ESE,115,0.0,0.0,67,0.00,,SKC,0.00,VWS V14.01,2013-01-04 22:55:00,
2013-01-04 17:56:00,30.6,21.3,30.12,ESE,115,0.0,1.0,68,0.00,,SKC,0.00,VWS V14.01,2013-01-04 22:56:00,
2013-01-04 17:57:00,30.6,21.3,30.12,ESE,115,1.0,1.0,68,0.00,,SKC,0.00,VWS V14.01,2013-01-04 22:57:00,
2013-01-04 17:58:00,30.5,21.2,30.12,ESE,115,0.0,1.0,68,0.00,,SKC,0.00,VWS V14.01,2013-01-04 22:58:00,
2013-01-04 17:59:00,30.5,21.2,30.12,ESE,115,0.0,0.0,68,0.00,,SKC,0.00,VWS V14.01,2013-01-04 22:59:00,
2013-01-04 18:00:00,30.5,21.2,30.12,ESE,115,0.0,1.0,68,0.00,,SKC,0.00,VWS V14.01,2013-01-04 23:00:00,
2013-01-04 18:01:00,30.4,21.1,30.12,ESE,115,0.0,0.0,68,0.00,,SKC,0.00,VWS V14.01,2013-01-04 23:01:00,
2013-01-04 18:02:00,30.3,21.0,30.12,ESE,115,0.0,0.0,68,0.00,,SKC,0.00,VWS V14.01,2013-01-04 23:02:00,
2013-01-04 18:03:00,30.3,21.4,30.12,ESE,115,0.0,0.0,69,0.00,,SKC,0.00,VWS V14.01,2013-01-04 23:03:00,
2013-01-04 18:04:00,30.2,20.9,30.12,ESE,115,0.0,0.0,68,0.00,,SKC,0.00,VWS V14.01,2013-01-04 23:04:00,
2013-01-04 18:05:00,30.3,21.4,30.12,ESE,115,0.0,0.0,69,0.00,,SKC,0.00,VWS V14.01,2013-01-04 23:05:00,
2013-01-04 18:06:00,30.2,21.3,30.12,ESE,115,0.0,0.0,69,0.00,,SKC,0.00,VWS V14.01,2013-01-04 23:06:00,
2013-01-04 18:07:00,30.1,21.2,30.12,ESE,115,0.0,0.0,69,0.00,,SKC,0.00,VWS V14.01,2013-01-04 23:07:00,
2013-01-04 18:08:00,30.1,21.2,30.12,ESE,115,0.0,0.0,69,0.00,,SKC,0.00,VWS V14.01,2013-01-04 23:08:00,
2013-01-04 18:09:00,30.1,21.2,30.12,ESE,115,0.0,0.0,69,0.00,,SKC,0.00,VWS V14.01,2013-01-04 23:09:00,
2013-01-04 18:10:00,30.1,21.2,30.12,ESE,115,0.0,0.0,69,0.00,,SKC,0.00,VWS V14.01,2013-01-04 23:10:00,
2013-01-04 18:11:00,30.0,21.4,30.12,ESE,115,0.0,0.0,70,0.00,,SKC,0.00,VWS V14.01,2013-01-04 23:11:00,
2013-01-04 18:12:00,29.9,21.3,30.12,ESE,115,0.0,0.0,70,0.00,,SKC,0.00,VWS V14.01,2013-01-04 23:12:00,
2013-01-04 18:13:00,29.9,21.3,30.12,ESE,115,0.0,0.0,70,0.00,,SKC,0.00,VWS V14.01,2013-01-04 23:13:00,
2013-01-04 18:14:00,29.8,20.9,30.12,ESE,115,0.0,2.0,69,0.00,,SKC,0.00,VWS V14.01,2013-01-04 23:14:00,
2013-01-04 18:15:00,29.9,21.3,30.12,ESE,115,0.0,0.0,70,0.00,,SKC,0.00,VWS V14.01,2013-01-04 23:15:00,
2013-01-04 18:16:00,29.7,21.1,30.12,ESE,115,0.0,0.0,70,0.00,,SKC,0.00,VWS V14.01,2013-01-04 23:16:00,
2013-01-04 18:17:00,29.7,21.1,30.12,ESE,115,0.0,1.0,70,0.00,,SKC,0.00,VWS V14.01,2013-01-04 23:17:00,
2013-01-04 18:18:00,29.7,21.1,30.12,ESE,115,0.0,0.0,70,0.00,,SKC,0.00,VWS V14.01,2013-01-04 23:18:00,
2013-01-04 18:19:00,29.7,21.1,30.12,ESE,115,0.0,0.0,70,0.00,,SKC,0.00,VWS V14.01,2013-01-04 23:19:00,
2013-01-04 18:20:00,29.7,21.1,30.12,ESE,115,0.0,0.0,70,0.00,,SKC,0.00,VWS V14.01,2013-01-04 23:20:00,
2013-01-04 18:21:00,29.6,21.0,30.12,ESE,115,0.0,0.0,70,0.00,,SKC,0.00,VWS V14.01,2013-01-04 23:21:00,
2013-01-04 18:22:00,29.5,20.9,30.12,ESE,115,0.0,0.0,70,0.00,,SKC,0.00,VWS V14.01,2013-01-04 23:22:00,
2013-01-04 18:23:00,29.5,20.9,30.12,ESE,115,0.0,0.0,70,0.00,,SKC,0.00,VWS V14.01,2013-01-04 23:23:00,
2013-01-04 18:24:00,29.4,21.2,30.12,ESE,115,0.0,0.0,71,0.00,,SKC,0.00,VWS V14.01,2013-01-04 23:24:00,
2013-01-04 18:25:00,29.5,20.9,30.12,ESE,115,0.0,0.0,70,0.00,,SKC,0.00,VWS V14.01,2013-01-04 23:25:00,
2013-01-04 18:26:00,29.4,21.5,30.12,ESE,115,0.0,0.0,72,0.00,,SKC,0.00,VWS V14.01,2013-01-04 23:26:00,
2013-01-04 18:27:00,29.3,21.1,30.12,ESE,115,0.0,0.0,71,0.00,,SKC,0.00,VWS V14.01,2013-01-04 23:27:00,
2013-01-04 18:28:00,29.3,21.1,30.12,ESE,115,0.0,0.0,71,0.00,,SKC,0.00,VWS V14.01,2013-01-04 23:28:00,
2013-01-04 18:29:00,29.2,21.0,30.12,ESE,115,0.0,0.0,71,0.00,,SKC,0.00,VWS V14.01,2013-01-04 23:29:00,
2013-01-04 18:30:00,29.3,21.1,30.12,ESE,115,0.0,0.0,71,0.00,,SKC,0.00,VWS V14.01,2013-01-04 23:30:00,
2013-01-04 18:31:00,29.1,21.2,30.12,ESE,115,0.0,1.0,72,0.00,,SKC,0.00,VWS V14.01,2013-01-04 23:31:00,
2013-01-04 18:32:00,29.1,21.2,30.12,ESE,115,0.0,1.0,72,0.00,,SKC,0.00,VWS V14.01,2013-01-04 23:32:00,
2013-01-04 18:33:00,29.0,21.1,30.12,ESE,115,0.0,0.0,72,0.00,,SKC,0.00,VWS V14.01,2013-01-04 23:33:00,
2013-01-04 18:34:00,29.0,21.1,30.12,ESE,115,0.0,0.0,72,0.00,,SKC,0.00,VWS V14.01,2013-01-04 23:34:00,
2013-01-04 18:35:00,29.0,21.1,30.12,ESE,115,0.0,0.0,72,0.00,,SKC,0.00,VWS V14.01,2013-01-04 23:35:00,
2013-01-04 18:36:00,29.0,20.8,30.12,ESE,115,0.0,1.0,71,0.00,,SKC,0.00,VWS V14.01,2013-01-04 23:36:00,
2013-01-04 18:37:00,28.9,20.7,30.12,ESE,115,0.0,1.0,71,0.00,,SKC,0.00,VWS V14.01,2013-01-04 23:37:00,
2013-01-04 18:38:00,29.0,20.8,30.12,ESE,115,0.0,0.0,71,0.00,,SKC,0.00,VWS V14.01,2013-01-04 23:38:00,
2013-01-04 18:39:00,28.9,21.0,30.12,ESE,115,0.0,0.0,72,0.00,,SKC,0.00,VWS V14.01,2013-01-04 23:39:00,
2013-01-04 18:40:00,29.0,20.8,30.12,ESE,115,0.0,0.0,71,0.00,,SKC,0.00,VWS V14.01,2013-01-04 23:40:00,
2013-01-04 18:41:00,28.9,21.0,30.12,ESE,115,0.0,0.0,72,0.00,,SKC,0.00,VWS V14.01,2013-01-04 23:41:00,
2013-01-04 18:42:00,28.9,21.0,30.12,ESE,115,0.0,0.0,72,0.00,,SKC,0.00,VWS V14.01,2013-01-04 23:42:00,
2013-01-04 18:43:00,28.9,21.0,30.12,ESE,115,0.0,0.0,72,0.00,,SKC,0.00,VWS V14.01,2013-01-04 23:43:00,
2013-01-04 18:44:00,28.9,21.4,30.12,ESE,115,2.0,2.0,73,0.00,,SKC,0.00,VWS V14.01,2013-01-04 23:44:00,
2013-01-04 18:45:00,28.9,21.0,30.12,ESE,115,0.0,0.0,72,0.00,,SKC,0.00,VWS V14.01,2013-01-04 23:45:00,
2013-01-04 18:46:00,28.8,21.2,30.12,ESE,115,1.0,2.0,73,0.00,,SKC,0.00,VWS V14.01,2013-01-04 23:46:00,
2013-01-04 18:47:00,28.8,21.2,30.12,ESE,115,2.0,2.0,73,0.00,,SKC,0.00,VWS V14.01,2013-01-04 23:47:00,
2013-01-04 18:48:00,28.8,21.2,30.12,ESE,115,1.0,2.0,73,0.00,,SKC,0.00,VWS V14.01,2013-01-04 23:48:00,
2013-01-04 18:49:00,28.8,21.6,30.12,ESE,115,0.0,1.0,74,0.00,,SKC,0.00,VWS V14.01,2013-01-04 23:49:00,
2013-01-04 18:50:00,28.8,21.2,30.12,ESE,115,0.0,2.0,73,0.00,,SKC,0.00,VWS V14.01,2013-01-04 23:50:00,
2013-01-04 18:51:00,28.8,21.6,30.12,ESE,115,0.0,0.0,74,0.00,,SKC,0.00,VWS V14.01,2013-01-04 23:51:00,
2013-01-04 18:52:00,28.8,21.2,30.12,ESE,115,0.0,0.0,73,0.00,,SKC,0.00,VWS V14.01,2013-01-04 23:52:00,
2013-01-04 18:53:00,28.8,21.2,30.12,ESE,115,0.0,0.0,73,0.00,,SKC,0.00,VWS V14.01,2013-01-04 23:53:00,
2013-01-04 18:54:00,28.7,21.2,30.12,ESE,115,0.0,0.0,73,0.00,,SKC,0.00,VWS V14.01,2013-01-04 23:54:00,
2013-01-04 18:55:00,28.8,21.2,30.12,ESE,115,0.0,0.0,73,0.00,,SKC,0.00,VWS V14.01,2013-01-04 23:55:00,
2013-01-04 18:56:00,28.7,21.2,30.12,ESE,115,0.0,0.0,73,0.00,,SKC,0.00,VWS V14.01,2013-01-04 23:56:00,
2013-01-04 18:57:00,28.6,21.1,30.12,ESE,115,0.0,0.0,73,0.00,,SKC,0.00,VWS V14.01,2013-01-04 23:57:00,
2013-01-04 18:58:00,28.5,21.0,30.12,ESE,115,0.0,0.0,73,0.00,,SKC,0.00,VWS V14.01,2013-01-04 23:58:00,
2013-01-04 18:59:00,28.5,21.3,30.12,ESE,115,0.0,0.0,74,0.00,,SKC,0.00,VWS V14.01,2013-01-04 23:59:00,
2013-01-04 19:00:00,28.6,21.1,30.12,ESE,115,0.0,0.0,73,0.00,,SKC,0.00,VWS V14.01,2013-01-05 00:00:00,
2013-01-04 19:01:00,28.4,21.2,30.12,ESE,115,0.0,0.0,74,0.00,,SKC,0.00,VWS V14.01,2013-01-05 00:01:00,
2013-01-04 19:02:00,28.4,21.2,30.12,ESE,115,0.0,0.0,74,0.00,,SKC,0.00,VWS V14.01,2013-01-05 00:02:00,
2013-01-04 19:03:00,28.3,21.1,30.12,ESE,115,0.0,0.0,74,0.00,,SKC,0.00,VWS V14.01,2013-01-05 00:03:00,
2013-01-04 19:04:00,28.3,21.1,30.12,ESE,115,0.0,0.0,74,0.00,,SKC,0.00,VWS V14.01,2013-01-05 00:04:00,
2013-01-04 19:05:00,28.3,21.1,30.12,ESE,115,0.0,0.0,74,0.00,,SKC,0.00,VWS V14.01,2013-01-05 00:05:00,
2013-01-04 19:06:00,28.1,20.9,30.12,ESE,115,0.0,0.0,74,0.00,,SKC,0.00,VWS V14.01,2013-01-05 00:06:00,
2013-01-04 19:07:00,28.1,21.2,30.12,ESE,115,0.0,1.0,75,0.00,,SKC,0.00,VWS V14.01,2013-01-05 00:07:00,
2013-01-04 19:08:00,28.1,21.2,30.12,ESE,115,0.0,0.0,75,0.00,,SKC,0.00,VWS V14.01,2013-01-05 00:08:00,
2013-01-04 19:09:00,28.0,21.1,30.12,ESE,115,0.0,0.0,75,0.00,,SKC,0.00,VWS V14.01,2013-01-05 00:09:00,
2013-01-04 19:10:00,28.1,21.2,30.12,ESE,115,0.0,0.0,75,0.00,,SKC,0.00,VWS V14.01,2013-01-05 00:10:00,
2013-01-04 19:11:00,28.0,21.1,30.12,ESE,115,0.0,0.0,75,0.00,,SKC,0.00,VWS V14.01,2013-01-05 00:11:00,
2013-01-04 19:12:00,27.9,21.0,30.12,ESE,115,0.0,0.0,75,0.00,,SKC,0.00,VWS V14.01,2013-01-05 00:12:00,
2013-01-04 19:13:00,27.9,20.7,30.12,ESE,115,0.0,0.0,74,0.00,,SKC,0.00,VWS V14.01,2013-01-05 00:13:00,
2013-01-04 19:14:00,27.9,20.7,30.12,ESE,115,0.0,2.0,74,0.00,,SKC,0.00,VWS V14.01,2013-01-05 00:14:00,
2013-01-04 19:15:00,27.9,20.7,30.12,ESE,115,0.0,0.0,74,0.00,,SKC,0.00,VWS V14.01,2013-01-05 00:15:00,
2013-01-04 19:16:00,27.9,20.7,30.12,ESE,115,0.0,0.0,74,0.00,,SKC,0.00,VWS V14.01,2013-01-05 00:16:00,
2013-01-04 19:17:00,27.9,20.7,30.12,ESE,115,0.0,0.0,74,0.00,,SKC,0.00,VWS V14.01,2013-01-05 00:17:00,
2013-01-04 19:18:00,27.9,20.7,30.12,ESE,115,1.0,1.0,74,0.00,,SKC,0.00,VWS V14.01,2013-01-05 00:18:00,
2013-01-04 19:19:00,28.0,20.8,30.12,ESE,115,1.0,1.0,74,0.00,,SKC,0.00,VWS V14.01,2013-01-05 00:19:00,
2013-01-04 19:20:00,27.9,20.7,30.12,ESE,115,0.0,0.0,74,0.00,,SKC,0.00,VWS V14.01,2013-01-05 00:20:00,
2013-01-04 19:21:00,28.0,20.8,30.12,ESE,115,1.0,1.0,74,0.00,,SKC,0.00,VWS V14.01,2013-01-05 00:21:00,
2013-01-04 19:22:00,28.0,20.8,30.12,ESE,115,0.0,1.0,74,0.00,,SKC,0.00,VWS V14.01,2013-01-05 00:22:00,
2013-01-04 19:23:00,28.1,20.9,30.12,ESE,115,0.0,1.0,74,0.00,,SKC,0.00,VWS V14.01,2013-01-05 00:23:00,
2013-01-04 19:24:00,28.1,20.9,30.12,ESE,115,0.0,1.0,74,0.00,,SKC,0.00,VWS V14.01,2013-01-05 00:24:00,
2013-01-04 19:25:00,28.0,20.8,30.12,ESE,115,0.0,1.0,74,0.00,,SKC,0.00,VWS V14.01,2013-01-05 00:25:00,
2013-01-04 19:26:00,28.1,20.9,30.12,ESE,115,1.0,1.0,74,0.00,,SKC,0.00,VWS V14.01,2013-01-05 00:26:00,
2013-01-04 19:27:00,28.1,20.9,30.12,ESE,115,0.0,1.0,74,0.00,,SKC,0.00,VWS V14.01,2013-01-05 00:27:00,
2013-01-04 19:28:00,28.1,20.9,30.12,ESE,115,0.0,1.0,74,0.00,,SKC,0.00,VWS V14.01,2013-01-05 00:28:00,
2013-01-04 19:29:00,28.1,20.9,30.12,ESE,115,0.0,0.0,74,0.00,,SKC,0.00,VWS V14.01,2013-01-05 00:29:00,
2013-01-04 19:30:00,28.1,20.9,30.12,ESE,115,0.0,1.0,74,0.00,,SKC,0.00,VWS V14.01,2013-01-05 00:30:00,
2013-01-04 19:31:00,28.1,20.9,30.12,ESE,115,0.0,0.0,74,0.00,,SKC,0.00,VWS V14.01,2013-01-05 00:31:00,
2013-01-04 19:32:00,28.1,20.9,30.12,ESE,115,0.0,0.0,74,0.00,,SKC,0.00,VWS V14.01,2013-01-05 00:32:00,
2013-01-04 19:33:00,28.0,20.8,30.12,ESE,115,0.0,0.0,74,0.00,,SKC,0.00,VWS V14.01,2013-01-05 00:33:00,
2013-01-04 19:34:00,28.0,20.8,30.12,ESE,115,0.0,1.0,74,0.00,,SKC,0.00,VWS V14.01,2013-01-05 00:34:00,
2013-01-04 19:35:00,28.0,20.8,30.12,ESE,115,0.0,0.0,74,0.00,,SKC,0.00,VWS V14.01,2013-01-05 00:35:00,
2013-01-04 19:36:00,28.0,20.8,30.12,ESE,115,0.0,0.0,74,0.00,,SKC,0.00,VWS V14.01,2013-01-05 00:36:00,
2013-01-04 19:37:00,28.1,20.6,30.12,ESE,115,0.0,0.0,73,0.00,,SKC,0.00,VWS V14.01,2013-01-05 00:37:00,
2013-01-04 19:38:00,28.1,20.6,30.12,ESE,115,0.0,0.0,73,0.00,,SKC,0.00,VWS V14.01,2013-01-05 00:38:00,
2013-01-04 19:39:00,28.1,20.6,30.12,ESE,115,0.0,0.0,73,0.00,,SKC,0.00,VWS V14.01,2013-01-05 00:39:00,
2013-01-04 19:40:00,28.1,20.6,30.12,ESE,115,0.0,0.0,73,0.00,,SKC,0.00,VWS V14.01,2013-01-05 00:40:00,
2013-01-04 19:41:00,28.1,20.9,30.12,ESE,115,0.0,0.0,74,0.00,,SKC,0.00,VWS V14.01,2013-01-05 00:41:00,
2013-01-04 19:42:00,28.1,20.9,30.12,ESE,115,0.0,0.0,74,0.00,,SKC,0.00,VWS V14.01,2013-01-05 00:42:00,
2013-01-04 19:43:00,28.1,20.9,30.12,ESE,115,0.0,0.0,74,0.00,,SKC,0.00,VWS V14.01,2013-01-05 00:43:00,
2013-01-04 19:44:00,28.1,20.9,30.12,ESE,115,0.0,0.0,74,0.00,,SKC,0.00,VWS V14.01,2013-01-05 00:44:00,
2013-01-04 19:45:00,28.1,20.9,30.12,ESE,115,0.0,0.0,74,0.00,,SKC,0.00,VWS V14.01,2013-01-05 00:45:00,
2013-01-04 19:46:00,28.1,20.9,30.12,ESE,115,0.0,0.0,74,0.00,,SKC,0.00,VWS V14.01,2013-01-05 00:46:00,
2013-01-04 19:47:00,28.0,20.8,30.12,ESE,115,0.0,0.0,74,0.00,,SKC,0.00,VWS V14.01,2013-01-05 00:47:00,
2013-01-04 19:48:00,28.0,20.8,30.12,ESE,115,0.0,0.0,74,0.00,,SKC,0.00,VWS V14.01,2013-01-05 00:48:00,
2013-01-04 19:49:00,28.0,20.8,30.12,ESE,115,0.0,0.0,74,0.00,,SKC,0.00,VWS V14.01,2013-01-05 00:49:00,
2013-01-04 19:50:00,28.0,20.8,30.12,ESE,115,0.0,0.0,74,0.00,,SKC,0.00,VWS V14.01,2013-01-05 00:50:00,
2013-01-04 19:51:00,27.9,21.0,30.12,ESE,115,0.0,0.0,75,0.00,,SKC,0.00,VWS V14.01,2013-01-05 00:51:00,
2013-01-04 19:52:00,27.9,20.7,30.12,ESE,115,0.0,0.0,74,0.00,,SKC,0.00,VWS V14.01,2013-01-05 00:52:00,
2013-01-04 19:53:00,27.8,20.6,30.12,ESE,115,0.0,0.0,74,0.00,,SKC,0.00,VWS V14.01,2013-01-05 00:53:00,
2013-01-04 19:54:00,27.8,20.6,30.12,ESE,115,0.0,0.0,74,0.00,,SKC,0.00,VWS V14.01,2013-01-05 00:54:00,
2013-01-04 19:55:00,27.8,20.6,30.12,ESE,115,0.0,0.0,74,0.00,,SKC,0.00,VWS V14.01,2013-01-05 00:55:00,
2013-01-04 19:56:00,27.7,20.5,30.12,ESE,115,0.0,0.0,74,0.00,,SKC,0.00,VWS V14.01,2013-01-05 00:56:00,
2013-01-04 19:57:00,27.6,20.4,30.12,ESE,115,0.0,0.0,74,0.00,,SKC,0.00,VWS V14.01,2013-01-05 00:57:00,
2013-01-04 19:58:00,27.6,20.4,30.12,ESE,115,0.0,0.0,74,0.00,,SKC,0.00,VWS V14.01,2013-01-05 00:58:00,
2013-01-04 19:59:00,27.5,20.6,30.12,ESE,115,0.0,0.0,75,0.00,,SKC,0.00,VWS V14.01,2013-01-05 00:59:00,
2013-01-04 20:00:00,27.6,20.4,30.12,ESE,115,0.0,0.0,74,0.00,,SKC,0.00,VWS V14.01,2013-01-05 01:00:00,
2013-01-04 20:01:00,27.4,20.5,30.12,ESE,115,0.0,0.0,75,0.00,,SKC,0.00,VWS V14.01,2013-01-05 01:01:00,
2013-01-04 20:02:00,27.4,20.5,30.12,ESE,115,0.0,0.0,75,0.00,,SKC,0.00,VWS V14.01,2013-01-05 01:02:00,
2013-01-04 20:03:00,27.3,20.4,30.12,ESE,115,0.0,0.0,75,0.00,,SKC,0.00,VWS V14.01,2013-01-05 01:03:00,
2013-01-04 20:04:00,27.2,20.3,30.12,ESE,115,0.0,1.0,75,0.00,,SKC,0.00,VWS V14.01,2013-01-05 01:04:00,
2013-01-04 20:05:00,27.3,20.4,30.12,ESE,115,0.0,0.0,75,0.00,,SKC,0.00,VWS V14.01,2013-01-05 01:05:00,
2013-01-04 20:06:00,27.2,20.6,30.12,ESE,115,0.0,0.0,76,0.00,,SKC,0.00,VWS V14.01,2013-01-05 01:06:00,
2013-01-04 20:07:00,27.2,20.6,30.12,ESE,115,0.0,0.0,76,0.00,,SKC,0.00,VWS V14.01,2013-01-05 01:07:00,
2013-01-04 20:08:00,27.2,20.6,30.12,ESE,115,0.0,0.0,76,0.00,,SKC,0.00,VWS V14.01,2013-01-05 01:08:00,
2013-01-04 20:09:00,27.1,20.5,30.12,ESE,115,0.0,0.0,76,0.00,,SKC,0.00,VWS V14.01,2013-01-05 01:09:00,
2013-01-04 20:10:00,27.2,20.6,30.12,ESE,115,0.0,0.0,76,0.00,,SKC,0.00,VWS V14.01,2013-01-05 01:10:00,
2013-01-04 20:11:00,27.1,20.5,30.12,ESE,115,0.0,0.0,76,0.00,,SKC,0.00,VWS V14.01,2013-01-05 01:11:00,
2013-01-04 20:12:00,27.1,20.5,30.12,ESE,115,0.0,0.0,76,0.00,,SKC,0.00,VWS V14.01,2013-01-05 01:12:00,
2013-01-04 20:13:00,27.1,20.5,30.12,ESE,115,0.0,0.0,76,0.00,,SKC,0.00,VWS V14.01,2013-01-05 01:13:00,
2013-01-04 20:14:00,27.0,20.5,30.12,ESE,115,0.0,0.0,76,0.00,,SKC,0.00,VWS V14.01,2013-01-05 01:14:00,
2013-01-04 20:15:00,27.1,20.5,30.12,ESE,115,0.0,0.0,76,0.00,,SKC,0.00,VWS V14.01,2013-01-05 01:15:00,
2013-01-04 20:16:00,27.0,20.5,30.12,ESE,115,0.0,2.0,76,0.00,,SKC,0.00,VWS V14.01,2013-01-05 01:16:00,
2013-01-04 20:17:00,27.0,20.5,30.12,ESE,115,0.0,0.0,76,0.00,,SKC,0.00,VWS V14.01,2013-01-05 01:17:00,
2013-01-04 20:18:00,27.0,20.5,30.12,ESE,115,0.0,0.0,76,0.00,,SKC,0.00,VWS V14.01,2013-01-05 01:18:00,
2013-01-04 20:19:00,27.0,20.5,30.12,ESE,115,0.0,0.0,76,0.00,,SKC,0.00,VWS V14.01,2013-01-05 01:19:00,
2013-01-04 20:20:00,27.0,20.5,30.12,ESE,115,0.0,0.0,76,0.00,,SKC,0.00,VWS V14.01,2013-01-05 01:20:00,
2013-01-04 20:21:00,27.0,20.5,30.12,ESE,115,0.0,0.0,76,0.00,,SKC,0.00,VWS V14.01,2013-01-05 01:21:00,
2013-01-04 20:22:00,27.0,20.8,30.12,ESE,115,0.0,0.0,77,0.00,,SKC,0.00,VWS V14.01,2013-01-05 01:22:00,
2013-01-04 20:23:00,27.0,20.8,30.12,ESE,115,0.0,2.0,77,0.00,,SKC,0.00,VWS V14.01,2013-01-05 01:23:00,
2013-01-04 20:24:00,27.0,20.8,30.12,ESE,115,0.0,0.0,77,0.00,,SKC,0.00,VWS V14.01,2013-01-05 01:24:00,
2013-01-04 20:25:00,27.0,20.8,30.12,ESE,115,1.0,2.0,77,0.00,,SKC,0.00,VWS V14.01,2013-01-05 01:25:00,
2013-01-04 20:26:00,27.0,20.8,30.12,ESE,115,1.0,1.0,77,0.00,,SKC,0.00,VWS V14.01,2013-01-05 01:26:00,
2013-01-04 20:27:00,27.0,20.8,30.12,ESE,115,0.0,2.0,77,0.00,,SKC,0.00,VWS V14.01,2013-01-05 01:27:00,
2013-01-04 20:28:00,27.0,20.8,30.12,ESE,115,1.0,2.0,77,0.00,,SKC,0.00,VWS V14.01,2013-01-05 01:28:00,
2013-01-04 20:29:00,27.0,20.8,30.12,ESE,115,1.0,2.0,77,0.00,,SKC,0.00,VWS V14.01,2013-01-05 01:29:00,
2013-01-04 20:30:00,27.0,20.8,30.12,ESE,115,0.0,1.0,77,0.00,,SKC,0.00,VWS V14.01,2013-01-05 01:30:00,
2013-01-04 20:31:00,27.0,20.8,30.12,ESE,115,0.0,1.0,77,0.00,,SKC,0.00,VWS V14.01,2013-01-05 01:31:00,
2013-01-04 20:32:00,27.0,20.8,30.12,ESE,115,0.0,0.0,77,0.00,,SKC,0.00,VWS V14.01,2013-01-05 01:32:00,
2013-01-04 20:33:00,27.0,20.8,30.12,ESE,115,0.0,0.0,77,0.00,,SKC,0.00,VWS V14.01,2013-01-05 01:33:00,
2013-01-04 20:34:00,27.1,20.9,30.12,ESE,115,0.0,0.0,77,0.00,,SKC,0.00,VWS V14.01,2013-01-05 01:34:00,
2013-01-04 20:35:00,27.0,20.8,30.12,ESE,115,0.0,0.0,77,0.00,,SKC,0.00,VWS V14.01,2013-01-05 01:35:00,
2013-01-04 20:36:00,27.0,20.8,30.12,ESE,115,0.0,0.0,77,0.00,,SKC,0.00,VWS V14.01,2013-01-05 01:36:00,
2013-01-04 20:37:00,27.0,20.8,30.12,ESE,115,0.0,0.0,77,0.00,,SKC,0.00,VWS V14.01,2013-01-05 01:37:00,
2013-01-04 20:38:00,27.0,20.8,30.12,ESE,115,0.0,0.0,77,0.00,,SKC,0.00,VWS V14.01,2013-01-05 01:38:00,
2013-01-04 20:39:00,27.0,20.8,30.12,ESE,115,1.0,1.0,77,0.00,,SKC,0.00,VWS V14.01,2013-01-05 01:39:00,
2013-01-04 20:40:00,27.0,20.8,30.12,ESE,115,0.0,0.0,77,0.00,,SKC,0.00,VWS V14.01,2013-01-05 01:40:00,
2013-01-04 20:41:00,27.1,20.9,30.12,ESE,115,0.0,1.0,77,0.00,,SKC,0.00,VWS V14.01,2013-01-05 01:41:00,
2013-01-04 20:42:00,27.1,20.9,30.12,ESE,115,0.0,0.0,77,0.00,,SKC,0.00,VWS V14.01,2013-01-05 01:42:00,
2013-01-04 20:43:00,27.1,20.9,30.12,ESE,115,0.0,0.0,77,0.00,,SKC,0.00,VWS V14.01,2013-01-05 01:43:00,
2013-01-04 20:44:00,27.1,20.9,30.12,ESE,115,0.0,0.0,77,0.00,,SKC,0.00,VWS V14.01,2013-01-05 01:44:00,
2013-01-04 20:45:00,27.1,20.9,30.12,ESE,115,0.0,0.0,77,0.00,,SKC,0.00,VWS V14.01,2013-01-05 01:45:00,
2013-01-04 20:46:00,27.2,21.0,30.12,ESE,114,1.0,2.0,77,0.00,,SKC,0.00,VWS V14.01,2013-01-05 01:46:00,
2013-01-04 20:47:00,27.2,21.0,30.12,ESE,114,0.0,2.0,77,0.00,,SKC,0.00,VWS V14.01,2013-01-05 01:47:00,
2013-01-04 20:48:00,27.2,21.0,30.12,ESE,114,0.0,1.0,77,0.00,,SKC,0.00,VWS V14.01,2013-01-05 01:48:00,
2013-01-04 20:49:00,27.2,21.0,30.12,ESE,114,0.0,0.0,77,0.00,,SKC,0.00,VWS V14.01,2013-01-05 01:49:00,
2013-01-04 20:50:00,27.2,21.0,30.12,ESE,114,1.0,1.0,77,0.00,,SKC,0.00,VWS V14.01,2013-01-05 01:50:00,
2013-01-04 20:51:00,27.3,21.1,30.12,ESE,114,0.0,1.0,77,0.00,,SKC,0.00,VWS V14.01,2013-01-05 01:51:00,
2013-01-04 20:52:00,27.3,21.1,30.12,ESE,114,0.0,0.0,77,0.00,,SKC,0.00,VWS V14.01,2013-01-05 01:52:00,
2013-01-04 20:53:00,27.3,21.1,30.12,ESE,114,0.0,1.0,77,0.00,,SKC,0.00,VWS V14.01,2013-01-05 01:53:00,
2013-01-04 20:54:00,27.4,21.1,30.12,ESE,114,0.0,0.0,77,0.00,,SKC,0.00,VWS V14.01,2013-01-05 01:54:00,
2013-01-04 20:55:00,27.3,21.1,30.12,ESE,114,0.0,1.0,77,0.00,,SKC,0.00,VWS V14.01,2013-01-05 01:55:00,
2013-01-04 20:56:00,27.4,21.1,30.12,ESE,114,0.0,1.0,77,0.00,,SKC,0.00,VWS V14.01,2013-01-05 01:56:00,
2013-01-04 20:57:00,27.4,21.1,30.12,ESE,114,2.0,2.0,77,0.00,,SKC,0.00,VWS V14.01,2013-01-05 01:57:00,
2013-01-04 20:58:00,27.4,20.8,30.12,ESE,114,2.0,4.0,76,0.00,,SKC,0.00,VWS V14.01,2013-01-05 01:58:00,
2013-01-04 20:59:00,27.4,20.8,30.12,ESE,114,1.0,2.0,76,0.00,,SKC,0.00,VWS V14.01,2013-01-05 01:59:00,
2013-01-04 21:00:00,27.4,21.1,30.12,ESE,114,2.0,4.0,77,0.00,,SKC,0.00,VWS V14.01,2013-01-05 02:00:00,
2013-01-04 21:01:00,27.4,20.8,30.12,ESE,114,0.0,2.0,76,0.00,,SKC,0.00,VWS V14.01,2013-01-05 02:01:00,
2013-01-04 21:02:00,27.4,20.8,30.12,ESE,114,1.0,1.0,76,0.00,,SKC,0.00,VWS V14.01,2013-01-05 02:02:00,
2013-01-04 21:03:00,27.5,20.9,30.12,ESE,114,1.0,1.0,76,0.00,,SKC,0.00,VWS V14.01,2013-01-05 02:03:00,
2013-01-04 21:04:00,27.4,20.8,30.12,ESE,114,0.0,1.0,76,0.00,,SKC,0.00,VWS V14.01,2013-01-05 02:04:00,
2013-01-04 21:05:00,27.4,20.8,30.12,ESE,114,1.0,1.0,76,0.00,,SKC,0.00,VWS V14.01,2013-01-05 02:05:00,
2013-01-04 21:06:00,27.4,21.1,30.12,ESE,114,0.0,0.0,77,0.00,,SKC,0.00,VWS V14.01,2013-01-05 02:06:00,
2013-01-04 21:07:00,27.4,21.1,30.12,ESE,114,0.0,0.0,77,0.00,,SKC,0.00,VWS V14.01,2013-01-05 02:07:00,
2013-01-04 21:08:00,27.3,20.8,30.12,ESE,114,0.0,0.0,76,0.00,,SKC,0.00,VWS V14.01,2013-01-05 02:08:00,
2013-01-04 21:09:00,27.2,21.0,30.12,ESE,114,0.0,0.0,77,0.00,,SKC,0.00,VWS V14.01,2013-01-05 02:09:00,
2013-01-04 21:10:00,27.3,21.1,30.12,ESE,114,0.0,0.0,77,0.00,,SKC,0.00,VWS V14.01,2013-01-05 02:10:00,
2013-01-04 21:11:00,27.2,20.6,30.12,ESE,114,0.0,0.0,76,0.00,,SKC,0.00,VWS V14.01,2013-01-05 02:11:00,
2013-01-04 21:12:00,27.1,20.9,30.12,ESE,114,0.0,0.0,77,0.00,,SKC,0.00,VWS V14.01,2013-01-05 02:12:00,
2013-01-04 21:13:00,27.1,20.9,30.12,ESE,114,0.0,0.0,77,0.00,,SKC,0.00,VWS V14.01,2013-01-05 02:13:00,
2013-01-04 21:14:00,27.1,20.9,30.12,ESE,114,0.0,0.0,77,0.00,,SKC,0.00,VWS V14.01,2013-01-05 02:14:00,
2013-01-04 21:15:00,27.1,20.9,30.12,ESE,114,0.0,0.0,77,0.00,,SKC,0.00,VWS V14.01,2013-01-05 02:15:00,
2013-01-04 21:16:00,27.0,20.8,30.12,ESE,114,0.0,0.0,77,0.00,,SKC,0.00,VWS V14.01,2013-01-05 02:16:00,
2013-01-04 21:17:00,26.9,20.7,30.12,ESE,114,0.0,0.0,77,0.00,,SKC,0.00,VWS V14.01,2013-01-05 02:17:00,
2013-01-04 21:18:00,26.9,20.7,30.12,ESE,114,0.0,0.0,77,0.00,,SKC,0.00,VWS V14.01,2013-01-05 02:18:00,
2013-01-04 21:19:00,26.8,20.6,30.12,ESE,114,0.0,0.0,77,0.00,,SKC,0.00,VWS V14.01,2013-01-05 02:19:00,
2013-01-04 21:20:00,26.9,20.7,30.12,ESE,114,0.0,0.0,77,0.00,,SKC,0.00,VWS V14.01,2013-01-05 02:20:00,
2013-01-04 21:21:00,26.7,20.5,30.12,ESE,114,0.0,0.0,77,0.00,,SKC,0.00,VWS V14.01,2013-01-05 02:21:00,
2013-01-04 21:22:00,26.6,20.4,30.12,ESE,114,0.0,0.0,77,0.00,,SKC,0.00,VWS V14.01,2013-01-05 02:22:00,
2013-01-04 21:23:00,26.6,20.4,30.12,ESE,114,1.0,1.0,77,0.00,,SKC,0.00,VWS V14.01,2013-01-05 02:23:00,
2013-01-04 21:24:00,26.6,20.4,30.12,ESE,114,0.0,2.0,77,0.00,,SKC,0.00,VWS V14.01,2013-01-05 02:24:00,
2013-01-04 21:25:00,26.6,20.4,30.12,ESE,114,0.0,0.0,77,0.00,,SKC,0.00,VWS V14.01,2013-01-05 02:25:00,
2013-01-04 21:26:00,26.6,20.7,30.12,ESE,114,1.0,2.0,78,0.00,,SKC,0.00,VWS V14.01,2013-01-05 02:26:00,
2013-01-04 21:27:00,26.6,20.7,30.12,ESE,114,0.0,1.0,78,0.00,,SKC,0.00,VWS V14.01,2013-01-05 02:27:00,
2013-01-04 21:28:00,26.6,20.7,30.12,ESE,114,0.0,0.0,78,0.00,,SKC,0.00,VWS V14.01,2013-01-05 02:28:00,
2013-01-04 21:29:00,26.6,20.7,30.12,ESE,114,0.0,0.0,78,0.00,,SKC,0.00,VWS V14.01,2013-01-05 02:29:00,
2013-01-04 21:30:00,26.6,20.7,30.12,ESE,114,0.0,0.0,78,0.00,,SKC,0.00,VWS V14.01,2013-01-05 02:30:00,
2013-01-04 21:31:00,26.6,20.7,30.12,ESE,114,0.0,0.0,78,0.00,,SKC,0.00,VWS V14.01,2013-01-05 02:31:00,
2013-01-04 21:32:00,26.5,20.6,30.12,ESE,114,0.0,0.0,78,0.00,,SKC,0.00,VWS V14.01,2013-01-05 02:32:00,
2013-01-04 21:33:00,26.5,20.6,30.12,ESE,114,0.0,0.0,78,0.00,,SKC,0.00,VWS V14.01,2013-01-05 02:33:00,
2013-01-04 21:34:00,26.5,20.6,30.12,ESE,114,0.0,0.0,78,0.00,,SKC,0.00,VWS V14.01,2013-01-05 02:34:00,
2013-01-04 21:35:00,26.5,20.6,30.12,ESE,114,0.0,0.0,78,0.00,,SKC,0.00,VWS V14.01,2013-01-05 02:35:00,
2013-01-04 21:36:00,26.4,20.5,30.12,ESE,114,0.0,0.0,78,0.00,,SKC,0.00,VWS V14.01,2013-01-05 02:36:00,
2013-01-04 21:37:00,26.3,20.4,30.12,ESE,114,1.0,2.0,78,0.00,,SKC,0.00,VWS V14.01,2013-01-05 02:37:00,
2013-01-04 21:38:00,26.3,20.4,30.12,ESE,114,1.0,2.0,78,0.00,,SKC,0.00,VWS V14.01,2013-01-05 02:38:00,
2013-01-04 21:39:00,26.3,20.4,30.12,ESE,114,0.0,1.0,78,0.00,,SKC,0.00,VWS V14.01,2013-01-05 02:39:00,
2013-01-04 21:40:00,26.3,20.4,30.12,ESE,114,2.0,2.0,78,0.00,,SKC,0.00,VWS V14.01,2013-01-05 02:40:00,
2013-01-04 21:41:00,26.3,20.4,30.12,ESE,114,0.0,1.0,78,0.00,,SKC,0.00,VWS V14.01,2013-01-05 02:41:00,
2013-01-04 21:42:00,26.3,20.4,30.12,ESE,114,0.0,0.0,78,0.00,,SKC,0.00,VWS V14.01,2013-01-05 02:42:00,
2013-01-04 21:43:00,26.2,20.3,30.12,ESE,114,1.0,4.0,78,0.00,,SKC,0.00,VWS V14.01,2013-01-05 02:43:00,
2013-01-04 21:44:00,26.3,20.4,30.12,ESE,114,0.0,1.0,78,0.00,,SKC,0.00,VWS V14.01,2013-01-05 02:44:00,
2013-01-04 21:45:00,26.3,20.4,30.12,ESE,114,2.0,4.0,78,0.00,,SKC,0.00,VWS V14.01,2013-01-05 02:45:00,
2013-01-04 21:46:00,26.2,20.3,30.12,ESE,114,1.0,1.0,78,0.00,,SKC,0.00,VWS V14.01,2013-01-05 02:46:00,
2013-01-04 21:47:00,26.2,20.3,30.12,ESE,114,2.0,2.0,78,0.00,,SKC,0.00,VWS V14.01,2013-01-05 02:47:00,
2013-01-04 21:48:00,26.2,20.3,30.12,ESE,114,0.0,2.0,78,0.00,,SKC,0.00,VWS V14.01,2013-01-05 02:48:00,
2013-01-04 21:49:00,26.2,20.3,30.12,ESE,114,2.0,2.0,78,0.00,,SKC,0.00,VWS V14.01,2013-01-05 02:49:00,
2013-01-04 21:50:00,26.2,20.3,30.12,ESE,114,0.0,1.0,78,0.00,,SKC,0.00,VWS V14.01,2013-01-05 02:50:00,
2013-01-04 21:51:00,26.2,20.3,30.12,ESE,114,1.0,2.0,78,0.00,,SKC,0.00,VWS V14.01,2013-01-05 02:51:00,
2013-01-04 21:52:00,26.3,20.4,30.12,ESE,114,0.0,1.0,78,0.00,,SKC,0.00,VWS V14.01,2013-01-05 02:52:00,
2013-01-04 21:53:00,26.3,20.4,30.12,ESE,114,0.0,0.0,78,0.00,,SKC,0.00,VWS V14.01,2013-01-05 02:53:00,
2013-01-04 21:54:00,26.2,20.3,30.12,ESE,114,0.0,0.0,78,0.00,,SKC,0.00,VWS V14.01,2013-01-05 02:54:00,
2013-01-04 21:55:00,26.3,20.4,30.12,ESE,114,0.0,0.0,78,0.00,,SKC,0.00,VWS V14.01,2013-01-05 02:55:00,
2013-01-04 21:56:00,26.2,20.3,30.12,ESE,114,0.0,0.0,78,0.00,,SKC,0.00,VWS V14.01,2013-01-05 02:56:00,
2013-01-04 21:57:00,26.2,20.3,30.12,ESE,114,0.0,0.0,78,0.00,,SKC,0.00,VWS V14.01,2013-01-05 02:57:00,
2013-01-04 21:58:00,26.2,20.3,30.12,ESE,114,0.0,0.0,78,0.00,,SKC,0.00,VWS V14.01,2013-01-05 02:58:00,
2013-01-04 21:59:00,26.2,20.3,30.12,ESE,114,0.0,0.0,78,0.00,,SKC,0.00,VWS V14.01,2013-01-05 02:59:00,
2013-01-04 22:00:00,26.2,20.3,30.12,ESE,114,0.0,0.0,78,0.00,,SKC,0.00,VWS V14.01,2013-01-05 03:00:00,
2013-01-04 22:01:00,26.2,20.3,30.12,ESE,114,0.0,0.0,78,0.00,,SKC,0.00,VWS V14.01,2013-01-05 03:01:00,
2013-01-04 22:02:00,26.2,20.3,30.12,ESE,114,0.0,0.0,78,0.00,,SKC,0.00,VWS V14.01,2013-01-05 03:02:00,
2013-01-04 22:03:00,26.1,20.2,30.12,ESE,114,1.0,1.0,78,0.00,,SKC,0.00,VWS V14.01,2013-01-05 03:03:00,
2013-01-04 22:04:00,26.2,20.3,30.12,ESE,114,0.0,0.0,78,0.00,,SKC,0.00,VWS V14.01,2013-01-05 03:04:00,
2013-01-04 22:05:00,26.2,20.3,30.12,ESE,114,0.0,1.0,78,0.00,,SKC,0.00,VWS V14.01,2013-01-05 03:05:00,
2013-01-04 22:06:00,26.1,20.2,30.12,ESE,114,0.0,0.0,78,0.00,,SKC,0.00,VWS V14.01,2013-01-05 03:06:00,
2013-01-04 22:07:00,26.1,20.2,30.12,ESE,114,0.0,0.0,78,0.00,,SKC,0.00,VWS V14.01,2013-01-05 03:07:00,
2013-01-04 22:08:00,26.1,20.2,30.12,ESE,114,0.0,0.0,78,0.00,,SKC,0.00,VWS V14.01,2013-01-05 03:08:00,
2013-01-04 22:09:00,26.1,20.2,30.12,ESE,114,0.0,0.0,78,0.00,,SKC,0.00,VWS V14.01,2013-01-05 03:09:00,
2013-01-04 22:10:00,26.0,20.1,30.12,ESE,114,0.0,0.0,78,0.00,,SKC,0.00,VWS V14.01,2013-01-05 03:10:00,
2013-01-04 22:11:00,26.0,20.1,30.12,ESE,114,0.0,1.0,78,0.00,,SKC,0.00,VWS V14.01,2013-01-05 03:11:00,
2013-01-04 22:12:00,26.0,20.1,30.12,ESE,114,0.0,0.0,78,0.00,,SKC,0.00,VWS V14.01,2013-01-05 03:12:00,
2013-01-04 22:13:00,25.9,20.0,30.12,ESE,114,0.0,0.0,78,0.00,,SKC,0.00,VWS V14.01,2013-01-05 03:13:00,
2013-01-04 22:14:00,26.0,20.1,30.12,ESE,114,0.0,0.0,78,0.00,,SKC,0.00,VWS V14.01,2013-01-05 03:14:00,
2013-01-04 22:15:00,25.8,19.9,30.12,ESE,114,0.0,0.0,78,0.00,,SKC,0.00,VWS V14.01,2013-01-05 03:15:00,
2013-01-04 22:16:00,25.8,19.9,30.12,ESE,114,0.0,0.0,78,0.00,,SKC,0.00,VWS V14.01,2013-01-05 03:16:00,
2013-01-04 22:17:00,25.8,19.9,30.12,ESE,114,0.0,0.0,78,0.00,,SKC,0.00,VWS V14.01,2013-01-05 03:17:00,
2013-01-04 22:18:00,25.8,19.9,30.12,ESE,114,0.0,0.0,78,0.00,,SKC,0.00,VWS V14.01,2013-01-05 03:18:00,
2013-01-04 22:19:00,25.8,19.9,30.12,ESE,114,0.0,0.0,78,0.00,,SKC,0.00,VWS V14.01,2013-01-05 03:19:00,
2013-01-04 22:20:00,25.7,20.1,30.12,ESE,114,0.0,0.0,79,0.00,,SKC,0.00,VWS V14.01,2013-01-05 03:20:00,
2013-01-04 22:21:00,25.6,20.0,30.12,ESE,114,0.0,0.0,79,0.00,,SKC,0.00,VWS V14.01,2013-01-05 03:21:00,
2013-01-04 22:22:00,25.6,20.0,30.12,ESE,114,0.0,0.0,79,0.00,,SKC,0.00,VWS V14.01,2013-01-05 03:22:00,
2013-01-04 22:23:00,25.6,20.0,30.12,ESE,114,0.0,0.0,79,0.00,,SKC,0.00,VWS V14.01,2013-01-05 03:23:00,
2013-01-04 22:24:00,25.6,20.0,30.12,ESE,114,0.0,0.0,79,0.00,,SKC,0.00,VWS V14.01,2013-01-05 03:24:00,
2013-01-04 22:25:00,25.5,19.9,30.12,ESE,114,0.0,0.0,79,0.00,,SKC,0.00,VWS V14.01,2013-01-05 03:25:00,
2013-01-04 22:26:00,25.4,19.8,30.12,ESE,114,0.0,0.0,79,0.00,,SKC,0.00,VWS V14.01,2013-01-05 03:26:00,
2013-01-04 22:27:00,25.4,19.8,30.12,ESE,114,0.0,0.0,79,0.00,,SKC,0.00,VWS V14.01,2013-01-05 03:27:00,
2013-01-04 22:28:00,25.4,19.8,30.12,ESE,114,0.0,0.0,79,0.00,,SKC,0.00,VWS V14.01,2013-01-05 03:28:00,
2013-01-04 22:29:00,25.4,19.8,30.12,ESE,114,0.0,0.0,79,0.00,,SKC,0.00,VWS V14.01,2013-01-05 03:29:00,
2013-01-04 22:30:00,25.4,19.8,30.12,ESE,114,0.0,0.0,79,0.00,,SKC,0.00,VWS V14.01,2013-01-05 03:30:00,
2013-01-04 22:31:00,25.4,20.1,30.12,ESE,114,0.0,0.0,80,0.00,,SKC,0.00,VWS V14.01,2013-01-05 03:31:00,
2013-01-04 22:32:00,25.4,19.8,30.12,ESE,114,0.0,0.0,79,0.00,,SKC,0.00,VWS V14.01,2013-01-05 03:32:00,
2013-01-04 22:33:00,25.3,19.7,30.12,ESE,114,0.0,0.0,79,0.00,,SKC,0.00,VWS V14.01,2013-01-05 03:33:00,
2013-01-04 22:34:00,25.4,19.8,30.12,ESE,114,0.0,0.0,79,0.00,,SKC,0.00,VWS V14.01,2013-01-05 03:34:00,
2013-01-04 22:35:00,25.3,19.7,30.12,ESE,114,0.0,0.0,79,0.00,,SKC,0.00,VWS V14.01,2013-01-05 03:35:00,
2013-01-04 22:36:00,25.2,19.6,30.12,ESE,114,0.0,0.0,79,0.00,,SKC,0.00,VWS V14.01,2013-01-05 03:36:00,
2013-01-04 22:37:00,25.2,19.6,30.12,ESE,114,0.0,0.0,79,0.00,,SKC,0.00,VWS V14.01,2013-01-05 03:37:00,
2013-01-04 22:38:00,25.1,19.5,30.12,ESE,114,0.0,0.0,79,0.00,,SKC,0.00,VWS V14.01,2013-01-05 03:38:00,
2013-01-04 22:39:00,25.2,19.6,30.12,ESE,114,0.0,0.0,79,0.00,,SKC,0.00,VWS V14.01,2013-01-05 03:39:00,
2013-01-04 22:40:00,25.1,19.8,30.12,ESE,114,0.0,0.0,80,0.00,,SKC,0.00,VWS V14.01,2013-01-05 03:40:00,
2013-01-04 22:41:00,25.0,19.7,30.12,ESE,114,0.0,0.0,80,0.00,,SKC,0.00,VWS V14.01,2013-01-05 03:41:00,
2013-01-04 22:42:00,25.0,19.7,30.12,ESE,114,0.0,0.0,80,0.00,,SKC,0.00,VWS V14.01,2013-01-05 03:42:00,
2013-01-04 22:43:00,24.9,19.6,30.12,ESE,114,0.0,0.0,80,0.00,,SKC,0.00,VWS V14.01,2013-01-05 03:43:00,
2013-01-04 22:44:00,25.0,19.7,30.12,ESE,114,0.0,0.0,80,0.00,,SKC,0.00,VWS V14.01,2013-01-05 03:44:00,
2013-01-04 22:45:00,24.9,19.6,30.12,ESE,114,0.0,0.0,80,0.00,,SKC,0.00,VWS V14.01,2013-01-05 03:45:00,
2013-01-04 22:46:00,24.9,19.6,30.12,ESE,114,0.0,0.0,80,0.00,,SKC,0.00,VWS V14.01,2013-01-05 03:46:00,
2013-01-04 22:47:00,24.8,19.8,30.12,ESE,114,0.0,1.0,81,0.00,,SKC,0.00,VWS V14.01,2013-01-05 03:47:00,
2013-01-04 22:48:00,24.8,19.8,30.12,ESE,114,0.0,0.0,81,0.00,,SKC,0.00,VWS V14.01,2013-01-05 03:48:00,
2013-01-04 22:49:00,24.8,19.8,30.12,ESE,114,0.0,0.0,81,0.00,,SKC,0.00,VWS V14.01,2013-01-05 03:49:00,
2013-01-04 22:50:00,24.9,19.9,30.12,ESE,114,0.0,0.0,81,0.00,,SKC,0.00,VWS V14.01,2013-01-05 03:50:00,
2013-01-04 22:51:00,24.9,19.6,30.12,ESE,114,0.0,0.0,80,0.00,,SKC,0.00,VWS V14.01,2013-01-05 03:51:00,
2013-01-04 22:52:00,24.9,19.6,30.12,ESE,114,0.0,0.0,80,0.00,,SKC,0.00,VWS V14.01,2013-01-05 03:52:00,
2013-01-04 22:53:00,24.8,19.8,30.12,ESE,114,0.0,0.0,81,0.00,,SKC,0.00,VWS V14.01,2013-01-05 03:53:00,
2013-01-04 22:54:00,24.8,19.5,30.12,ESE,114,0.0,0.0,80,0.00,,SKC,0.00,VWS V14.01,2013-01-05 03:54:00,
2013-01-04 22:55:00,24.8,19.8,30.12,ESE,114,0.0,0.0,81,0.00,,SKC,0.00,VWS V14.01,2013-01-05 03:55:00,
2013-01-04 22:56:00,24.8,19.8,30.12,ESE,114,0.0,0.0,81,0.00,,SKC,0.00,VWS V14.01,2013-01-05 03:56:00,
2013-01-04 22:57:00,24.7,19.7,30.12,ESE,114,0.0,0.0,81,0.00,,SKC,0.00,VWS V14.01,2013-01-05 03:57:00,
2013-01-04 22:58:00,24.7,19.7,30.12,ESE,114,0.0,0.0,81,0.00,,SKC,0.00,VWS V14.01,2013-01-05 03:58:00,
2013-01-04 22:59:00,24.7,19.7,30.12,ESE,114,0.0,0.0,81,0.00,,SKC,0.00,VWS V14.01,2013-01-05 03:59:00,
2013-01-04 23:00:00,24.6,19.6,30.12,ESE,114,0.0,0.0,81,0.00,,SKC,0.00,VWS V14.01,2013-01-05 04:00:00,
2013-01-04 23:01:00,24.5,19.5,30.12,ESE,114,0.0,0.0,81,0.00,,SKC,0.00,VWS V14.01,2013-01-05 04:01:00,
2013-01-04 23:02:00,24.5,19.5,30.12,ESE,114,0.0,0.0,81,0.00,,SKC,0.00,VWS V14.01,2013-01-05 04:02:00,
2013-01-04 23:03:00,24.5,19.5,30.12,ESE,114,0.0,0.0,81,0.00,,SKC,0.00,VWS V14.01,2013-01-05 04:03:00,
2013-01-04 23:04:00,24.5,19.5,30.12,ESE,114,0.0,0.0,81,0.00,,SKC,0.00,VWS V14.01,2013-01-05 04:04:00,
2013-01-04 23:05:00,24.4,19.4,30.12,ESE,114,0.0,0.0,81,0.00,,SKC,0.00,VWS V14.01,2013-01-05 04:05:00,
2013-01-04 23:06:00,24.4,19.7,30.12,ESE,114,0.0,0.0,82,0.00,,SKC,0.00,VWS V14.01,2013-01-05 04:06:00,
2013-01-04 23:07:00,24.4,19.7,30.12,ESE,114,0.0,0.0,82,0.00,,SKC,0.00,VWS V14.01,2013-01-05 04:07:00,
2013-01-04 23:08:00,24.3,19.6,30.12,ESE,114,0.0,0.0,82,0.00,,SKC,0.00,VWS V14.01,2013-01-05 04:08:00,
2013-01-04 23:09:00,24.4,19.7,30.12,ESE,114,0.0,0.0,82,0.00,,SKC,0.00,VWS V14.01,2013-01-05 04:09:00,
2013-01-04 23:10:00,24.3,19.6,30.12,ESE,114,0.0,0.0,82,0.00,,SKC,0.00,VWS V14.01,2013-01-05 04:10:00,
2013-01-04 23:11:00,24.2,19.5,30.12,ESE,114,0.0,0.0,82,0.00,,SKC,0.00,VWS V14.01,2013-01-05 04:11:00,
2013-01-04 23:12:00,24.2,19.5,30.12,ESE,114,0.0,0.0,82,0.00,,SKC,0.00,VWS V14.01,2013-01-05 04:12:00,
2013-01-04 23:13:00,24.2,19.5,30.12,ESE,114,0.0,0.0,82,0.00,,SKC,0.00,VWS V14.01,2013-01-05 04:13:00,
2013-01-04 23:14:00,24.2,19.5,30.12,ESE,114,0.0,0.0,82,0.00,,SKC,0.00,VWS V14.01,2013-01-05 04:14:00,
2013-01-04 23:15:00,24.1,19.4,30.12,ESE,114,0.0,0.0,82,0.00,,SKC,0.00,VWS V14.01,2013-01-05 04:15:00,
2013-01-04 23:16:00,24.1,19.4,30.12,ESE,114,0.0,0.0,82,0.00,,SKC,0.00,VWS V14.01,2013-01-05 04:16:00,
2013-01-04 23:17:00,24.0,19.3,30.12,ESE,114,0.0,0.0,82,0.00,,SKC,0.00,VWS V14.01,2013-01-05 04:17:00,
2013-01-04 23:18:00,24.0,19.3,30.12,ESE,114,0.0,0.0,82,0.00,,SKC,0.00,VWS V14.01,2013-01-05 04:18:00,
2013-01-04 23:19:00,24.0,19.3,30.12,ESE,114,0.0,0.0,82,0.00,,SKC,0.00,VWS V14.01,2013-01-05 04:19:00,
2013-01-04 23:20:00,23.9,19.2,30.12,ESE,114,0.0,0.0,82,0.00,,SKC,0.00,VWS V14.01,2013-01-05 04:20:00,
2013-01-04 23:21:00,23.9,19.2,30.12,ESE,114,0.0,0.0,82,0.00,,SKC,0.00,VWS V14.01,2013-01-05 04:21:00,
2013-01-04 23:22:00,23.9,19.2,30.12,ESE,114,0.0,0.0,82,0.00,,SKC,0.00,VWS V14.01,2013-01-05 04:22:00,
2013-01-04 23:23:00,23.8,19.4,30.12,ESE,114,0.0,0.0,83,0.00,,SKC,0.00,VWS V14.01,2013-01-05 04:23:00,
2013-01-04 23:24:00,23.9,19.2,30.12,ESE,114,0.0,0.0,82,0.00,,SKC,0.00,VWS V14.01,2013-01-05 04:24:00,
2013-01-04 23:25:00,23.7,19.3,30.12,ESE,114,0.0,0.0,83,0.00,,SKC,0.00,VWS V14.01,2013-01-05 04:25:00,
2013-01-04 23:26:00,23.7,19.3,30.12,ESE,114,0.0,0.0,83,0.00,,SKC,0.00,VWS V14.01,2013-01-05 04:26:00,
2013-01-04 23:27:00,23.7,19.3,30.12,ESE,114,0.0,0.0,83,0.00,,SKC,0.00,VWS V14.01,2013-01-05 04:27:00,
2013-01-04 23:28:00,23.6,19.2,30.12,ESE,114,0.0,0.0,83,0.00,,SKC,0.00,VWS V14.01,2013-01-05 04:28:00,
2013-01-04 23:29:00,23.7,19.3,30.12,ESE,114,0.0,0.0,83,0.00,,SKC,0.00,VWS V14.01,2013-01-05 04:29:00,
2013-01-04 23:30:00,23.5,19.1,30.12,ESE,114,0.0,0.0,83,0.00,,SKC,0.00,VWS V14.01,2013-01-05 04:30:00,
2013-01-04 23:31:00,23.5,19.1,30.12,ESE,114,0.0,0.0,83,0.00,,SKC,0.00,VWS V14.01,2013-01-05 04:31:00,
2013-01-04 23:32:00,23.4,19.0,30.12,ESE,114,0.0,0.0,83,0.00,,SKC,0.00,VWS V14.01,2013-01-05 04:32:00,
2013-01-04 23:33:00,23.4,19.0,30.12,ESE,114,0.0,0.0,83,0.00,,SKC,0.00,VWS V14.01,2013-01-05 04:33:00,
2013-01-04 23:34:00,23.4,19.0,30.12,ESE,114,0.0,0.0,83,0.00,,SKC,0.00,VWS V14.01,2013-01-05 04:34:00,
2013-01-04 23:35:00,23.3,18.9,30.12,ESE,114,0.0,0.0,83,0.00,,SKC,0.00,VWS V14.01,2013-01-05 04:35:00,
2013-01-04 23:36:00,23.3,18.9,30.12,ESE,114,0.0,0.0,83,0.00,,SKC,0.00,VWS V14.01,2013-01-05 04:36:00,
2013-01-04 23:37:00,23.3,19.2,30.12,ESE,114,0.0,0.0,84,0.00,,SKC,0.00,VWS V14.01,2013-01-05 04:37:00,
2013-01-04 23:38:00,23.3,19.2,30.12,ESE,114,0.0,0.0,84,0.00,,SKC,0.00,VWS V14.01,2013-01-05 04:38:00,
2013-01-04 23:39:00,23.3,19.2,30.12,ESE,114,0.0,0.0,84,0.00,,SKC,0.00,VWS V14.01,2013-01-05 04:39:00,
2013-01-04 23:40:00,23.3,19.2,30.12,ESE,114,0.0,0.0,84,0.00,,SKC,0.00,VWS V14.01,2013-01-05 04:40:00,
2013-01-04 23:41:00,23.3,19.2,30.12,ESE,114,0.0,0.0,84,0.00,,SKC,0.00,VWS V14.01,2013-01-05 04:41:00,
2013-01-04 23:42:00,23.3,19.2,30.12,ESE,114,0.0,0.0,84,0.00,,SKC,0.00,VWS V14.01,2013-01-05 04:42:00,
2013-01-04 23:43:00,23.3,19.2,30.12,ESE,114,0.0,0.0,84,0.00,,SKC,0.00,VWS V14.01,2013-01-05 04:43:00,
2013-01-04 23:44:00,23.3,19.2,30.12,ESE,114,0.0,0.0,84,0.00,,SKC,0.00,VWS V14.01,2013-01-05 04:44:00,
2013-01-04 23:45:00,23.3,19.2,30.12,ESE,114,0.0,0.0,84,0.00,,SKC,0.00,VWS V14.01,2013-01-05 04:45:00,
2013-01-04 23:46:00,23.3,19.2,30.12,ESE,114,0.0,0.0,84,0.00,,SKC,0.00,VWS V14.01,2013-01-05 04:46:00,
2013-01-04 23:47:00,23.2,19.1,30.12,ESE,114,0.0,0.0,84,0.00,,SKC,0.00,VWS V14.01,2013-01-05 04:47:00,
2013-01-04 23:48:00,23.2,19.1,30.12,ESE,114,0.0,0.0,84,0.00,,SKC,0.00,VWS V14.01,2013-01-05 04:48:00,
2013-01-04 23:49:00,23.3,19.2,30.12,ESE,114,0.0,0.0,84,0.00,,SKC,0.00,VWS V14.01,2013-01-05 04:49:00,
2013-01-04 23:50:00,23.2,19.1,30.12,ESE,114,0.0,0.0,84,0.00,,SKC,0.00,VWS V14.01,2013-01-05 04:50:00,
2013-01-04 23:51:00,23.1,19.0,30.12,ESE,114,0.0,0.0,84,0.00,,SKC,0.00,VWS V14.01,2013-01-05 04:51:00,
2013-01-04 23:52:00,23.1,19.0,30.12,ESE,114,0.0,0.0,84,0.00,,SKC,0.00,VWS V14.01,2013-01-05 04:52:00,
2013-01-04 23:53:00,23.1,19.0,30.12,ESE,114,0.0,0.0,84,0.00,,SKC,0.00,VWS V14.01,2013-01-05 04:53:00,
2013-01-04 23:54:00,23.1,19.0,30.12,ESE,114,0.0,0.0,84,0.00,,SKC,0.00,VWS V14.01,2013-01-05 04:54:00,
2013-01-04 23:55:00,23.1,19.0,30.12,ESE,114,0.0,0.0,84,0.00,,SKC,0.00,VWS V14.01,2013-01-05 04:55:00,
2013-01-04 23:56:00,23.1,19.0,30.12,ESE,114,0.0,0.0,84,0.00,,SKC,0.00,VWS V14.01,2013-01-05 04:56:00,
2013-01-04 23:57:00,23.1,19.3,30.12,ESE,114,0.0,0.0,85,0.00,,SKC,0.00,VWS V14.01,2013-01-05 04:57:00,
2013-01-04 23:58:00,23.0,19.2,30.12,ESE,114,0.0,0.0,85,0.00,,SKC,0.00,VWS V14.01,2013-01-05 04:58:00,
2013-01-04 23:59:00,23.0,19.2,30.12,ESE,114,0.0,0.0,85,0.00,,SKC,0.00,VWS V14.01,2013-01-05 04:59:00,